<?xml version="1.0" encoding="UTF-8" standalone="no" ?>
<gpx xmlns="http://www.topografix.com/GPX/1/1" xmlns:xsi="http://www.w3.org/2001/XMLSchema-instance" xsi:schemaLocation="http://www.topografix.com/GPX/1/1 http://www.topografix.com/GPX/1/1/gpx.xsd" version="1.1" creator="VisuGPX - https://www.visugpx.com">
  <metadata>
    <name>Autour de Périgneux</name>
    <desc><![CDATA[Au départ de la Gare sur la voie déferrée]]></desc>
  </metadata>
  <trk>
    <name><![CDATA[Perigneux]]></name>
    <trkseg>
      <trkpt lat="45.46009" lon="4.15221">
        <ele>594</ele>
        <time>2017-07-25T15:51:03Z</time>
      </trkpt>
      <trkpt lat="45.45999" lon="4.15222">
        <ele>594</ele>
        <time>2017-07-25T15:53:03Z</time>
      </trkpt>
      <trkpt lat="45.45996" lon="4.1522">
        <ele>594</ele>
        <time>2017-07-25T15:55:03Z</time>
      </trkpt>
      <trkpt lat="45.45987" lon="4.15214">
        <ele>594</ele>
        <time>2017-07-25T15:57:03Z</time>
      </trkpt>
      <trkpt lat="45.45985" lon="4.15214">
        <ele>594</ele>
        <time>2017-07-25T15:59:03Z</time>
      </trkpt>
      <trkpt lat="45.4596" lon="4.152">
        <ele>595</ele>
        <time>2017-07-25T16:01:03Z</time>
      </trkpt>
      <trkpt lat="45.45949" lon="4.15195">
        <ele>595</ele>
        <time>2017-07-25T16:03:03Z</time>
      </trkpt>
      <trkpt lat="45.45908" lon="4.15174">
        <ele>594</ele>
        <time>2017-07-25T16:05:03Z</time>
      </trkpt>
      <trkpt lat="45.45885" lon="4.15165">
        <ele>592</ele>
        <time>2017-07-25T16:07:03Z</time>
      </trkpt>
      <trkpt lat="45.45865" lon="4.15154">
        <ele>592</ele>
        <time>2017-07-25T16:09:03Z</time>
      </trkpt>
      <trkpt lat="45.45837" lon="4.15136">
        <ele>592</ele>
        <time>2017-07-25T16:11:03Z</time>
      </trkpt>
      <trkpt lat="45.45812" lon="4.15113">
        <ele>592</ele>
        <time>2017-07-25T16:13:03Z</time>
      </trkpt>
      <trkpt lat="45.45795" lon="4.15095">
        <ele>592</ele>
        <time>2017-07-25T16:15:03Z</time>
      </trkpt>
      <trkpt lat="45.45774" lon="4.15065">
        <ele>591</ele>
        <time>2017-07-25T16:17:03Z</time>
      </trkpt>
      <trkpt lat="45.45754" lon="4.15031">
        <ele>588</ele>
        <time>2017-07-25T16:19:03Z</time>
      </trkpt>
      <trkpt lat="45.4574" lon="4.14997">
        <ele>585</ele>
        <time>2017-07-25T16:21:03Z</time>
      </trkpt>
      <trkpt lat="45.45729" lon="4.14962">
        <ele>585</ele>
        <time>2017-07-25T16:23:03Z</time>
      </trkpt>
      <trkpt lat="45.45719" lon="4.14922">
        <ele>586</ele>
        <time>2017-07-25T16:25:03Z</time>
      </trkpt>
      <trkpt lat="45.45712" lon="4.14887">
        <ele>590</ele>
        <time>2017-07-25T16:27:03Z</time>
      </trkpt>
      <trkpt lat="45.45708" lon="4.14851">
        <ele>594</ele>
        <time>2017-07-25T16:29:03Z</time>
      </trkpt>
      <trkpt lat="45.45715" lon="4.14764">
        <ele>596</ele>
        <time>2017-07-25T16:31:03Z</time>
      </trkpt>
      <trkpt lat="45.45724" lon="4.1472">
        <ele>594</ele>
        <time>2017-07-25T16:33:03Z</time>
      </trkpt>
      <trkpt lat="45.45725" lon="4.14715">
        <ele>594</ele>
        <time>2017-07-25T16:35:03Z</time>
      </trkpt>
      <trkpt lat="45.45734" lon="4.14686">
        <ele>592</ele>
        <time>2017-07-25T16:37:03Z</time>
      </trkpt>
      <trkpt lat="45.45738" lon="4.14676">
        <ele>592</ele>
        <time>2017-07-25T16:39:03Z</time>
      </trkpt>
      <trkpt lat="45.45765" lon="4.14618">
        <ele>591</ele>
        <time>2017-07-25T16:41:03Z</time>
      </trkpt>
      <trkpt lat="45.45785" lon="4.14577">
        <ele>590</ele>
        <time>2017-07-25T16:43:03Z</time>
      </trkpt>
      <trkpt lat="45.45802" lon="4.14541">
        <ele>590</ele>
        <time>2017-07-25T16:45:03Z</time>
      </trkpt>
      <trkpt lat="45.45833" lon="4.14473">
        <ele>592</ele>
        <time>2017-07-25T16:47:03Z</time>
      </trkpt>
      <trkpt lat="45.4585" lon="4.14439">
        <ele>593</ele>
        <time>2017-07-25T16:49:03Z</time>
      </trkpt>
      <trkpt lat="45.45868" lon="4.14399">
        <ele>594</ele>
        <time>2017-07-25T16:51:03Z</time>
      </trkpt>
      <trkpt lat="45.45873" lon="4.14391">
        <ele>595</ele>
        <time>2017-07-25T16:53:03Z</time>
      </trkpt>
      <trkpt lat="45.45922" lon="4.14306">
        <ele>596</ele>
        <time>2017-07-25T16:55:03Z</time>
      </trkpt>
      <trkpt lat="45.45943" lon="4.14266">
        <ele>594</ele>
        <time>2017-07-25T16:57:03Z</time>
      </trkpt>
      <trkpt lat="45.45945" lon="4.1426">
        <ele>594</ele>
        <time>2017-07-25T16:59:03Z</time>
      </trkpt>
      <trkpt lat="45.45951" lon="4.14244">
        <ele>594</ele>
        <time>2017-07-25T17:01:03Z</time>
      </trkpt>
      <trkpt lat="45.45954" lon="4.14233">
        <ele>594</ele>
        <time>2017-07-25T17:03:03Z</time>
      </trkpt>
      <trkpt lat="45.45963" lon="4.142">
        <ele>596</ele>
        <time>2017-07-25T17:05:03Z</time>
      </trkpt>
      <trkpt lat="45.45966" lon="4.14189">
        <ele>596</ele>
        <time>2017-07-25T17:07:03Z</time>
      </trkpt>
      <trkpt lat="45.45976" lon="4.14132">
        <ele>599</ele>
        <time>2017-07-25T17:09:03Z</time>
      </trkpt>
      <trkpt lat="45.45977" lon="4.14121">
        <ele>599</ele>
        <time>2017-07-25T17:11:03Z</time>
      </trkpt>
      <trkpt lat="45.45979" lon="4.14091">
        <ele>600</ele>
        <time>2017-07-25T17:13:03Z</time>
      </trkpt>
      <trkpt lat="45.45979" lon="4.14079">
        <ele>600</ele>
        <time>2017-07-25T17:15:03Z</time>
      </trkpt>
      <trkpt lat="45.45978" lon="4.1405">
        <ele>599</ele>
        <time>2017-07-25T17:17:03Z</time>
      </trkpt>
      <trkpt lat="45.45977" lon="4.14038">
        <ele>599</ele>
        <time>2017-07-25T17:19:03Z</time>
      </trkpt>
      <trkpt lat="45.45974" lon="4.13999">
        <ele>597</ele>
        <time>2017-07-25T17:21:03Z</time>
      </trkpt>
      <trkpt lat="45.45968" lon="4.1395">
        <ele>596</ele>
        <time>2017-07-25T17:23:03Z</time>
      </trkpt>
      <trkpt lat="45.45964" lon="4.13907">
        <ele>596</ele>
        <time>2017-07-25T17:25:03Z</time>
      </trkpt>
      <trkpt lat="45.45949" lon="4.13755">
        <ele>598</ele>
        <time>2017-07-25T17:27:03Z</time>
      </trkpt>
      <trkpt lat="45.45949" lon="4.13699">
        <ele>600</ele>
        <time>2017-07-25T17:29:03Z</time>
      </trkpt>
      <trkpt lat="45.4595" lon="4.13662">
        <ele>601</ele>
        <time>2017-07-25T17:31:03Z</time>
      </trkpt>
      <trkpt lat="45.45953" lon="4.13614">
        <ele>600</ele>
        <time>2017-07-25T17:33:03Z</time>
      </trkpt>
      <trkpt lat="45.45957" lon="4.13582">
        <ele>600</ele>
        <time>2017-07-25T17:35:03Z</time>
      </trkpt>
      <trkpt lat="45.45965" lon="4.1353">
        <ele>601</ele>
        <time>2017-07-25T17:37:03Z</time>
      </trkpt>
      <trkpt lat="45.4597" lon="4.13482">
        <ele>601</ele>
        <time>2017-07-25T17:39:03Z</time>
      </trkpt>
      <trkpt lat="45.45974" lon="4.13451">
        <ele>601</ele>
        <time>2017-07-25T17:41:03Z</time>
      </trkpt>
      <trkpt lat="45.45975" lon="4.13438">
        <ele>601</ele>
        <time>2017-07-25T17:43:03Z</time>
      </trkpt>
      <trkpt lat="45.45979" lon="4.13402">
        <ele>601</ele>
        <time>2017-07-25T17:45:03Z</time>
      </trkpt>
      <trkpt lat="45.45985" lon="4.13359">
        <ele>601</ele>
        <time>2017-07-25T17:47:03Z</time>
      </trkpt>
      <trkpt lat="45.45991" lon="4.13328">
        <ele>601</ele>
        <time>2017-07-25T17:49:03Z</time>
      </trkpt>
      <trkpt lat="45.45994" lon="4.13317">
        <ele>601</ele>
        <time>2017-07-25T17:51:03Z</time>
      </trkpt>
      <trkpt lat="45.46007" lon="4.13275">
        <ele>602</ele>
        <time>2017-07-25T17:53:03Z</time>
      </trkpt>
      <trkpt lat="45.46019" lon="4.13241">
        <ele>602</ele>
        <time>2017-07-25T17:55:03Z</time>
      </trkpt>
      <trkpt lat="45.46039" lon="4.13188">
        <ele>603</ele>
        <time>2017-07-25T17:57:03Z</time>
      </trkpt>
      <trkpt lat="45.46044" lon="4.13172">
        <ele>604</ele>
        <time>2017-07-25T17:59:03Z</time>
      </trkpt>
      <trkpt lat="45.46049" lon="4.13163">
        <ele>605</ele>
        <time>2017-07-25T18:01:03Z</time>
      </trkpt>
      <trkpt lat="45.46054" lon="4.13148">
        <ele>604</ele>
        <time>2017-07-25T18:03:03Z</time>
      </trkpt>
      <trkpt lat="45.46063" lon="4.1313">
        <ele>604</ele>
        <time>2017-07-25T18:05:03Z</time>
      </trkpt>
      <trkpt lat="45.46067" lon="4.1312">
        <ele>604</ele>
        <time>2017-07-25T18:07:03Z</time>
      </trkpt>
      <trkpt lat="45.46084" lon="4.13077">
        <ele>604</ele>
        <time>2017-07-25T18:09:03Z</time>
      </trkpt>
      <trkpt lat="45.46089" lon="4.13066">
        <ele>604</ele>
        <time>2017-07-25T18:11:03Z</time>
      </trkpt>
      <trkpt lat="45.461" lon="4.13036">
        <ele>603</ele>
        <time>2017-07-25T18:13:03Z</time>
      </trkpt>
      <trkpt lat="45.46107" lon="4.13009">
        <ele>603</ele>
        <time>2017-07-25T18:15:03Z</time>
      </trkpt>
      <trkpt lat="45.46108" lon="4.13004">
        <ele>602</ele>
        <time>2017-07-25T18:17:03Z</time>
      </trkpt>
      <trkpt lat="45.46113" lon="4.12973">
        <ele>603</ele>
        <time>2017-07-25T18:19:03Z</time>
      </trkpt>
      <trkpt lat="45.46116" lon="4.12938">
        <ele>604</ele>
        <time>2017-07-25T18:21:03Z</time>
      </trkpt>
      <trkpt lat="45.4612" lon="4.12911">
        <ele>605</ele>
        <time>2017-07-25T18:23:03Z</time>
      </trkpt>
      <trkpt lat="45.46127" lon="4.12872">
        <ele>607</ele>
        <time>2017-07-25T18:25:03Z</time>
      </trkpt>
      <trkpt lat="45.46129" lon="4.1285">
        <ele>607</ele>
        <time>2017-07-25T18:27:03Z</time>
      </trkpt>
      <trkpt lat="45.46135" lon="4.12816">
        <ele>609</ele>
        <time>2017-07-25T18:29:03Z</time>
      </trkpt>
      <trkpt lat="45.46139" lon="4.12788">
        <ele>610</ele>
        <time>2017-07-25T18:31:03Z</time>
      </trkpt>
      <trkpt lat="45.4614" lon="4.12783">
        <ele>610</ele>
        <time>2017-07-25T18:33:03Z</time>
      </trkpt>
      <trkpt lat="45.46143" lon="4.12758">
        <ele>610</ele>
        <time>2017-07-25T18:35:03Z</time>
      </trkpt>
      <trkpt lat="45.4615" lon="4.12718">
        <ele>611</ele>
        <time>2017-07-25T18:37:03Z</time>
      </trkpt>
      <trkpt lat="45.46158" lon="4.12688">
        <ele>611</ele>
        <time>2017-07-25T18:39:03Z</time>
      </trkpt>
      <trkpt lat="45.46166" lon="4.12648">
        <ele>610</ele>
        <time>2017-07-25T18:41:03Z</time>
      </trkpt>
      <trkpt lat="45.46176" lon="4.12608">
        <ele>611</ele>
        <time>2017-07-25T18:43:03Z</time>
      </trkpt>
      <trkpt lat="45.46179" lon="4.12597">
        <ele>611</ele>
        <time>2017-07-25T18:45:03Z</time>
      </trkpt>
      <trkpt lat="45.46182" lon="4.12571">
        <ele>611</ele>
        <time>2017-07-25T18:47:03Z</time>
      </trkpt>
      <trkpt lat="45.46183" lon="4.12541">
        <ele>612</ele>
        <time>2017-07-25T18:49:03Z</time>
      </trkpt>
      <trkpt lat="45.46182" lon="4.12518">
        <ele>612</ele>
        <time>2017-07-25T18:51:03Z</time>
      </trkpt>
      <trkpt lat="45.46182" lon="4.12458">
        <ele>613</ele>
        <time>2017-07-25T18:53:03Z</time>
      </trkpt>
      <trkpt lat="45.46178" lon="4.12427">
        <ele>613</ele>
        <time>2017-07-25T18:55:03Z</time>
      </trkpt>
      <trkpt lat="45.46173" lon="4.12396">
        <ele>615</ele>
        <time>2017-07-25T18:57:03Z</time>
      </trkpt>
      <trkpt lat="45.46169" lon="4.12372">
        <ele>616</ele>
        <time>2017-07-25T18:59:03Z</time>
      </trkpt>
      <trkpt lat="45.46165" lon="4.12354">
        <ele>618</ele>
        <time>2017-07-25T19:01:03Z</time>
      </trkpt>
      <trkpt lat="45.46156" lon="4.12334">
        <ele>618</ele>
        <time>2017-07-25T19:03:03Z</time>
      </trkpt>
      <trkpt lat="45.46143" lon="4.12303">
        <ele>620</ele>
        <time>2017-07-25T19:05:03Z</time>
      </trkpt>
      <trkpt lat="45.46131" lon="4.12276">
        <ele>622</ele>
        <time>2017-07-25T19:07:03Z</time>
      </trkpt>
      <trkpt lat="45.46121" lon="4.12257">
        <ele>623</ele>
        <time>2017-07-25T19:09:03Z</time>
      </trkpt>
      <trkpt lat="45.46104" lon="4.12234">
        <ele>624</ele>
        <time>2017-07-25T19:11:03Z</time>
      </trkpt>
      <trkpt lat="45.46094" lon="4.12218">
        <ele>624</ele>
        <time>2017-07-25T19:13:03Z</time>
      </trkpt>
      <trkpt lat="45.46076" lon="4.12196">
        <ele>622</ele>
        <time>2017-07-25T19:15:03Z</time>
      </trkpt>
      <trkpt lat="45.46074" lon="4.12191">
        <ele>622</ele>
        <time>2017-07-25T19:17:03Z</time>
      </trkpt>
      <trkpt lat="45.4607" lon="4.12184">
        <ele>622</ele>
        <time>2017-07-25T19:19:03Z</time>
      </trkpt>
      <trkpt lat="45.46052" lon="4.12159">
        <ele>620</ele>
        <time>2017-07-25T19:21:03Z</time>
      </trkpt>
      <trkpt lat="45.46037" lon="4.12136">
        <ele>620</ele>
        <time>2017-07-25T19:23:03Z</time>
      </trkpt>
      <trkpt lat="45.46031" lon="4.12126">
        <ele>621</ele>
        <time>2017-07-25T19:25:03Z</time>
      </trkpt>
      <trkpt lat="45.46015" lon="4.12104">
        <ele>621</ele>
        <time>2017-07-25T19:27:03Z</time>
      </trkpt>
      <trkpt lat="45.46009" lon="4.12097">
        <ele>621</ele>
        <time>2017-07-25T19:29:03Z</time>
      </trkpt>
      <trkpt lat="45.45993" lon="4.12079">
        <ele>621</ele>
        <time>2017-07-25T19:31:03Z</time>
      </trkpt>
      <trkpt lat="45.45967" lon="4.12043">
        <ele>622</ele>
        <time>2017-07-25T19:33:03Z</time>
      </trkpt>
      <trkpt lat="45.45929" lon="4.1198">
        <ele>624</ele>
        <time>2017-07-25T19:35:03Z</time>
      </trkpt>
      <trkpt lat="45.45907" lon="4.11951">
        <ele>623</ele>
        <time>2017-07-25T19:37:03Z</time>
      </trkpt>
      <trkpt lat="45.45891" lon="4.11926">
        <ele>622</ele>
        <time>2017-07-25T19:39:03Z</time>
      </trkpt>
      <trkpt lat="45.45882" lon="4.1191">
        <ele>622</ele>
        <time>2017-07-25T19:41:03Z</time>
      </trkpt>
      <trkpt lat="45.45872" lon="4.11891">
        <ele>622</ele>
        <time>2017-07-25T19:43:03Z</time>
      </trkpt>
      <trkpt lat="45.45864" lon="4.1187">
        <ele>623</ele>
        <time>2017-07-25T19:45:03Z</time>
      </trkpt>
      <trkpt lat="45.45858" lon="4.11855">
        <ele>624</ele>
        <time>2017-07-25T19:47:03Z</time>
      </trkpt>
      <trkpt lat="45.45853" lon="4.11845">
        <ele>624</ele>
        <time>2017-07-25T19:49:03Z</time>
      </trkpt>
      <trkpt lat="45.45845" lon="4.11822">
        <ele>625</ele>
        <time>2017-07-25T19:51:03Z</time>
      </trkpt>
      <trkpt lat="45.45831" lon="4.11785">
        <ele>626</ele>
        <time>2017-07-25T19:53:03Z</time>
      </trkpt>
      <trkpt lat="45.45825" lon="4.1177">
        <ele>626</ele>
        <time>2017-07-25T19:55:03Z</time>
      </trkpt>
      <trkpt lat="45.45815" lon="4.11744">
        <ele>626</ele>
        <time>2017-07-25T19:57:03Z</time>
      </trkpt>
      <trkpt lat="45.45806" lon="4.11719">
        <ele>624</ele>
        <time>2017-07-25T19:59:03Z</time>
      </trkpt>
      <trkpt lat="45.45794" lon="4.11686">
        <ele>623</ele>
        <time>2017-07-25T20:01:03Z</time>
      </trkpt>
      <trkpt lat="45.45787" lon="4.11663">
        <ele>622</ele>
        <time>2017-07-25T20:03:03Z</time>
      </trkpt>
      <trkpt lat="45.45779" lon="4.11632">
        <ele>623</ele>
        <time>2017-07-25T20:05:03Z</time>
      </trkpt>
      <trkpt lat="45.45774" lon="4.11605">
        <ele>624</ele>
        <time>2017-07-25T20:07:03Z</time>
      </trkpt>
      <trkpt lat="45.45773" lon="4.116">
        <ele>625</ele>
        <time>2017-07-25T20:09:03Z</time>
      </trkpt>
      <trkpt lat="45.45769" lon="4.11559">
        <ele>628</ele>
        <time>2017-07-25T20:11:03Z</time>
      </trkpt>
      <trkpt lat="45.45767" lon="4.11521">
        <ele>632</ele>
        <time>2017-07-25T20:13:03Z</time>
      </trkpt>
      <trkpt lat="45.45767" lon="4.1151">
        <ele>633</ele>
        <time>2017-07-25T20:15:03Z</time>
      </trkpt>
      <trkpt lat="45.45768" lon="4.1148">
        <ele>634</ele>
        <time>2017-07-25T20:17:03Z</time>
      </trkpt>
      <trkpt lat="45.4577" lon="4.11456">
        <ele>634</ele>
        <time>2017-07-25T20:19:03Z</time>
      </trkpt>
      <trkpt lat="45.45775" lon="4.11424">
        <ele>635</ele>
        <time>2017-07-25T20:21:03Z</time>
      </trkpt>
      <trkpt lat="45.45785" lon="4.11385">
        <ele>636</ele>
        <time>2017-07-25T20:23:03Z</time>
      </trkpt>
      <trkpt lat="45.45795" lon="4.11349">
        <ele>636</ele>
        <time>2017-07-25T20:25:03Z</time>
      </trkpt>
      <trkpt lat="45.458" lon="4.11334">
        <ele>636</ele>
        <time>2017-07-25T20:27:03Z</time>
      </trkpt>
      <trkpt lat="45.45815" lon="4.11289">
        <ele>639</ele>
        <time>2017-07-25T20:29:03Z</time>
      </trkpt>
      <trkpt lat="45.45823" lon="4.11265">
        <ele>640</ele>
        <time>2017-07-25T20:31:03Z</time>
      </trkpt>
      <trkpt lat="45.45833" lon="4.11235">
        <ele>640</ele>
        <time>2017-07-25T20:33:03Z</time>
      </trkpt>
      <trkpt lat="45.45834" lon="4.1123">
        <ele>640</ele>
        <time>2017-07-25T20:35:03Z</time>
      </trkpt>
      <trkpt lat="45.45842" lon="4.11205">
        <ele>640</ele>
        <time>2017-07-25T20:37:03Z</time>
      </trkpt>
      <trkpt lat="45.45844" lon="4.11201">
        <ele>641</ele>
        <time>2017-07-25T20:39:03Z</time>
      </trkpt>
      <trkpt lat="45.45858" lon="4.11161">
        <ele>641</ele>
        <time>2017-07-25T20:41:03Z</time>
      </trkpt>
      <trkpt lat="45.45868" lon="4.11132">
        <ele>641</ele>
        <time>2017-07-25T20:43:03Z</time>
      </trkpt>
      <trkpt lat="45.45881" lon="4.1109">
        <ele>641</ele>
        <time>2017-07-25T20:45:03Z</time>
      </trkpt>
      <trkpt lat="45.45884" lon="4.11066">
        <ele>641</ele>
        <time>2017-07-25T20:47:03Z</time>
      </trkpt>
      <trkpt lat="45.45883" lon="4.11064">
        <ele>641</ele>
        <time>2017-07-25T20:49:03Z</time>
      </trkpt>
      <trkpt lat="45.45879" lon="4.11063">
        <ele>640</ele>
        <time>2017-07-25T20:51:03Z</time>
      </trkpt>
      <trkpt lat="45.45874" lon="4.11065">
        <ele>640</ele>
        <time>2017-07-25T20:53:03Z</time>
      </trkpt>
      <trkpt lat="45.45868" lon="4.1107">
        <ele>639</ele>
        <time>2017-07-25T20:55:03Z</time>
      </trkpt>
      <trkpt lat="45.45865" lon="4.11071">
        <ele>639</ele>
        <time>2017-07-25T20:57:03Z</time>
      </trkpt>
      <trkpt lat="45.45856" lon="4.11077">
        <ele>638</ele>
        <time>2017-07-25T20:59:03Z</time>
      </trkpt>
      <trkpt lat="45.45843" lon="4.11087">
        <ele>637</ele>
        <time>2017-07-25T21:01:03Z</time>
      </trkpt>
      <trkpt lat="45.45812" lon="4.11109">
        <ele>634</ele>
        <time>2017-07-25T21:03:03Z</time>
      </trkpt>
      <trkpt lat="45.45784" lon="4.11131">
        <ele>632</ele>
        <time>2017-07-25T21:05:03Z</time>
      </trkpt>
      <trkpt lat="45.45769" lon="4.11143">
        <ele>631</ele>
        <time>2017-07-25T21:07:03Z</time>
      </trkpt>
      <trkpt lat="45.45761" lon="4.11148">
        <ele>630</ele>
        <time>2017-07-25T21:09:03Z</time>
      </trkpt>
      <trkpt lat="45.45751" lon="4.11151">
        <ele>630</ele>
        <time>2017-07-25T21:11:03Z</time>
      </trkpt>
      <trkpt lat="45.45742" lon="4.11153">
        <ele>628</ele>
        <time>2017-07-25T21:13:03Z</time>
      </trkpt>
      <trkpt lat="45.45734" lon="4.11153">
        <ele>627</ele>
        <time>2017-07-25T21:15:03Z</time>
      </trkpt>
      <trkpt lat="45.45726" lon="4.11147">
        <ele>626</ele>
        <time>2017-07-25T21:17:03Z</time>
      </trkpt>
      <trkpt lat="45.45718" lon="4.1114">
        <ele>625</ele>
        <time>2017-07-25T21:19:03Z</time>
      </trkpt>
      <trkpt lat="45.45692" lon="4.11121">
        <ele>621</ele>
        <time>2017-07-25T21:21:03Z</time>
      </trkpt>
      <trkpt lat="45.45673" lon="4.11111">
        <ele>619</ele>
        <time>2017-07-25T21:23:03Z</time>
      </trkpt>
      <trkpt lat="45.45663" lon="4.11106">
        <ele>618</ele>
        <time>2017-07-25T21:25:03Z</time>
      </trkpt>
      <trkpt lat="45.45653" lon="4.11102">
        <ele>617</ele>
        <time>2017-07-25T21:27:03Z</time>
      </trkpt>
      <trkpt lat="45.45633" lon="4.11097">
        <ele>616</ele>
        <time>2017-07-25T21:29:03Z</time>
      </trkpt>
      <trkpt lat="45.45623" lon="4.11095">
        <ele>616</ele>
        <time>2017-07-25T21:31:03Z</time>
      </trkpt>
      <trkpt lat="45.45605" lon="4.11092">
        <ele>615</ele>
        <time>2017-07-25T21:33:03Z</time>
      </trkpt>
      <trkpt lat="45.45597" lon="4.11088">
        <ele>614</ele>
        <time>2017-07-25T21:35:03Z</time>
      </trkpt>
      <trkpt lat="45.45585" lon="4.11077">
        <ele>614</ele>
        <time>2017-07-25T21:37:03Z</time>
      </trkpt>
      <trkpt lat="45.45567" lon="4.11049">
        <ele>614</ele>
        <time>2017-07-25T21:39:03Z</time>
      </trkpt>
      <trkpt lat="45.45561" lon="4.11037">
        <ele>614</ele>
        <time>2017-07-25T21:41:03Z</time>
      </trkpt>
      <trkpt lat="45.45557" lon="4.11024">
        <ele>614</ele>
        <time>2017-07-25T21:43:03Z</time>
      </trkpt>
      <trkpt lat="45.45555" lon="4.11004">
        <ele>614</ele>
        <time>2017-07-25T21:45:03Z</time>
      </trkpt>
      <trkpt lat="45.45552" lon="4.10996">
        <ele>614</ele>
        <time>2017-07-25T21:47:03Z</time>
      </trkpt>
      <trkpt lat="45.45551" lon="4.10995">
        <ele>614</ele>
        <time>2017-07-25T21:49:03Z</time>
      </trkpt>
      <trkpt lat="45.45548" lon="4.10996">
        <ele>614</ele>
        <time>2017-07-25T21:51:03Z</time>
      </trkpt>
      <trkpt lat="45.45545" lon="4.10998">
        <ele>614</ele>
        <time>2017-07-25T21:53:03Z</time>
      </trkpt>
      <trkpt lat="45.45541" lon="4.11001">
        <ele>613</ele>
        <time>2017-07-25T21:55:03Z</time>
      </trkpt>
      <trkpt lat="45.45537" lon="4.11004">
        <ele>613</ele>
        <time>2017-07-25T21:57:03Z</time>
      </trkpt>
      <trkpt lat="45.45533" lon="4.11009">
        <ele>613</ele>
        <time>2017-07-25T21:59:03Z</time>
      </trkpt>
      <trkpt lat="45.45526" lon="4.11023">
        <ele>613</ele>
        <time>2017-07-25T22:01:03Z</time>
      </trkpt>
      <trkpt lat="45.45519" lon="4.11037">
        <ele>613</ele>
        <time>2017-07-25T22:03:03Z</time>
      </trkpt>
      <trkpt lat="45.45516" lon="4.11045">
        <ele>612</ele>
        <time>2017-07-25T22:05:03Z</time>
      </trkpt>
      <trkpt lat="45.45514" lon="4.11054">
        <ele>612</ele>
        <time>2017-07-25T22:07:03Z</time>
      </trkpt>
      <trkpt lat="45.45509" lon="4.11068">
        <ele>612</ele>
        <time>2017-07-25T22:09:03Z</time>
      </trkpt>
      <trkpt lat="45.45501" lon="4.11086">
        <ele>612</ele>
        <time>2017-07-25T22:11:03Z</time>
      </trkpt>
      <trkpt lat="45.45495" lon="4.111">
        <ele>612</ele>
        <time>2017-07-25T22:13:03Z</time>
      </trkpt>
      <trkpt lat="45.45489" lon="4.11109">
        <ele>612</ele>
        <time>2017-07-25T22:15:03Z</time>
      </trkpt>
      <trkpt lat="45.45479" lon="4.1112">
        <ele>613</ele>
        <time>2017-07-25T22:17:03Z</time>
      </trkpt>
      <trkpt lat="45.45464" lon="4.11124">
        <ele>614</ele>
        <time>2017-07-25T22:19:03Z</time>
      </trkpt>
      <trkpt lat="45.4545" lon="4.11117">
        <ele>614</ele>
        <time>2017-07-25T22:21:03Z</time>
      </trkpt>
      <trkpt lat="45.45441" lon="4.11104">
        <ele>614</ele>
        <time>2017-07-25T22:23:03Z</time>
      </trkpt>
      <trkpt lat="45.45438" lon="4.11092">
        <ele>614</ele>
        <time>2017-07-25T22:25:03Z</time>
      </trkpt>
      <trkpt lat="45.45435" lon="4.11084">
        <ele>614</ele>
        <time>2017-07-25T22:27:03Z</time>
      </trkpt>
      <trkpt lat="45.45429" lon="4.11071">
        <ele>615</ele>
        <time>2017-07-25T22:29:03Z</time>
      </trkpt>
      <trkpt lat="45.45423" lon="4.11052">
        <ele>615</ele>
        <time>2017-07-25T22:31:03Z</time>
      </trkpt>
      <trkpt lat="45.45417" lon="4.11041">
        <ele>615</ele>
        <time>2017-07-25T22:33:03Z</time>
      </trkpt>
      <trkpt lat="45.45414" lon="4.11033">
        <ele>615</ele>
        <time>2017-07-25T22:35:03Z</time>
      </trkpt>
      <trkpt lat="45.45406" lon="4.11021">
        <ele>616</ele>
        <time>2017-07-25T22:37:03Z</time>
      </trkpt>
      <trkpt lat="45.45393" lon="4.11006">
        <ele>618</ele>
        <time>2017-07-25T22:39:03Z</time>
      </trkpt>
      <trkpt lat="45.45387" lon="4.11001">
        <ele>619</ele>
        <time>2017-07-25T22:41:03Z</time>
      </trkpt>
      <trkpt lat="45.45382" lon="4.10995">
        <ele>620</ele>
        <time>2017-07-25T22:43:03Z</time>
      </trkpt>
      <trkpt lat="45.4538" lon="4.10993">
        <ele>620</ele>
        <time>2017-07-25T22:45:03Z</time>
      </trkpt>
      <trkpt lat="45.45376" lon="4.10988">
        <ele>620</ele>
        <time>2017-07-25T22:47:03Z</time>
      </trkpt>
      <trkpt lat="45.4537" lon="4.10982">
        <ele>621</ele>
        <time>2017-07-25T22:49:03Z</time>
      </trkpt>
      <trkpt lat="45.45368" lon="4.1098">
        <ele>622</ele>
        <time>2017-07-25T22:51:03Z</time>
      </trkpt>
      <trkpt lat="45.45362" lon="4.10973">
        <ele>623</ele>
        <time>2017-07-25T22:53:03Z</time>
      </trkpt>
      <trkpt lat="45.45357" lon="4.10966">
        <ele>623</ele>
        <time>2017-07-25T22:55:03Z</time>
      </trkpt>
      <trkpt lat="45.45355" lon="4.10963">
        <ele>624</ele>
        <time>2017-07-25T22:57:03Z</time>
      </trkpt>
      <trkpt lat="45.45345" lon="4.10956">
        <ele>625</ele>
        <time>2017-07-25T22:59:03Z</time>
      </trkpt>
      <trkpt lat="45.4534" lon="4.10951">
        <ele>626</ele>
        <time>2017-07-25T23:01:03Z</time>
      </trkpt>
      <trkpt lat="45.45335" lon="4.10947">
        <ele>627</ele>
        <time>2017-07-25T23:03:03Z</time>
      </trkpt>
      <trkpt lat="45.45327" lon="4.10942">
        <ele>628</ele>
        <time>2017-07-25T23:05:03Z</time>
      </trkpt>
      <trkpt lat="45.45321" lon="4.10938">
        <ele>629</ele>
        <time>2017-07-25T23:07:03Z</time>
      </trkpt>
      <trkpt lat="45.45312" lon="4.10935">
        <ele>631</ele>
        <time>2017-07-25T23:09:03Z</time>
      </trkpt>
      <trkpt lat="45.45294" lon="4.1093">
        <ele>634</ele>
        <time>2017-07-25T23:11:03Z</time>
      </trkpt>
      <trkpt lat="45.45285" lon="4.10927">
        <ele>635</ele>
        <time>2017-07-25T23:13:03Z</time>
      </trkpt>
      <trkpt lat="45.45277" lon="4.10922">
        <ele>636</ele>
        <time>2017-07-25T23:15:03Z</time>
      </trkpt>
      <trkpt lat="45.45271" lon="4.10917">
        <ele>637</ele>
        <time>2017-07-25T23:17:03Z</time>
      </trkpt>
      <trkpt lat="45.45245" lon="4.10904">
        <ele>642</ele>
        <time>2017-07-25T23:19:03Z</time>
      </trkpt>
      <trkpt lat="45.4524" lon="4.109">
        <ele>643</ele>
        <time>2017-07-25T23:21:03Z</time>
      </trkpt>
      <trkpt lat="45.45231" lon="4.10896">
        <ele>644</ele>
        <time>2017-07-25T23:23:03Z</time>
      </trkpt>
      <trkpt lat="45.45213" lon="4.10894">
        <ele>645</ele>
        <time>2017-07-25T23:25:03Z</time>
      </trkpt>
      <trkpt lat="45.452" lon="4.10894">
        <ele>646</ele>
        <time>2017-07-25T23:27:03Z</time>
      </trkpt>
      <trkpt lat="45.45167" lon="4.10895">
        <ele>649</ele>
        <time>2017-07-25T23:29:03Z</time>
      </trkpt>
      <trkpt lat="45.45157" lon="4.10896">
        <ele>648</ele>
        <time>2017-07-25T23:31:03Z</time>
      </trkpt>
      <trkpt lat="45.45145" lon="4.10896">
        <ele>648</ele>
        <time>2017-07-25T23:33:03Z</time>
      </trkpt>
      <trkpt lat="45.45141" lon="4.10895">
        <ele>648</ele>
        <time>2017-07-25T23:35:03Z</time>
      </trkpt>
      <trkpt lat="45.45132" lon="4.10892">
        <ele>648</ele>
        <time>2017-07-25T23:37:03Z</time>
      </trkpt>
      <trkpt lat="45.45125" lon="4.1089">
        <ele>648</ele>
        <time>2017-07-25T23:39:03Z</time>
      </trkpt>
      <trkpt lat="45.45115" lon="4.10884">
        <ele>648</ele>
        <time>2017-07-25T23:41:03Z</time>
      </trkpt>
      <trkpt lat="45.45104" lon="4.10876">
        <ele>649</ele>
        <time>2017-07-25T23:43:03Z</time>
      </trkpt>
      <trkpt lat="45.45091" lon="4.1086">
        <ele>650</ele>
        <time>2017-07-25T23:45:03Z</time>
      </trkpt>
      <trkpt lat="45.45083" lon="4.10848">
        <ele>651</ele>
        <time>2017-07-25T23:47:03Z</time>
      </trkpt>
      <trkpt lat="45.45081" lon="4.10847">
        <ele>651</ele>
        <time>2017-07-25T23:49:03Z</time>
      </trkpt>
      <trkpt lat="45.45077" lon="4.10841">
        <ele>652</ele>
        <time>2017-07-25T23:51:03Z</time>
      </trkpt>
      <trkpt lat="45.45068" lon="4.10832">
        <ele>653</ele>
        <time>2017-07-25T23:53:03Z</time>
      </trkpt>
      <trkpt lat="45.45056" lon="4.10828">
        <ele>653</ele>
        <time>2017-07-25T23:55:03Z</time>
      </trkpt>
      <trkpt lat="45.45054" lon="4.10828">
        <ele>653</ele>
        <time>2017-07-25T23:57:03Z</time>
      </trkpt>
      <trkpt lat="45.45047" lon="4.10825">
        <ele>654</ele>
        <time>2017-07-25T23:59:03Z</time>
      </trkpt>
      <trkpt lat="45.45038" lon="4.10817">
        <ele>655</ele>
        <time>2017-07-26T00:01:03Z</time>
      </trkpt>
      <trkpt lat="45.45031" lon="4.10808">
        <ele>655</ele>
        <time>2017-07-26T00:03:03Z</time>
      </trkpt>
      <trkpt lat="45.45022" lon="4.10796">
        <ele>657</ele>
        <time>2017-07-26T00:05:03Z</time>
      </trkpt>
      <trkpt lat="45.45009" lon="4.10781">
        <ele>658</ele>
        <time>2017-07-26T00:07:03Z</time>
      </trkpt>
      <trkpt lat="45.44973" lon="4.10734">
        <ele>661</ele>
        <time>2017-07-26T00:09:03Z</time>
      </trkpt>
      <trkpt lat="45.4497" lon="4.10729">
        <ele>662</ele>
        <time>2017-07-26T00:11:03Z</time>
      </trkpt>
      <trkpt lat="45.44963" lon="4.10721">
        <ele>662</ele>
        <time>2017-07-26T00:13:03Z</time>
      </trkpt>
      <trkpt lat="45.44942" lon="4.10694">
        <ele>665</ele>
        <time>2017-07-26T00:15:03Z</time>
      </trkpt>
      <trkpt lat="45.44924" lon="4.10671">
        <ele>666</ele>
        <time>2017-07-26T00:17:03Z</time>
      </trkpt>
      <trkpt lat="45.44906" lon="4.10649">
        <ele>668</ele>
        <time>2017-07-26T00:19:03Z</time>
      </trkpt>
      <trkpt lat="45.4489" lon="4.10629">
        <ele>670</ele>
        <time>2017-07-26T00:21:03Z</time>
      </trkpt>
      <trkpt lat="45.44888" lon="4.10626">
        <ele>670</ele>
        <time>2017-07-26T00:23:03Z</time>
      </trkpt>
      <trkpt lat="45.44873" lon="4.10606">
        <ele>672</ele>
        <time>2017-07-26T00:25:03Z</time>
      </trkpt>
      <trkpt lat="45.44865" lon="4.10596">
        <ele>673</ele>
        <time>2017-07-26T00:27:03Z</time>
      </trkpt>
      <trkpt lat="45.44861" lon="4.10591">
        <ele>673</ele>
        <time>2017-07-26T00:29:03Z</time>
      </trkpt>
      <trkpt lat="45.44845" lon="4.10571">
        <ele>675</ele>
        <time>2017-07-26T00:31:03Z</time>
      </trkpt>
      <trkpt lat="45.44828" lon="4.10547">
        <ele>678</ele>
        <time>2017-07-26T00:33:03Z</time>
      </trkpt>
      <trkpt lat="45.44824" lon="4.10542">
        <ele>679</ele>
        <time>2017-07-26T00:35:03Z</time>
      </trkpt>
      <trkpt lat="45.44812" lon="4.10529">
        <ele>680</ele>
        <time>2017-07-26T00:37:03Z</time>
      </trkpt>
      <trkpt lat="45.4481" lon="4.10527">
        <ele>680</ele>
        <time>2017-07-26T00:39:03Z</time>
      </trkpt>
      <trkpt lat="45.44804" lon="4.10521">
        <ele>681</ele>
        <time>2017-07-26T00:41:03Z</time>
      </trkpt>
      <trkpt lat="45.44801" lon="4.10523">
        <ele>681</ele>
        <time>2017-07-26T00:43:03Z</time>
      </trkpt>
      <trkpt lat="45.44796" lon="4.10529">
        <ele>680</ele>
        <time>2017-07-26T00:45:03Z</time>
      </trkpt>
      <trkpt lat="45.44779" lon="4.10545">
        <ele>679</ele>
        <time>2017-07-26T00:47:03Z</time>
      </trkpt>
      <trkpt lat="45.44766" lon="4.10555">
        <ele>678</ele>
        <time>2017-07-26T00:49:03Z</time>
      </trkpt>
      <trkpt lat="45.44753" lon="4.10567">
        <ele>678</ele>
        <time>2017-07-26T00:51:03Z</time>
      </trkpt>
      <trkpt lat="45.44746" lon="4.10571">
        <ele>677</ele>
        <time>2017-07-26T00:53:03Z</time>
      </trkpt>
      <trkpt lat="45.44737" lon="4.10585">
        <ele>677</ele>
        <time>2017-07-26T00:55:03Z</time>
      </trkpt>
      <trkpt lat="45.44731" lon="4.10599">
        <ele>676</ele>
        <time>2017-07-26T00:57:03Z</time>
      </trkpt>
      <trkpt lat="45.44729" lon="4.10606">
        <ele>676</ele>
        <time>2017-07-26T00:59:03Z</time>
      </trkpt>
      <trkpt lat="45.44727" lon="4.10611">
        <ele>675</ele>
        <time>2017-07-26T01:01:03Z</time>
      </trkpt>
      <trkpt lat="45.4472" lon="4.10628">
        <ele>675</ele>
        <time>2017-07-26T01:03:03Z</time>
      </trkpt>
      <trkpt lat="45.44719" lon="4.10634">
        <ele>675</ele>
        <time>2017-07-26T01:05:03Z</time>
      </trkpt>
      <trkpt lat="45.44715" lon="4.10644">
        <ele>674</ele>
        <time>2017-07-26T01:07:03Z</time>
      </trkpt>
      <trkpt lat="45.44709" lon="4.10672">
        <ele>673</ele>
        <time>2017-07-26T01:09:03Z</time>
      </trkpt>
      <trkpt lat="45.44701" lon="4.10697">
        <ele>673</ele>
        <time>2017-07-26T01:11:03Z</time>
      </trkpt>
      <trkpt lat="45.44689" lon="4.10724">
        <ele>673</ele>
        <time>2017-07-26T01:13:03Z</time>
      </trkpt>
      <trkpt lat="45.44682" lon="4.10737">
        <ele>672</ele>
        <time>2017-07-26T01:15:03Z</time>
      </trkpt>
      <trkpt lat="45.44678" lon="4.10743">
        <ele>673</ele>
        <time>2017-07-26T01:17:03Z</time>
      </trkpt>
      <trkpt lat="45.44671" lon="4.10766">
        <ele>672</ele>
        <time>2017-07-26T01:19:03Z</time>
      </trkpt>
      <trkpt lat="45.44661" lon="4.10803">
        <ele>670</ele>
        <time>2017-07-26T01:21:03Z</time>
      </trkpt>
      <trkpt lat="45.44659" lon="4.10812">
        <ele>670</ele>
        <time>2017-07-26T01:23:03Z</time>
      </trkpt>
      <trkpt lat="45.44655" lon="4.10831">
        <ele>669</ele>
        <time>2017-07-26T01:25:03Z</time>
      </trkpt>
      <trkpt lat="45.44654" lon="4.10841">
        <ele>669</ele>
        <time>2017-07-26T01:27:03Z</time>
      </trkpt>
      <trkpt lat="45.44646" lon="4.10879">
        <ele>667</ele>
        <time>2017-07-26T01:29:03Z</time>
      </trkpt>
      <trkpt lat="45.44636" lon="4.10914">
        <ele>665</ele>
        <time>2017-07-26T01:31:03Z</time>
      </trkpt>
      <trkpt lat="45.44629" lon="4.1093">
        <ele>665</ele>
        <time>2017-07-26T01:33:03Z</time>
      </trkpt>
      <trkpt lat="45.44623" lon="4.10939">
        <ele>664</ele>
        <time>2017-07-26T01:35:03Z</time>
      </trkpt>
      <trkpt lat="45.44622" lon="4.10943">
        <ele>664</ele>
        <time>2017-07-26T01:37:03Z</time>
      </trkpt>
      <trkpt lat="45.44621" lon="4.10949">
        <ele>664</ele>
        <time>2017-07-26T01:39:03Z</time>
      </trkpt>
      <trkpt lat="45.44623" lon="4.10959">
        <ele>664</ele>
        <time>2017-07-26T01:41:03Z</time>
      </trkpt>
      <trkpt lat="45.44627" lon="4.10969">
        <ele>663</ele>
        <time>2017-07-26T01:43:03Z</time>
      </trkpt>
      <trkpt lat="45.4463" lon="4.10976">
        <ele>663</ele>
        <time>2017-07-26T01:45:03Z</time>
      </trkpt>
      <trkpt lat="45.44635" lon="4.10991">
        <ele>662</ele>
        <time>2017-07-26T01:47:03Z</time>
      </trkpt>
      <trkpt lat="45.4464" lon="4.11003">
        <ele>661</ele>
        <time>2017-07-26T01:49:03Z</time>
      </trkpt>
      <trkpt lat="45.44645" lon="4.11015">
        <ele>660</ele>
        <time>2017-07-26T01:51:03Z</time>
      </trkpt>
      <trkpt lat="45.44653" lon="4.11035">
        <ele>659</ele>
        <time>2017-07-26T01:53:03Z</time>
      </trkpt>
      <trkpt lat="45.44672" lon="4.11076">
        <ele>656</ele>
        <time>2017-07-26T01:55:03Z</time>
      </trkpt>
      <trkpt lat="45.44684" lon="4.11097">
        <ele>656</ele>
        <time>2017-07-26T01:57:03Z</time>
      </trkpt>
      <trkpt lat="45.447" lon="4.11127">
        <ele>655</ele>
        <time>2017-07-26T01:59:03Z</time>
      </trkpt>
      <trkpt lat="45.44715" lon="4.11157">
        <ele>655</ele>
        <time>2017-07-26T02:01:03Z</time>
      </trkpt>
      <trkpt lat="45.44719" lon="4.11168">
        <ele>654</ele>
        <time>2017-07-26T02:03:03Z</time>
      </trkpt>
      <trkpt lat="45.44716" lon="4.11173">
        <ele>655</ele>
        <time>2017-07-26T02:05:03Z</time>
      </trkpt>
      <trkpt lat="45.44709" lon="4.11176">
        <ele>655</ele>
        <time>2017-07-26T02:07:03Z</time>
      </trkpt>
      <trkpt lat="45.44693" lon="4.11193">
        <ele>656</ele>
        <time>2017-07-26T02:09:03Z</time>
      </trkpt>
      <trkpt lat="45.44671" lon="4.11215">
        <ele>657</ele>
        <time>2017-07-26T02:11:03Z</time>
      </trkpt>
      <trkpt lat="45.44634" lon="4.1125">
        <ele>659</ele>
        <time>2017-07-26T02:13:03Z</time>
      </trkpt>
      <trkpt lat="45.44621" lon="4.11263">
        <ele>659</ele>
        <time>2017-07-26T02:15:03Z</time>
      </trkpt>
      <trkpt lat="45.44619" lon="4.11266">
        <ele>659</ele>
        <time>2017-07-26T02:17:03Z</time>
      </trkpt>
      <trkpt lat="45.44605" lon="4.11277">
        <ele>660</ele>
        <time>2017-07-26T02:19:03Z</time>
      </trkpt>
      <trkpt lat="45.446" lon="4.1128">
        <ele>660</ele>
        <time>2017-07-26T02:21:03Z</time>
      </trkpt>
      <trkpt lat="45.44578" lon="4.11289">
        <ele>661</ele>
        <time>2017-07-26T02:23:03Z</time>
      </trkpt>
      <trkpt lat="45.44561" lon="4.11295">
        <ele>662</ele>
        <time>2017-07-26T02:25:03Z</time>
      </trkpt>
      <trkpt lat="45.44556" lon="4.11297">
        <ele>662</ele>
        <time>2017-07-26T02:27:03Z</time>
      </trkpt>
      <trkpt lat="45.44546" lon="4.11303">
        <ele>662</ele>
        <time>2017-07-26T02:29:03Z</time>
      </trkpt>
      <trkpt lat="45.44539" lon="4.11309">
        <ele>662</ele>
        <time>2017-07-26T02:31:03Z</time>
      </trkpt>
      <trkpt lat="45.44516" lon="4.11325">
        <ele>663</ele>
        <time>2017-07-26T02:33:03Z</time>
      </trkpt>
      <trkpt lat="45.44504" lon="4.11333">
        <ele>664</ele>
        <time>2017-07-26T02:35:03Z</time>
      </trkpt>
      <trkpt lat="45.44501" lon="4.11333">
        <ele>664</ele>
        <time>2017-07-26T02:37:03Z</time>
      </trkpt>
      <trkpt lat="45.44499" lon="4.11336">
        <ele>664</ele>
        <time>2017-07-26T02:39:03Z</time>
      </trkpt>
      <trkpt lat="45.44497" lon="4.11337">
        <ele>664</ele>
        <time>2017-07-26T02:41:03Z</time>
      </trkpt>
      <trkpt lat="45.44483" lon="4.1134">
        <ele>662</ele>
        <time>2017-07-26T02:43:03Z</time>
      </trkpt>
      <trkpt lat="45.44462" lon="4.11337">
        <ele>661</ele>
        <time>2017-07-26T02:45:03Z</time>
      </trkpt>
      <trkpt lat="45.44457" lon="4.11336">
        <ele>660</ele>
        <time>2017-07-26T02:47:03Z</time>
      </trkpt>
      <trkpt lat="45.44447" lon="4.11338">
        <ele>660</ele>
        <time>2017-07-26T02:49:03Z</time>
      </trkpt>
      <trkpt lat="45.4443" lon="4.11343">
        <ele>658</ele>
        <time>2017-07-26T02:51:03Z</time>
      </trkpt>
      <trkpt lat="45.44425" lon="4.11346">
        <ele>658</ele>
        <time>2017-07-26T02:53:03Z</time>
      </trkpt>
      <trkpt lat="45.44413" lon="4.11353">
        <ele>657</ele>
        <time>2017-07-26T02:55:03Z</time>
      </trkpt>
      <trkpt lat="45.44401" lon="4.11359">
        <ele>657</ele>
        <time>2017-07-26T02:57:03Z</time>
      </trkpt>
      <trkpt lat="45.44394" lon="4.1136">
        <ele>656</ele>
        <time>2017-07-26T02:59:03Z</time>
      </trkpt>
      <trkpt lat="45.44387" lon="4.11359">
        <ele>656</ele>
        <time>2017-07-26T03:01:03Z</time>
      </trkpt>
      <trkpt lat="45.4438" lon="4.11359">
        <ele>656</ele>
        <time>2017-07-26T03:03:03Z</time>
      </trkpt>
      <trkpt lat="45.44364" lon="4.11365">
        <ele>656</ele>
        <time>2017-07-26T03:05:03Z</time>
      </trkpt>
      <trkpt lat="45.44351" lon="4.11376">
        <ele>656</ele>
        <time>2017-07-26T03:07:03Z</time>
      </trkpt>
      <trkpt lat="45.44342" lon="4.11389">
        <ele>656</ele>
        <time>2017-07-26T03:09:03Z</time>
      </trkpt>
      <trkpt lat="45.44333" lon="4.11399">
        <ele>656</ele>
        <time>2017-07-26T03:11:03Z</time>
      </trkpt>
      <trkpt lat="45.44329" lon="4.11404">
        <ele>656</ele>
        <time>2017-07-26T03:13:03Z</time>
      </trkpt>
      <trkpt lat="45.44326" lon="4.11407">
        <ele>657</ele>
        <time>2017-07-26T03:15:03Z</time>
      </trkpt>
      <trkpt lat="45.44319" lon="4.11412">
        <ele>657</ele>
        <time>2017-07-26T03:17:03Z</time>
      </trkpt>
      <trkpt lat="45.44307" lon="4.11413">
        <ele>658</ele>
        <time>2017-07-26T03:19:03Z</time>
      </trkpt>
      <trkpt lat="45.44303" lon="4.11414">
        <ele>658</ele>
        <time>2017-07-26T03:21:03Z</time>
      </trkpt>
      <trkpt lat="45.44292" lon="4.11424">
        <ele>659</ele>
        <time>2017-07-26T03:23:03Z</time>
      </trkpt>
      <trkpt lat="45.44293" lon="4.11458">
        <ele>659</ele>
        <time>2017-07-26T03:25:03Z</time>
      </trkpt>
      <trkpt lat="45.44293" lon="4.11501">
        <ele>659</ele>
        <time>2017-07-26T03:27:03Z</time>
      </trkpt>
      <trkpt lat="45.44289" lon="4.11541">
        <ele>658</ele>
        <time>2017-07-26T03:29:03Z</time>
      </trkpt>
      <trkpt lat="45.44286" lon="4.11556">
        <ele>657</ele>
        <time>2017-07-26T03:31:03Z</time>
      </trkpt>
      <trkpt lat="45.44278" lon="4.11578">
        <ele>656</ele>
        <time>2017-07-26T03:33:03Z</time>
      </trkpt>
      <trkpt lat="45.44268" lon="4.11606">
        <ele>655</ele>
        <time>2017-07-26T03:35:03Z</time>
      </trkpt>
      <trkpt lat="45.44256" lon="4.1164">
        <ele>653</ele>
        <time>2017-07-26T03:37:03Z</time>
      </trkpt>
      <trkpt lat="45.4425" lon="4.11661">
        <ele>651</ele>
        <time>2017-07-26T03:39:03Z</time>
      </trkpt>
      <trkpt lat="45.44248" lon="4.11668">
        <ele>651</ele>
        <time>2017-07-26T03:41:03Z</time>
      </trkpt>
      <trkpt lat="45.44245" lon="4.11684">
        <ele>650</ele>
        <time>2017-07-26T03:43:03Z</time>
      </trkpt>
      <trkpt lat="45.44242" lon="4.11699">
        <ele>650</ele>
        <time>2017-07-26T03:45:03Z</time>
      </trkpt>
      <trkpt lat="45.44238" lon="4.11731">
        <ele>649</ele>
        <time>2017-07-26T03:47:03Z</time>
      </trkpt>
      <trkpt lat="45.44237" lon="4.11747">
        <ele>649</ele>
        <time>2017-07-26T03:49:03Z</time>
      </trkpt>
      <trkpt lat="45.4424" lon="4.1179">
        <ele>647</ele>
        <time>2017-07-26T03:51:03Z</time>
      </trkpt>
      <trkpt lat="45.44241" lon="4.11811">
        <ele>647</ele>
        <time>2017-07-26T03:53:03Z</time>
      </trkpt>
      <trkpt lat="45.44238" lon="4.11834">
        <ele>646</ele>
        <time>2017-07-26T03:55:03Z</time>
      </trkpt>
      <trkpt lat="45.44233" lon="4.11838">
        <ele>646</ele>
        <time>2017-07-26T03:57:03Z</time>
      </trkpt>
      <trkpt lat="45.4423" lon="4.11838">
        <ele>646</ele>
        <time>2017-07-26T03:59:03Z</time>
      </trkpt>
      <trkpt lat="45.44213" lon="4.11845">
        <ele>646</ele>
        <time>2017-07-26T04:01:03Z</time>
      </trkpt>
      <trkpt lat="45.44192" lon="4.11855">
        <ele>645</ele>
        <time>2017-07-26T04:03:03Z</time>
      </trkpt>
      <trkpt lat="45.44172" lon="4.11865">
        <ele>645</ele>
        <time>2017-07-26T04:05:03Z</time>
      </trkpt>
      <trkpt lat="45.44166" lon="4.11865">
        <ele>645</ele>
        <time>2017-07-26T04:07:03Z</time>
      </trkpt>
      <trkpt lat="45.44158" lon="4.11853">
        <ele>645</ele>
        <time>2017-07-26T04:09:03Z</time>
      </trkpt>
      <trkpt lat="45.44144" lon="4.11839">
        <ele>645</ele>
        <time>2017-07-26T04:11:03Z</time>
      </trkpt>
      <trkpt lat="45.44141" lon="4.11837">
        <ele>645</ele>
        <time>2017-07-26T04:13:03Z</time>
      </trkpt>
      <trkpt lat="45.44136" lon="4.11839">
        <ele>645</ele>
        <time>2017-07-26T04:15:03Z</time>
      </trkpt>
      <trkpt lat="45.44135" lon="4.11844">
        <ele>645</ele>
        <time>2017-07-26T04:17:03Z</time>
      </trkpt>
      <trkpt lat="45.44134" lon="4.11853">
        <ele>644</ele>
        <time>2017-07-26T04:19:03Z</time>
      </trkpt>
      <trkpt lat="45.44133" lon="4.11875">
        <ele>643</ele>
        <time>2017-07-26T04:21:03Z</time>
      </trkpt>
      <trkpt lat="45.44127" lon="4.11893">
        <ele>643</ele>
        <time>2017-07-26T04:23:03Z</time>
      </trkpt>
      <trkpt lat="45.44125" lon="4.11896">
        <ele>642</ele>
        <time>2017-07-26T04:25:03Z</time>
      </trkpt>
      <trkpt lat="45.44116" lon="4.11907">
        <ele>642</ele>
        <time>2017-07-26T04:27:03Z</time>
      </trkpt>
      <trkpt lat="45.44106" lon="4.11919">
        <ele>641</ele>
        <time>2017-07-26T04:29:03Z</time>
      </trkpt>
      <trkpt lat="45.441" lon="4.1193">
        <ele>640</ele>
        <time>2017-07-26T04:31:03Z</time>
      </trkpt>
      <trkpt lat="45.44097" lon="4.11937">
        <ele>639</ele>
        <time>2017-07-26T04:33:03Z</time>
      </trkpt>
      <trkpt lat="45.44095" lon="4.11953">
        <ele>638</ele>
        <time>2017-07-26T04:35:03Z</time>
      </trkpt>
      <trkpt lat="45.44092" lon="4.11968">
        <ele>637</ele>
        <time>2017-07-26T04:37:03Z</time>
      </trkpt>
      <trkpt lat="45.44087" lon="4.11981">
        <ele>636</ele>
        <time>2017-07-26T04:39:03Z</time>
      </trkpt>
      <trkpt lat="45.44079" lon="4.11995">
        <ele>635</ele>
        <time>2017-07-26T04:41:03Z</time>
      </trkpt>
      <trkpt lat="45.44074" lon="4.12002">
        <ele>635</ele>
        <time>2017-07-26T04:43:03Z</time>
      </trkpt>
      <trkpt lat="45.44061" lon="4.1202">
        <ele>634</ele>
        <time>2017-07-26T04:45:03Z</time>
      </trkpt>
      <trkpt lat="45.44017" lon="4.12079">
        <ele>631</ele>
        <time>2017-07-26T04:47:03Z</time>
      </trkpt>
      <trkpt lat="45.44014" lon="4.12082">
        <ele>631</ele>
        <time>2017-07-26T04:49:03Z</time>
      </trkpt>
      <trkpt lat="45.44007" lon="4.12085">
        <ele>630</ele>
        <time>2017-07-26T04:51:03Z</time>
      </trkpt>
      <trkpt lat="45.43982" lon="4.12085">
        <ele>629</ele>
        <time>2017-07-26T04:53:03Z</time>
      </trkpt>
      <trkpt lat="45.43975" lon="4.12086">
        <ele>628</ele>
        <time>2017-07-26T04:55:03Z</time>
      </trkpt>
      <trkpt lat="45.43971" lon="4.12088">
        <ele>628</ele>
        <time>2017-07-26T04:57:03Z</time>
      </trkpt>
      <trkpt lat="45.43956" lon="4.12097">
        <ele>627</ele>
        <time>2017-07-26T04:59:03Z</time>
      </trkpt>
      <trkpt lat="45.43939" lon="4.12112">
        <ele>626</ele>
        <time>2017-07-26T05:01:03Z</time>
      </trkpt>
      <trkpt lat="45.43936" lon="4.12115">
        <ele>626</ele>
        <time>2017-07-26T05:03:03Z</time>
      </trkpt>
      <trkpt lat="45.43924" lon="4.12132">
        <ele>625</ele>
        <time>2017-07-26T05:05:03Z</time>
      </trkpt>
      <trkpt lat="45.43916" lon="4.12139">
        <ele>625</ele>
        <time>2017-07-26T05:07:03Z</time>
      </trkpt>
      <trkpt lat="45.43886" lon="4.12161">
        <ele>623</ele>
        <time>2017-07-26T05:09:03Z</time>
      </trkpt>
      <trkpt lat="45.43835" lon="4.12199">
        <ele>622</ele>
        <time>2017-07-26T05:11:03Z</time>
      </trkpt>
      <trkpt lat="45.43828" lon="4.12204">
        <ele>622</ele>
        <time>2017-07-26T05:13:03Z</time>
      </trkpt>
      <trkpt lat="45.43821" lon="4.12207">
        <ele>622</ele>
        <time>2017-07-26T05:15:03Z</time>
      </trkpt>
      <trkpt lat="45.43806" lon="4.12208">
        <ele>621</ele>
        <time>2017-07-26T05:17:03Z</time>
      </trkpt>
      <trkpt lat="45.43792" lon="4.12209">
        <ele>621</ele>
        <time>2017-07-26T05:19:03Z</time>
      </trkpt>
      <trkpt lat="45.4377" lon="4.12213">
        <ele>621</ele>
        <time>2017-07-26T05:21:03Z</time>
      </trkpt>
      <trkpt lat="45.43705" lon="4.12225">
        <ele>621</ele>
        <time>2017-07-26T05:23:03Z</time>
      </trkpt>
      <trkpt lat="45.43697" lon="4.12227">
        <ele>621</ele>
        <time>2017-07-26T05:25:03Z</time>
      </trkpt>
      <trkpt lat="45.43686" lon="4.12231">
        <ele>621</ele>
        <time>2017-07-26T05:27:03Z</time>
      </trkpt>
      <trkpt lat="45.43667" lon="4.12242">
        <ele>622</ele>
        <time>2017-07-26T05:29:03Z</time>
      </trkpt>
      <trkpt lat="45.43652" lon="4.12253">
        <ele>622</ele>
        <time>2017-07-26T05:31:03Z</time>
      </trkpt>
      <trkpt lat="45.43648" lon="4.12257">
        <ele>623</ele>
        <time>2017-07-26T05:33:03Z</time>
      </trkpt>
      <trkpt lat="45.43635" lon="4.12268">
        <ele>624</ele>
        <time>2017-07-26T05:35:03Z</time>
      </trkpt>
      <trkpt lat="45.43628" lon="4.12275">
        <ele>624</ele>
        <time>2017-07-26T05:37:03Z</time>
      </trkpt>
      <trkpt lat="45.43597" lon="4.12299">
        <ele>625</ele>
        <time>2017-07-26T05:39:03Z</time>
      </trkpt>
      <trkpt lat="45.43568" lon="4.12322">
        <ele>624</ele>
        <time>2017-07-26T05:41:03Z</time>
      </trkpt>
      <trkpt lat="45.43557" lon="4.12333">
        <ele>623</ele>
        <time>2017-07-26T05:43:03Z</time>
      </trkpt>
      <trkpt lat="45.43544" lon="4.12347">
        <ele>622</ele>
        <time>2017-07-26T05:45:03Z</time>
      </trkpt>
      <trkpt lat="45.4354" lon="4.12354">
        <ele>621</ele>
        <time>2017-07-26T05:47:03Z</time>
      </trkpt>
      <trkpt lat="45.43532" lon="4.12379">
        <ele>620</ele>
        <time>2017-07-26T05:49:03Z</time>
      </trkpt>
      <trkpt lat="45.43531" lon="4.12388">
        <ele>620</ele>
        <time>2017-07-26T05:51:03Z</time>
      </trkpt>
      <trkpt lat="45.4353" lon="4.12396">
        <ele>620</ele>
        <time>2017-07-26T05:53:03Z</time>
      </trkpt>
      <trkpt lat="45.43528" lon="4.12421">
        <ele>619</ele>
        <time>2017-07-26T05:55:03Z</time>
      </trkpt>
      <trkpt lat="45.43528" lon="4.12435">
        <ele>619</ele>
        <time>2017-07-26T05:57:03Z</time>
      </trkpt>
      <trkpt lat="45.43527" lon="4.1246">
        <ele>620</ele>
        <time>2017-07-26T05:59:03Z</time>
      </trkpt>
      <trkpt lat="45.43526" lon="4.12466">
        <ele>620</ele>
        <time>2017-07-26T06:01:03Z</time>
      </trkpt>
      <trkpt lat="45.43521" lon="4.12485">
        <ele>619</ele>
        <time>2017-07-26T06:03:03Z</time>
      </trkpt>
      <trkpt lat="45.43506" lon="4.12499">
        <ele>618</ele>
        <time>2017-07-26T06:05:03Z</time>
      </trkpt>
      <trkpt lat="45.43478" lon="4.1252">
        <ele>614</ele>
        <time>2017-07-26T06:07:03Z</time>
      </trkpt>
      <trkpt lat="45.43466" lon="4.1253">
        <ele>613</ele>
        <time>2017-07-26T06:09:03Z</time>
      </trkpt>
      <trkpt lat="45.43455" lon="4.12543">
        <ele>611</ele>
        <time>2017-07-26T06:11:03Z</time>
      </trkpt>
      <trkpt lat="45.4345" lon="4.12551">
        <ele>611</ele>
        <time>2017-07-26T06:13:03Z</time>
      </trkpt>
      <trkpt lat="45.43446" lon="4.12559">
        <ele>610</ele>
        <time>2017-07-26T06:15:03Z</time>
      </trkpt>
      <trkpt lat="45.43443" lon="4.12576">
        <ele>610</ele>
        <time>2017-07-26T06:17:03Z</time>
      </trkpt>
      <trkpt lat="45.43444" lon="4.12592">
        <ele>610</ele>
        <time>2017-07-26T06:19:03Z</time>
      </trkpt>
      <trkpt lat="45.43443" lon="4.12604">
        <ele>609</ele>
        <time>2017-07-26T06:21:03Z</time>
      </trkpt>
      <trkpt lat="45.43447" lon="4.1263">
        <ele>608</ele>
        <time>2017-07-26T06:23:03Z</time>
      </trkpt>
      <trkpt lat="45.43448" lon="4.12635">
        <ele>608</ele>
        <time>2017-07-26T06:25:03Z</time>
      </trkpt>
      <trkpt lat="45.43455" lon="4.12653">
        <ele>608</ele>
        <time>2017-07-26T06:27:03Z</time>
      </trkpt>
      <trkpt lat="45.43457" lon="4.12666">
        <ele>607</ele>
        <time>2017-07-26T06:29:03Z</time>
      </trkpt>
      <trkpt lat="45.43456" lon="4.1267">
        <ele>607</ele>
        <time>2017-07-26T06:31:03Z</time>
      </trkpt>
      <trkpt lat="45.43455" lon="4.12672">
        <ele>606</ele>
        <time>2017-07-26T06:33:03Z</time>
      </trkpt>
      <trkpt lat="45.43451" lon="4.12676">
        <ele>605</ele>
        <time>2017-07-26T06:35:03Z</time>
      </trkpt>
      <trkpt lat="45.43444" lon="4.12672">
        <ele>605</ele>
        <time>2017-07-26T06:37:03Z</time>
      </trkpt>
      <trkpt lat="45.43437" lon="4.12668">
        <ele>604</ele>
        <time>2017-07-26T06:39:03Z</time>
      </trkpt>
      <trkpt lat="45.43427" lon="4.12662">
        <ele>602</ele>
        <time>2017-07-26T06:41:03Z</time>
      </trkpt>
      <trkpt lat="45.43421" lon="4.12661">
        <ele>601</ele>
        <time>2017-07-26T06:43:03Z</time>
      </trkpt>
      <trkpt lat="45.4341" lon="4.12659">
        <ele>599</ele>
        <time>2017-07-26T06:45:03Z</time>
      </trkpt>
      <trkpt lat="45.43405" lon="4.12658">
        <ele>599</ele>
        <time>2017-07-26T06:47:03Z</time>
      </trkpt>
      <trkpt lat="45.434" lon="4.12656">
        <ele>598</ele>
        <time>2017-07-26T06:49:03Z</time>
      </trkpt>
      <trkpt lat="45.43394" lon="4.12652">
        <ele>597</ele>
        <time>2017-07-26T06:51:03Z</time>
      </trkpt>
      <trkpt lat="45.43387" lon="4.1265">
        <ele>596</ele>
        <time>2017-07-26T06:53:03Z</time>
      </trkpt>
      <trkpt lat="45.43379" lon="4.12649">
        <ele>595</ele>
        <time>2017-07-26T06:55:03Z</time>
      </trkpt>
      <trkpt lat="45.43371" lon="4.1265">
        <ele>594</ele>
        <time>2017-07-26T06:57:03Z</time>
      </trkpt>
      <trkpt lat="45.43365" lon="4.12651">
        <ele>593</ele>
        <time>2017-07-26T06:59:03Z</time>
      </trkpt>
      <trkpt lat="45.43358" lon="4.12651">
        <ele>592</ele>
        <time>2017-07-26T07:01:03Z</time>
      </trkpt>
      <trkpt lat="45.43352" lon="4.12649">
        <ele>591</ele>
        <time>2017-07-26T07:03:03Z</time>
      </trkpt>
      <trkpt lat="45.43345" lon="4.12645">
        <ele>590</ele>
        <time>2017-07-26T07:05:03Z</time>
      </trkpt>
      <trkpt lat="45.4334" lon="4.12641">
        <ele>589</ele>
        <time>2017-07-26T07:07:03Z</time>
      </trkpt>
      <trkpt lat="45.43335" lon="4.12637">
        <ele>589</ele>
        <time>2017-07-26T07:09:03Z</time>
      </trkpt>
      <trkpt lat="45.43332" lon="4.12632">
        <ele>589</ele>
        <time>2017-07-26T07:11:03Z</time>
      </trkpt>
      <trkpt lat="45.43331" lon="4.1262">
        <ele>589</ele>
        <time>2017-07-26T07:13:03Z</time>
      </trkpt>
      <trkpt lat="45.43333" lon="4.12608">
        <ele>590</ele>
        <time>2017-07-26T07:15:03Z</time>
      </trkpt>
      <trkpt lat="45.43339" lon="4.12589">
        <ele>592</ele>
        <time>2017-07-26T07:17:03Z</time>
      </trkpt>
      <trkpt lat="45.43341" lon="4.12579">
        <ele>593</ele>
        <time>2017-07-26T07:19:03Z</time>
      </trkpt>
      <trkpt lat="45.43345" lon="4.12554">
        <ele>594</ele>
        <time>2017-07-26T07:21:03Z</time>
      </trkpt>
      <trkpt lat="45.43341" lon="4.12525">
        <ele>595</ele>
        <time>2017-07-26T07:23:03Z</time>
      </trkpt>
      <trkpt lat="45.43338" lon="4.12514">
        <ele>595</ele>
        <time>2017-07-26T07:25:03Z</time>
      </trkpt>
      <trkpt lat="45.43321" lon="4.1248">
        <ele>595</ele>
        <time>2017-07-26T07:27:03Z</time>
      </trkpt>
      <trkpt lat="45.4331" lon="4.12461">
        <ele>594</ele>
        <time>2017-07-26T07:29:03Z</time>
      </trkpt>
      <trkpt lat="45.43299" lon="4.12442">
        <ele>594</ele>
        <time>2017-07-26T07:31:03Z</time>
      </trkpt>
      <trkpt lat="45.43296" lon="4.12434">
        <ele>594</ele>
        <time>2017-07-26T07:33:03Z</time>
      </trkpt>
      <trkpt lat="45.43293" lon="4.12426">
        <ele>594</ele>
        <time>2017-07-26T07:35:03Z</time>
      </trkpt>
      <trkpt lat="45.43277" lon="4.1239">
        <ele>594</ele>
        <time>2017-07-26T07:37:03Z</time>
      </trkpt>
      <trkpt lat="45.43274" lon="4.1238">
        <ele>595</ele>
        <time>2017-07-26T07:39:03Z</time>
      </trkpt>
      <trkpt lat="45.43263" lon="4.12351">
        <ele>596</ele>
        <time>2017-07-26T07:41:03Z</time>
      </trkpt>
      <trkpt lat="45.43257" lon="4.12337">
        <ele>596</ele>
        <time>2017-07-26T07:43:03Z</time>
      </trkpt>
      <trkpt lat="45.4325" lon="4.12322">
        <ele>596</ele>
        <time>2017-07-26T07:45:03Z</time>
      </trkpt>
      <trkpt lat="45.43247" lon="4.12315">
        <ele>596</ele>
        <time>2017-07-26T07:47:03Z</time>
      </trkpt>
      <trkpt lat="45.43241" lon="4.12299">
        <ele>597</ele>
        <time>2017-07-26T07:49:03Z</time>
      </trkpt>
      <trkpt lat="45.43234" lon="4.12275">
        <ele>599</ele>
        <time>2017-07-26T07:51:03Z</time>
      </trkpt>
      <trkpt lat="45.43231" lon="4.12264">
        <ele>599</ele>
        <time>2017-07-26T07:53:03Z</time>
      </trkpt>
      <trkpt lat="45.43227" lon="4.12247">
        <ele>600</ele>
        <time>2017-07-26T07:55:03Z</time>
      </trkpt>
      <trkpt lat="45.43226" lon="4.12242">
        <ele>600</ele>
        <time>2017-07-26T07:57:03Z</time>
      </trkpt>
      <trkpt lat="45.43223" lon="4.12229">
        <ele>599</ele>
        <time>2017-07-26T07:59:03Z</time>
      </trkpt>
      <trkpt lat="45.43223" lon="4.12226">
        <ele>599</ele>
        <time>2017-07-26T08:01:03Z</time>
      </trkpt>
      <trkpt lat="45.43225" lon="4.12213">
        <ele>599</ele>
        <time>2017-07-26T08:03:03Z</time>
      </trkpt>
      <trkpt lat="45.43229" lon="4.12193">
        <ele>599</ele>
        <time>2017-07-26T08:05:03Z</time>
      </trkpt>
      <trkpt lat="45.43226" lon="4.12169">
        <ele>599</ele>
        <time>2017-07-26T08:07:03Z</time>
      </trkpt>
      <trkpt lat="45.4323" lon="4.12142">
        <ele>597</ele>
        <time>2017-07-26T08:09:03Z</time>
      </trkpt>
      <trkpt lat="45.43233" lon="4.12135">
        <ele>597</ele>
        <time>2017-07-26T08:11:03Z</time>
      </trkpt>
      <trkpt lat="45.43236" lon="4.12128">
        <ele>596</ele>
        <time>2017-07-26T08:13:03Z</time>
      </trkpt>
      <trkpt lat="45.43238" lon="4.12122">
        <ele>596</ele>
        <time>2017-07-26T08:15:03Z</time>
      </trkpt>
      <trkpt lat="45.43235" lon="4.1211">
        <ele>595</ele>
        <time>2017-07-26T08:17:03Z</time>
      </trkpt>
      <trkpt lat="45.43231" lon="4.12106">
        <ele>594</ele>
        <time>2017-07-26T08:19:03Z</time>
      </trkpt>
      <trkpt lat="45.43225" lon="4.12103">
        <ele>594</ele>
        <time>2017-07-26T08:21:03Z</time>
      </trkpt>
      <trkpt lat="45.43196" lon="4.12085">
        <ele>591</ele>
        <time>2017-07-26T08:23:03Z</time>
      </trkpt>
      <trkpt lat="45.4318" lon="4.12076">
        <ele>590</ele>
        <time>2017-07-26T08:25:03Z</time>
      </trkpt>
      <trkpt lat="45.43172" lon="4.1207">
        <ele>590</ele>
        <time>2017-07-26T08:27:03Z</time>
      </trkpt>
      <trkpt lat="45.43166" lon="4.12063">
        <ele>590</ele>
        <time>2017-07-26T08:29:03Z</time>
      </trkpt>
      <trkpt lat="45.43156" lon="4.1205">
        <ele>589</ele>
        <time>2017-07-26T08:31:03Z</time>
      </trkpt>
      <trkpt lat="45.43145" lon="4.12039">
        <ele>589</ele>
        <time>2017-07-26T08:33:03Z</time>
      </trkpt>
      <trkpt lat="45.43133" lon="4.1203">
        <ele>588</ele>
        <time>2017-07-26T08:35:03Z</time>
      </trkpt>
      <trkpt lat="45.43127" lon="4.12021">
        <ele>588</ele>
        <time>2017-07-26T08:37:03Z</time>
      </trkpt>
      <trkpt lat="45.43126" lon="4.1202">
        <ele>588</ele>
        <time>2017-07-26T08:39:03Z</time>
      </trkpt>
      <trkpt lat="45.43114" lon="4.12013">
        <ele>588</ele>
        <time>2017-07-26T08:41:03Z</time>
      </trkpt>
      <trkpt lat="45.43096" lon="4.12">
        <ele>587</ele>
        <time>2017-07-26T08:43:03Z</time>
      </trkpt>
      <trkpt lat="45.43076" lon="4.11982">
        <ele>588</ele>
        <time>2017-07-26T08:45:03Z</time>
      </trkpt>
      <trkpt lat="45.43062" lon="4.11969">
        <ele>589</ele>
        <time>2017-07-26T08:47:03Z</time>
      </trkpt>
      <trkpt lat="45.43058" lon="4.11965">
        <ele>590</ele>
        <time>2017-07-26T08:49:03Z</time>
      </trkpt>
      <trkpt lat="45.43054" lon="4.11962">
        <ele>590</ele>
        <time>2017-07-26T08:51:03Z</time>
      </trkpt>
      <trkpt lat="45.43046" lon="4.11956">
        <ele>591</ele>
        <time>2017-07-26T08:53:03Z</time>
      </trkpt>
      <trkpt lat="45.43043" lon="4.11953">
        <ele>591</ele>
        <time>2017-07-26T08:55:03Z</time>
      </trkpt>
      <trkpt lat="45.43035" lon="4.11948">
        <ele>592</ele>
        <time>2017-07-26T08:57:03Z</time>
      </trkpt>
      <trkpt lat="45.43031" lon="4.11948">
        <ele>592</ele>
        <time>2017-07-26T08:59:03Z</time>
      </trkpt>
      <trkpt lat="45.43025" lon="4.11952">
        <ele>592</ele>
        <time>2017-07-26T09:01:03Z</time>
      </trkpt>
      <trkpt lat="45.4301" lon="4.11955">
        <ele>592</ele>
        <time>2017-07-26T09:03:03Z</time>
      </trkpt>
      <trkpt lat="45.43006" lon="4.11957">
        <ele>592</ele>
        <time>2017-07-26T09:05:03Z</time>
      </trkpt>
      <trkpt lat="45.42991" lon="4.11963">
        <ele>592</ele>
        <time>2017-07-26T09:07:03Z</time>
      </trkpt>
      <trkpt lat="45.42977" lon="4.11968">
        <ele>592</ele>
        <time>2017-07-26T09:09:03Z</time>
      </trkpt>
      <trkpt lat="45.4297" lon="4.11978">
        <ele>592</ele>
        <time>2017-07-26T09:11:03Z</time>
      </trkpt>
      <trkpt lat="45.42972" lon="4.11997">
        <ele>591</ele>
        <time>2017-07-26T09:13:03Z</time>
      </trkpt>
      <trkpt lat="45.42969" lon="4.12014">
        <ele>591</ele>
        <time>2017-07-26T09:15:03Z</time>
      </trkpt>
      <trkpt lat="45.42963" lon="4.12032">
        <ele>591</ele>
        <time>2017-07-26T09:17:03Z</time>
      </trkpt>
      <trkpt lat="45.42958" lon="4.12053">
        <ele>592</ele>
        <time>2017-07-26T09:19:03Z</time>
      </trkpt>
      <trkpt lat="45.4295" lon="4.12077">
        <ele>593</ele>
        <time>2017-07-26T09:21:03Z</time>
      </trkpt>
      <trkpt lat="45.42943" lon="4.12087">
        <ele>594</ele>
        <time>2017-07-26T09:23:03Z</time>
      </trkpt>
      <trkpt lat="45.4294" lon="4.12088">
        <ele>594</ele>
        <time>2017-07-26T09:25:03Z</time>
      </trkpt>
      <trkpt lat="45.42932" lon="4.12092">
        <ele>595</ele>
        <time>2017-07-26T09:27:03Z</time>
      </trkpt>
      <trkpt lat="45.42924" lon="4.12096">
        <ele>596</ele>
        <time>2017-07-26T09:29:03Z</time>
      </trkpt>
      <trkpt lat="45.42909" lon="4.12104">
        <ele>598</ele>
        <time>2017-07-26T09:31:03Z</time>
      </trkpt>
      <trkpt lat="45.429" lon="4.12115">
        <ele>601</ele>
        <time>2017-07-26T09:33:03Z</time>
      </trkpt>
      <trkpt lat="45.42894" lon="4.12129">
        <ele>603</ele>
        <time>2017-07-26T09:35:03Z</time>
      </trkpt>
      <trkpt lat="45.42891" lon="4.12135">
        <ele>604</ele>
        <time>2017-07-26T09:37:03Z</time>
      </trkpt>
      <trkpt lat="45.42885" lon="4.12157">
        <ele>606</ele>
        <time>2017-07-26T09:39:03Z</time>
      </trkpt>
      <trkpt lat="45.42883" lon="4.12178">
        <ele>607</ele>
        <time>2017-07-26T09:41:03Z</time>
      </trkpt>
      <trkpt lat="45.42879" lon="4.12199">
        <ele>607</ele>
        <time>2017-07-26T09:43:03Z</time>
      </trkpt>
      <trkpt lat="45.42875" lon="4.12218">
        <ele>608</ele>
        <time>2017-07-26T09:45:03Z</time>
      </trkpt>
      <trkpt lat="45.42875" lon="4.12236">
        <ele>608</ele>
        <time>2017-07-26T09:47:03Z</time>
      </trkpt>
      <trkpt lat="45.42875" lon="4.12242">
        <ele>608</ele>
        <time>2017-07-26T09:49:03Z</time>
      </trkpt>
      <trkpt lat="45.42876" lon="4.12251">
        <ele>608</ele>
        <time>2017-07-26T09:51:03Z</time>
      </trkpt>
      <trkpt lat="45.42879" lon="4.12262">
        <ele>608</ele>
        <time>2017-07-26T09:53:03Z</time>
      </trkpt>
      <trkpt lat="45.42881" lon="4.1227">
        <ele>608</ele>
        <time>2017-07-26T09:55:03Z</time>
      </trkpt>
      <trkpt lat="45.42886" lon="4.12292">
        <ele>609</ele>
        <time>2017-07-26T09:57:03Z</time>
      </trkpt>
      <trkpt lat="45.42887" lon="4.12298">
        <ele>609</ele>
        <time>2017-07-26T09:59:03Z</time>
      </trkpt>
      <trkpt lat="45.42891" lon="4.12316">
        <ele>609</ele>
        <time>2017-07-26T10:01:03Z</time>
      </trkpt>
      <trkpt lat="45.42894" lon="4.12336">
        <ele>610</ele>
        <time>2017-07-26T10:03:03Z</time>
      </trkpt>
      <trkpt lat="45.42894" lon="4.12353">
        <ele>611</ele>
        <time>2017-07-26T10:05:03Z</time>
      </trkpt>
      <trkpt lat="45.42893" lon="4.12377">
        <ele>613</ele>
        <time>2017-07-26T10:07:03Z</time>
      </trkpt>
      <trkpt lat="45.42892" lon="4.12388">
        <ele>614</ele>
        <time>2017-07-26T10:09:03Z</time>
      </trkpt>
      <trkpt lat="45.42892" lon="4.12391">
        <ele>614</ele>
        <time>2017-07-26T10:11:03Z</time>
      </trkpt>
      <trkpt lat="45.42891" lon="4.12405">
        <ele>615</ele>
        <time>2017-07-26T10:13:03Z</time>
      </trkpt>
      <trkpt lat="45.4289" lon="4.12411">
        <ele>615</ele>
        <time>2017-07-26T10:15:03Z</time>
      </trkpt>
      <trkpt lat="45.42888" lon="4.1242">
        <ele>616</ele>
        <time>2017-07-26T10:17:03Z</time>
      </trkpt>
      <trkpt lat="45.42887" lon="4.12424">
        <ele>616</ele>
        <time>2017-07-26T10:19:03Z</time>
      </trkpt>
      <trkpt lat="45.42885" lon="4.12444">
        <ele>616</ele>
        <time>2017-07-26T10:21:03Z</time>
      </trkpt>
      <trkpt lat="45.42885" lon="4.12455">
        <ele>617</ele>
        <time>2017-07-26T10:23:03Z</time>
      </trkpt>
      <trkpt lat="45.42885" lon="4.12471">
        <ele>617</ele>
        <time>2017-07-26T10:25:03Z</time>
      </trkpt>
      <trkpt lat="45.42885" lon="4.12495">
        <ele>618</ele>
        <time>2017-07-26T10:27:03Z</time>
      </trkpt>
      <trkpt lat="45.42885" lon="4.12501">
        <ele>618</ele>
        <time>2017-07-26T10:29:03Z</time>
      </trkpt>
      <trkpt lat="45.42885" lon="4.12516">
        <ele>619</ele>
        <time>2017-07-26T10:31:03Z</time>
      </trkpt>
      <trkpt lat="45.42883" lon="4.1253">
        <ele>619</ele>
        <time>2017-07-26T10:33:03Z</time>
      </trkpt>
      <trkpt lat="45.42882" lon="4.12534">
        <ele>619</ele>
        <time>2017-07-26T10:35:03Z</time>
      </trkpt>
      <trkpt lat="45.42877" lon="4.12554">
        <ele>619</ele>
        <time>2017-07-26T10:37:03Z</time>
      </trkpt>
      <trkpt lat="45.4286" lon="4.12598">
        <ele>620</ele>
        <time>2017-07-26T10:39:03Z</time>
      </trkpt>
      <trkpt lat="45.4286" lon="4.12601">
        <ele>620</ele>
        <time>2017-07-26T10:41:03Z</time>
      </trkpt>
      <trkpt lat="45.42857" lon="4.1261">
        <ele>620</ele>
        <time>2017-07-26T10:43:03Z</time>
      </trkpt>
      <trkpt lat="45.4285" lon="4.12622">
        <ele>621</ele>
        <time>2017-07-26T10:45:03Z</time>
      </trkpt>
      <trkpt lat="45.42846" lon="4.12628">
        <ele>621</ele>
        <time>2017-07-26T10:47:03Z</time>
      </trkpt>
      <trkpt lat="45.42841" lon="4.12642">
        <ele>622</ele>
        <time>2017-07-26T10:49:03Z</time>
      </trkpt>
      <trkpt lat="45.42839" lon="4.12648">
        <ele>623</ele>
        <time>2017-07-26T10:51:03Z</time>
      </trkpt>
      <trkpt lat="45.42834" lon="4.12657">
        <ele>623</ele>
        <time>2017-07-26T10:53:03Z</time>
      </trkpt>
      <trkpt lat="45.42817" lon="4.12686">
        <ele>626</ele>
        <time>2017-07-26T10:55:03Z</time>
      </trkpt>
      <trkpt lat="45.42807" lon="4.12699">
        <ele>627</ele>
        <time>2017-07-26T10:57:03Z</time>
      </trkpt>
      <trkpt lat="45.42805" lon="4.127">
        <ele>627</ele>
        <time>2017-07-26T10:59:03Z</time>
      </trkpt>
      <trkpt lat="45.42791" lon="4.1271">
        <ele>629</ele>
        <time>2017-07-26T11:01:03Z</time>
      </trkpt>
      <trkpt lat="45.42779" lon="4.12715">
        <ele>630</ele>
        <time>2017-07-26T11:03:03Z</time>
      </trkpt>
      <trkpt lat="45.42767" lon="4.12726">
        <ele>631</ele>
        <time>2017-07-26T11:05:03Z</time>
      </trkpt>
      <trkpt lat="45.42764" lon="4.12732">
        <ele>632</ele>
        <time>2017-07-26T11:07:03Z</time>
      </trkpt>
      <trkpt lat="45.42758" lon="4.12747">
        <ele>633</ele>
        <time>2017-07-26T11:09:03Z</time>
      </trkpt>
      <trkpt lat="45.42753" lon="4.12757">
        <ele>634</ele>
        <time>2017-07-26T11:11:03Z</time>
      </trkpt>
      <trkpt lat="45.42749" lon="4.1277">
        <ele>635</ele>
        <time>2017-07-26T11:13:03Z</time>
      </trkpt>
      <trkpt lat="45.42745" lon="4.12778">
        <ele>636</ele>
        <time>2017-07-26T11:15:03Z</time>
      </trkpt>
      <trkpt lat="45.42744" lon="4.1279">
        <ele>637</ele>
        <time>2017-07-26T11:17:03Z</time>
      </trkpt>
      <trkpt lat="45.42743" lon="4.12797">
        <ele>638</ele>
        <time>2017-07-26T11:19:03Z</time>
      </trkpt>
      <trkpt lat="45.42742" lon="4.12802">
        <ele>638</ele>
        <time>2017-07-26T11:21:03Z</time>
      </trkpt>
      <trkpt lat="45.42741" lon="4.12808">
        <ele>639</ele>
        <time>2017-07-26T11:23:03Z</time>
      </trkpt>
      <trkpt lat="45.42741" lon="4.1282">
        <ele>639</ele>
        <time>2017-07-26T11:25:03Z</time>
      </trkpt>
      <trkpt lat="45.4274" lon="4.12823">
        <ele>640</ele>
        <time>2017-07-26T11:27:03Z</time>
      </trkpt>
      <trkpt lat="45.42739" lon="4.12826">
        <ele>640</ele>
        <time>2017-07-26T11:29:03Z</time>
      </trkpt>
      <trkpt lat="45.42735" lon="4.12834">
        <ele>641</ele>
        <time>2017-07-26T11:31:03Z</time>
      </trkpt>
      <trkpt lat="45.42734" lon="4.12838">
        <ele>641</ele>
        <time>2017-07-26T11:33:03Z</time>
      </trkpt>
      <trkpt lat="45.42735" lon="4.12839">
        <ele>641</ele>
        <time>2017-07-26T11:35:03Z</time>
      </trkpt>
      <trkpt lat="45.42732" lon="4.12848">
        <ele>641</ele>
        <time>2017-07-26T11:37:03Z</time>
      </trkpt>
      <trkpt lat="45.42728" lon="4.12858">
        <ele>642</ele>
        <time>2017-07-26T11:39:03Z</time>
      </trkpt>
      <trkpt lat="45.42721" lon="4.12868">
        <ele>643</ele>
        <time>2017-07-26T11:41:03Z</time>
      </trkpt>
      <trkpt lat="45.42716" lon="4.12879">
        <ele>643</ele>
        <time>2017-07-26T11:43:03Z</time>
      </trkpt>
      <trkpt lat="45.4271" lon="4.12894">
        <ele>644</ele>
        <time>2017-07-26T11:45:03Z</time>
      </trkpt>
      <trkpt lat="45.4271" lon="4.12897">
        <ele>644</ele>
        <time>2017-07-26T11:47:03Z</time>
      </trkpt>
      <trkpt lat="45.42704" lon="4.12908">
        <ele>645</ele>
        <time>2017-07-26T11:49:03Z</time>
      </trkpt>
      <trkpt lat="45.427" lon="4.12914">
        <ele>645</ele>
        <time>2017-07-26T11:51:03Z</time>
      </trkpt>
      <trkpt lat="45.42695" lon="4.12919">
        <ele>646</ele>
        <time>2017-07-26T11:53:03Z</time>
      </trkpt>
      <trkpt lat="45.42689" lon="4.12926">
        <ele>646</ele>
        <time>2017-07-26T11:55:03Z</time>
      </trkpt>
      <trkpt lat="45.42682" lon="4.1293">
        <ele>646</ele>
        <time>2017-07-26T11:57:03Z</time>
      </trkpt>
      <trkpt lat="45.42678" lon="4.12935">
        <ele>646</ele>
        <time>2017-07-26T11:59:03Z</time>
      </trkpt>
      <trkpt lat="45.42657" lon="4.12949">
        <ele>647</ele>
        <time>2017-07-26T12:01:03Z</time>
      </trkpt>
      <trkpt lat="45.42631" lon="4.12966">
        <ele>649</ele>
        <time>2017-07-26T12:03:03Z</time>
      </trkpt>
      <trkpt lat="45.4262" lon="4.12974">
        <ele>650</ele>
        <time>2017-07-26T12:05:03Z</time>
      </trkpt>
      <trkpt lat="45.42618" lon="4.12974">
        <ele>650</ele>
        <time>2017-07-26T12:07:03Z</time>
      </trkpt>
      <trkpt lat="45.42611" lon="4.12978">
        <ele>651</ele>
        <time>2017-07-26T12:09:03Z</time>
      </trkpt>
      <trkpt lat="45.42599" lon="4.12987">
        <ele>652</ele>
        <time>2017-07-26T12:11:03Z</time>
      </trkpt>
      <trkpt lat="45.42573" lon="4.13005">
        <ele>654</ele>
        <time>2017-07-26T12:13:03Z</time>
      </trkpt>
      <trkpt lat="45.42561" lon="4.13016">
        <ele>654</ele>
        <time>2017-07-26T12:15:03Z</time>
      </trkpt>
      <trkpt lat="45.42546" lon="4.13028">
        <ele>655</ele>
        <time>2017-07-26T12:17:03Z</time>
      </trkpt>
      <trkpt lat="45.42542" lon="4.13031">
        <ele>655</ele>
        <time>2017-07-26T12:19:03Z</time>
      </trkpt>
      <trkpt lat="45.42533" lon="4.13037">
        <ele>656</ele>
        <time>2017-07-26T12:21:03Z</time>
      </trkpt>
      <trkpt lat="45.42523" lon="4.13041">
        <ele>656</ele>
        <time>2017-07-26T12:23:03Z</time>
      </trkpt>
      <trkpt lat="45.42519" lon="4.13044">
        <ele>657</ele>
        <time>2017-07-26T12:25:03Z</time>
      </trkpt>
      <trkpt lat="45.42514" lon="4.13056">
        <ele>657</ele>
        <time>2017-07-26T12:27:03Z</time>
      </trkpt>
      <trkpt lat="45.42509" lon="4.13067">
        <ele>657</ele>
        <time>2017-07-26T12:29:03Z</time>
      </trkpt>
      <trkpt lat="45.42505" lon="4.13081">
        <ele>657</ele>
        <time>2017-07-26T12:31:03Z</time>
      </trkpt>
      <trkpt lat="45.42505" lon="4.13085">
        <ele>657</ele>
        <time>2017-07-26T12:33:03Z</time>
      </trkpt>
      <trkpt lat="45.42502" lon="4.13092">
        <ele>658</ele>
        <time>2017-07-26T12:35:03Z</time>
      </trkpt>
      <trkpt lat="45.42501" lon="4.13101">
        <ele>658</ele>
        <time>2017-07-26T12:37:03Z</time>
      </trkpt>
      <trkpt lat="45.42501" lon="4.13104">
        <ele>658</ele>
        <time>2017-07-26T12:39:03Z</time>
      </trkpt>
      <trkpt lat="45.42501" lon="4.13114">
        <ele>658</ele>
        <time>2017-07-26T12:41:03Z</time>
      </trkpt>
      <trkpt lat="45.425" lon="4.13121">
        <ele>658</ele>
        <time>2017-07-26T12:43:03Z</time>
      </trkpt>
      <trkpt lat="45.425" lon="4.13135">
        <ele>658</ele>
        <time>2017-07-26T12:45:03Z</time>
      </trkpt>
      <trkpt lat="45.42498" lon="4.13146">
        <ele>658</ele>
        <time>2017-07-26T12:47:03Z</time>
      </trkpt>
      <trkpt lat="45.42491" lon="4.13162">
        <ele>659</ele>
        <time>2017-07-26T12:49:03Z</time>
      </trkpt>
      <trkpt lat="45.4249" lon="4.13165">
        <ele>659</ele>
        <time>2017-07-26T12:51:03Z</time>
      </trkpt>
      <trkpt lat="45.42479" lon="4.13182">
        <ele>659</ele>
        <time>2017-07-26T12:53:03Z</time>
      </trkpt>
      <trkpt lat="45.42473" lon="4.13195">
        <ele>660</ele>
        <time>2017-07-26T12:55:03Z</time>
      </trkpt>
      <trkpt lat="45.4246" lon="4.13213">
        <ele>661</ele>
        <time>2017-07-26T12:57:03Z</time>
      </trkpt>
      <trkpt lat="45.42448" lon="4.13224">
        <ele>662</ele>
        <time>2017-07-26T12:59:03Z</time>
      </trkpt>
      <trkpt lat="45.42425" lon="4.13242">
        <ele>663</ele>
        <time>2017-07-26T13:01:03Z</time>
      </trkpt>
      <trkpt lat="45.4241" lon="4.13255">
        <ele>664</ele>
        <time>2017-07-26T13:03:03Z</time>
      </trkpt>
      <trkpt lat="45.424" lon="4.13268">
        <ele>664</ele>
        <time>2017-07-26T13:05:03Z</time>
      </trkpt>
      <trkpt lat="45.42391" lon="4.1328">
        <ele>665</ele>
        <time>2017-07-26T13:07:03Z</time>
      </trkpt>
      <trkpt lat="45.4238" lon="4.13289">
        <ele>665</ele>
        <time>2017-07-26T13:09:03Z</time>
      </trkpt>
      <trkpt lat="45.42372" lon="4.13295">
        <ele>665</ele>
        <time>2017-07-26T13:11:03Z</time>
      </trkpt>
      <trkpt lat="45.42362" lon="4.13302">
        <ele>666</ele>
        <time>2017-07-26T13:13:03Z</time>
      </trkpt>
      <trkpt lat="45.4235" lon="4.13313">
        <ele>666</ele>
        <time>2017-07-26T13:15:03Z</time>
      </trkpt>
      <trkpt lat="45.42338" lon="4.13329">
        <ele>668</ele>
        <time>2017-07-26T13:17:03Z</time>
      </trkpt>
      <trkpt lat="45.42332" lon="4.13336">
        <ele>668</ele>
        <time>2017-07-26T13:19:03Z</time>
      </trkpt>
      <trkpt lat="45.42325" lon="4.13347">
        <ele>669</ele>
        <time>2017-07-26T13:21:03Z</time>
      </trkpt>
      <trkpt lat="45.423" lon="4.13375">
        <ele>671</ele>
        <time>2017-07-26T13:23:03Z</time>
      </trkpt>
      <trkpt lat="45.42293" lon="4.13388">
        <ele>672</ele>
        <time>2017-07-26T13:25:03Z</time>
      </trkpt>
      <trkpt lat="45.42281" lon="4.13413">
        <ele>674</ele>
        <time>2017-07-26T13:27:03Z</time>
      </trkpt>
      <trkpt lat="45.42276" lon="4.13422">
        <ele>675</ele>
        <time>2017-07-26T13:29:03Z</time>
      </trkpt>
      <trkpt lat="45.42272" lon="4.13426">
        <ele>675</ele>
        <time>2017-07-26T13:31:03Z</time>
      </trkpt>
      <trkpt lat="45.42271" lon="4.13427">
        <ele>675</ele>
        <time>2017-07-26T13:33:03Z</time>
      </trkpt>
      <trkpt lat="45.42266" lon="4.13429">
        <ele>675</ele>
        <time>2017-07-26T13:35:03Z</time>
      </trkpt>
      <trkpt lat="45.42253" lon="4.1344">
        <ele>675</ele>
        <time>2017-07-26T13:37:03Z</time>
      </trkpt>
      <trkpt lat="45.42246" lon="4.13446">
        <ele>676</ele>
        <time>2017-07-26T13:39:03Z</time>
      </trkpt>
      <trkpt lat="45.42187" lon="4.13486">
        <ele>678</ele>
        <time>2017-07-26T13:41:03Z</time>
      </trkpt>
      <trkpt lat="45.42175" lon="4.13495">
        <ele>679</ele>
        <time>2017-07-26T13:43:03Z</time>
      </trkpt>
      <trkpt lat="45.42163" lon="4.13502">
        <ele>679</ele>
        <time>2017-07-26T13:45:03Z</time>
      </trkpt>
      <trkpt lat="45.42146" lon="4.13511">
        <ele>680</ele>
        <time>2017-07-26T13:47:03Z</time>
      </trkpt>
      <trkpt lat="45.42135" lon="4.1352">
        <ele>680</ele>
        <time>2017-07-26T13:49:03Z</time>
      </trkpt>
      <trkpt lat="45.42137" lon="4.13523">
        <ele>680</ele>
        <time>2017-07-26T13:51:03Z</time>
      </trkpt>
      <trkpt lat="45.42145" lon="4.13529">
        <ele>680</ele>
        <time>2017-07-26T13:53:03Z</time>
      </trkpt>
      <trkpt lat="45.42171" lon="4.13558">
        <ele>678</ele>
        <time>2017-07-26T13:55:03Z</time>
      </trkpt>
      <trkpt lat="45.42189" lon="4.13582">
        <ele>677</ele>
        <time>2017-07-26T13:57:03Z</time>
      </trkpt>
      <trkpt lat="45.42193" lon="4.13585">
        <ele>677</ele>
        <time>2017-07-26T13:59:03Z</time>
      </trkpt>
      <trkpt lat="45.42199" lon="4.13594">
        <ele>677</ele>
        <time>2017-07-26T14:01:03Z</time>
      </trkpt>
      <trkpt lat="45.42199" lon="4.136">
        <ele>677</ele>
        <time>2017-07-26T14:03:03Z</time>
      </trkpt>
      <trkpt lat="45.42194" lon="4.13612">
        <ele>676</ele>
        <time>2017-07-26T14:05:03Z</time>
      </trkpt>
      <trkpt lat="45.42183" lon="4.13627">
        <ele>676</ele>
        <time>2017-07-26T14:07:03Z</time>
      </trkpt>
      <trkpt lat="45.42176" lon="4.13637">
        <ele>676</ele>
        <time>2017-07-26T14:09:03Z</time>
      </trkpt>
      <trkpt lat="45.4217" lon="4.13647">
        <ele>676</ele>
        <time>2017-07-26T14:11:03Z</time>
      </trkpt>
      <trkpt lat="45.42165" lon="4.13658">
        <ele>675</ele>
        <time>2017-07-26T14:13:03Z</time>
      </trkpt>
      <trkpt lat="45.42159" lon="4.13673">
        <ele>676</ele>
        <time>2017-07-26T14:15:03Z</time>
      </trkpt>
      <trkpt lat="45.42158" lon="4.13678">
        <ele>676</ele>
        <time>2017-07-26T14:17:03Z</time>
      </trkpt>
      <trkpt lat="45.42154" lon="4.13708">
        <ele>677</ele>
        <time>2017-07-26T14:19:03Z</time>
      </trkpt>
      <trkpt lat="45.42154" lon="4.13738">
        <ele>677</ele>
        <time>2017-07-26T14:21:03Z</time>
      </trkpt>
      <trkpt lat="45.42154" lon="4.13757">
        <ele>677</ele>
        <time>2017-07-26T14:23:03Z</time>
      </trkpt>
      <trkpt lat="45.42156" lon="4.13785">
        <ele>678</ele>
        <time>2017-07-26T14:25:03Z</time>
      </trkpt>
      <trkpt lat="45.42158" lon="4.13799">
        <ele>678</ele>
        <time>2017-07-26T14:27:03Z</time>
      </trkpt>
      <trkpt lat="45.42158" lon="4.13806">
        <ele>678</ele>
        <time>2017-07-26T14:29:03Z</time>
      </trkpt>
      <trkpt lat="45.42159" lon="4.13837">
        <ele>679</ele>
        <time>2017-07-26T14:31:03Z</time>
      </trkpt>
      <trkpt lat="45.42158" lon="4.13843">
        <ele>679</ele>
        <time>2017-07-26T14:33:03Z</time>
      </trkpt>
      <trkpt lat="45.42149" lon="4.13922">
        <ele>679</ele>
        <time>2017-07-26T14:35:03Z</time>
      </trkpt>
      <trkpt lat="45.42144" lon="4.13956">
        <ele>679</ele>
        <time>2017-07-26T14:37:03Z</time>
      </trkpt>
      <trkpt lat="45.42141" lon="4.13974">
        <ele>678</ele>
        <time>2017-07-26T14:39:03Z</time>
      </trkpt>
      <trkpt lat="45.42138" lon="4.13987">
        <ele>678</ele>
        <time>2017-07-26T14:41:03Z</time>
      </trkpt>
      <trkpt lat="45.42128" lon="4.14044">
        <ele>677</ele>
        <time>2017-07-26T14:43:03Z</time>
      </trkpt>
      <trkpt lat="45.42125" lon="4.14062">
        <ele>677</ele>
        <time>2017-07-26T14:45:03Z</time>
      </trkpt>
      <trkpt lat="45.42122" lon="4.1408">
        <ele>677</ele>
        <time>2017-07-26T14:47:03Z</time>
      </trkpt>
      <trkpt lat="45.42114" lon="4.14144">
        <ele>677</ele>
        <time>2017-07-26T14:49:03Z</time>
      </trkpt>
      <trkpt lat="45.42109" lon="4.14178">
        <ele>678</ele>
        <time>2017-07-26T14:51:03Z</time>
      </trkpt>
      <trkpt lat="45.42107" lon="4.14189">
        <ele>678</ele>
        <time>2017-07-26T14:53:03Z</time>
      </trkpt>
      <trkpt lat="45.42104" lon="4.1421">
        <ele>679</ele>
        <time>2017-07-26T14:55:03Z</time>
      </trkpt>
      <trkpt lat="45.42098" lon="4.14241">
        <ele>680</ele>
        <time>2017-07-26T14:57:03Z</time>
      </trkpt>
      <trkpt lat="45.4209" lon="4.14282">
        <ele>681</ele>
        <time>2017-07-26T14:59:03Z</time>
      </trkpt>
      <trkpt lat="45.42083" lon="4.14312">
        <ele>682</ele>
        <time>2017-07-26T15:01:03Z</time>
      </trkpt>
      <trkpt lat="45.42071" lon="4.14352">
        <ele>683</ele>
        <time>2017-07-26T15:03:03Z</time>
      </trkpt>
      <trkpt lat="45.42067" lon="4.14361">
        <ele>683</ele>
        <time>2017-07-26T15:05:03Z</time>
      </trkpt>
      <trkpt lat="45.42065" lon="4.1437">
        <ele>683</ele>
        <time>2017-07-26T15:07:03Z</time>
      </trkpt>
      <trkpt lat="45.42064" lon="4.14374">
        <ele>683</ele>
        <time>2017-07-26T15:09:03Z</time>
      </trkpt>
      <trkpt lat="45.42059" lon="4.14393">
        <ele>684</ele>
        <time>2017-07-26T15:11:03Z</time>
      </trkpt>
      <trkpt lat="45.42054" lon="4.1441">
        <ele>684</ele>
        <time>2017-07-26T15:13:03Z</time>
      </trkpt>
      <trkpt lat="45.42042" lon="4.14447">
        <ele>684</ele>
        <time>2017-07-26T15:15:03Z</time>
      </trkpt>
      <trkpt lat="45.42036" lon="4.14464">
        <ele>684</ele>
        <time>2017-07-26T15:17:03Z</time>
      </trkpt>
      <trkpt lat="45.42033" lon="4.14468">
        <ele>684</ele>
        <time>2017-07-26T15:19:03Z</time>
      </trkpt>
      <trkpt lat="45.42026" lon="4.14485">
        <ele>684</ele>
        <time>2017-07-26T15:21:03Z</time>
      </trkpt>
      <trkpt lat="45.42013" lon="4.14509">
        <ele>685</ele>
        <time>2017-07-26T15:23:03Z</time>
      </trkpt>
      <trkpt lat="45.42" lon="4.14535">
        <ele>685</ele>
        <time>2017-07-26T15:25:03Z</time>
      </trkpt>
      <trkpt lat="45.4198" lon="4.1457">
        <ele>684</ele>
        <time>2017-07-26T15:27:03Z</time>
      </trkpt>
      <trkpt lat="45.41956" lon="4.14615">
        <ele>681</ele>
        <time>2017-07-26T15:29:03Z</time>
      </trkpt>
      <trkpt lat="45.41951" lon="4.14624">
        <ele>680</ele>
        <time>2017-07-26T15:31:03Z</time>
      </trkpt>
      <trkpt lat="45.41931" lon="4.14662">
        <ele>678</ele>
        <time>2017-07-26T15:33:03Z</time>
      </trkpt>
      <trkpt lat="45.41917" lon="4.14693">
        <ele>677</ele>
        <time>2017-07-26T15:35:03Z</time>
      </trkpt>
      <trkpt lat="45.41907" lon="4.14714">
        <ele>676</ele>
        <time>2017-07-26T15:37:03Z</time>
      </trkpt>
      <trkpt lat="45.41893" lon="4.14746">
        <ele>674</ele>
        <time>2017-07-26T15:39:03Z</time>
      </trkpt>
      <trkpt lat="45.41884" lon="4.14768">
        <ele>673</ele>
        <time>2017-07-26T15:41:03Z</time>
      </trkpt>
      <trkpt lat="45.41871" lon="4.148">
        <ele>671</ele>
        <time>2017-07-26T15:43:03Z</time>
      </trkpt>
      <trkpt lat="45.41864" lon="4.1482">
        <ele>669</ele>
        <time>2017-07-26T15:45:03Z</time>
      </trkpt>
      <trkpt lat="45.4186" lon="4.14837">
        <ele>668</ele>
        <time>2017-07-26T15:47:03Z</time>
      </trkpt>
      <trkpt lat="45.41856" lon="4.14854">
        <ele>667</ele>
        <time>2017-07-26T15:49:03Z</time>
      </trkpt>
      <trkpt lat="45.41855" lon="4.14869">
        <ele>666</ele>
        <time>2017-07-26T15:51:03Z</time>
      </trkpt>
      <trkpt lat="45.41852" lon="4.14883">
        <ele>666</ele>
        <time>2017-07-26T15:53:03Z</time>
      </trkpt>
      <trkpt lat="45.4185" lon="4.14887">
        <ele>665</ele>
        <time>2017-07-26T15:55:03Z</time>
      </trkpt>
      <trkpt lat="45.41848" lon="4.14888">
        <ele>665</ele>
        <time>2017-07-26T15:57:03Z</time>
      </trkpt>
      <trkpt lat="45.41845" lon="4.14885">
        <ele>665</ele>
        <time>2017-07-26T15:59:03Z</time>
      </trkpt>
      <trkpt lat="45.4184" lon="4.14875">
        <ele>665</ele>
        <time>2017-07-26T16:01:03Z</time>
      </trkpt>
      <trkpt lat="45.41827" lon="4.14861">
        <ele>665</ele>
        <time>2017-07-26T16:03:03Z</time>
      </trkpt>
      <trkpt lat="45.41817" lon="4.14847">
        <ele>664</ele>
        <time>2017-07-26T16:05:03Z</time>
      </trkpt>
      <trkpt lat="45.41803" lon="4.14831">
        <ele>663</ele>
        <time>2017-07-26T16:07:03Z</time>
      </trkpt>
      <trkpt lat="45.4177" lon="4.14796">
        <ele>661</ele>
        <time>2017-07-26T16:09:03Z</time>
      </trkpt>
      <trkpt lat="45.4176" lon="4.14781">
        <ele>660</ele>
        <time>2017-07-26T16:11:03Z</time>
      </trkpt>
      <trkpt lat="45.41749" lon="4.14762">
        <ele>660</ele>
        <time>2017-07-26T16:13:03Z</time>
      </trkpt>
      <trkpt lat="45.41735" lon="4.14736">
        <ele>659</ele>
        <time>2017-07-26T16:15:03Z</time>
      </trkpt>
      <trkpt lat="45.41726" lon="4.14722">
        <ele>659</ele>
        <time>2017-07-26T16:17:03Z</time>
      </trkpt>
      <trkpt lat="45.41718" lon="4.14707">
        <ele>659</ele>
        <time>2017-07-26T16:19:03Z</time>
      </trkpt>
      <trkpt lat="45.41709" lon="4.14689">
        <ele>659</ele>
        <time>2017-07-26T16:21:03Z</time>
      </trkpt>
      <trkpt lat="45.41697" lon="4.14662">
        <ele>659</ele>
        <time>2017-07-26T16:23:03Z</time>
      </trkpt>
      <trkpt lat="45.41695" lon="4.14655">
        <ele>660</ele>
        <time>2017-07-26T16:25:03Z</time>
      </trkpt>
      <trkpt lat="45.41694" lon="4.14647">
        <ele>660</ele>
        <time>2017-07-26T16:27:03Z</time>
      </trkpt>
      <trkpt lat="45.4169" lon="4.14627">
        <ele>661</ele>
        <time>2017-07-26T16:29:03Z</time>
      </trkpt>
      <trkpt lat="45.41688" lon="4.1461">
        <ele>661</ele>
        <time>2017-07-26T16:31:03Z</time>
      </trkpt>
      <trkpt lat="45.41687" lon="4.146">
        <ele>662</ele>
        <time>2017-07-26T16:33:03Z</time>
      </trkpt>
      <trkpt lat="45.41683" lon="4.14573">
        <ele>663</ele>
        <time>2017-07-26T16:35:03Z</time>
      </trkpt>
      <trkpt lat="45.41681" lon="4.14562">
        <ele>664</ele>
        <time>2017-07-26T16:37:03Z</time>
      </trkpt>
      <trkpt lat="45.4168" lon="4.14555">
        <ele>664</ele>
        <time>2017-07-26T16:39:03Z</time>
      </trkpt>
      <trkpt lat="45.41677" lon="4.14533">
        <ele>666</ele>
        <time>2017-07-26T16:41:03Z</time>
      </trkpt>
      <trkpt lat="45.41676" lon="4.14522">
        <ele>666</ele>
        <time>2017-07-26T16:43:03Z</time>
      </trkpt>
      <trkpt lat="45.41673" lon="4.14496">
        <ele>668</ele>
        <time>2017-07-26T16:45:03Z</time>
      </trkpt>
      <trkpt lat="45.4167" lon="4.14482">
        <ele>669</ele>
        <time>2017-07-26T16:47:03Z</time>
      </trkpt>
      <trkpt lat="45.41668" lon="4.14469">
        <ele>670</ele>
        <time>2017-07-26T16:49:03Z</time>
      </trkpt>
      <trkpt lat="45.41668" lon="4.14458">
        <ele>670</ele>
        <time>2017-07-26T16:51:03Z</time>
      </trkpt>
      <trkpt lat="45.41667" lon="4.14452">
        <ele>671</ele>
        <time>2017-07-26T16:53:03Z</time>
      </trkpt>
      <trkpt lat="45.41661" lon="4.14411">
        <ele>673</ele>
        <time>2017-07-26T16:55:03Z</time>
      </trkpt>
      <trkpt lat="45.41658" lon="4.14393">
        <ele>674</ele>
        <time>2017-07-26T16:57:03Z</time>
      </trkpt>
      <trkpt lat="45.41658" lon="4.14383">
        <ele>675</ele>
        <time>2017-07-26T16:59:03Z</time>
      </trkpt>
      <trkpt lat="45.41657" lon="4.1437">
        <ele>675</ele>
        <time>2017-07-26T17:01:03Z</time>
      </trkpt>
      <trkpt lat="45.41655" lon="4.14347">
        <ele>676</ele>
        <time>2017-07-26T17:03:03Z</time>
      </trkpt>
      <trkpt lat="45.41654" lon="4.14324">
        <ele>678</ele>
        <time>2017-07-26T17:05:03Z</time>
      </trkpt>
      <trkpt lat="45.41655" lon="4.14313">
        <ele>679</ele>
        <time>2017-07-26T17:07:03Z</time>
      </trkpt>
      <trkpt lat="45.41656" lon="4.14283">
        <ele>681</ele>
        <time>2017-07-26T17:09:03Z</time>
      </trkpt>
      <trkpt lat="45.41656" lon="4.14264">
        <ele>682</ele>
        <time>2017-07-26T17:11:03Z</time>
      </trkpt>
      <trkpt lat="45.41654" lon="4.14251">
        <ele>683</ele>
        <time>2017-07-26T17:13:03Z</time>
      </trkpt>
      <trkpt lat="45.41652" lon="4.1424">
        <ele>684</ele>
        <time>2017-07-26T17:15:03Z</time>
      </trkpt>
      <trkpt lat="45.41649" lon="4.14231">
        <ele>684</ele>
        <time>2017-07-26T17:17:03Z</time>
      </trkpt>
      <trkpt lat="45.41643" lon="4.14217">
        <ele>685</ele>
        <time>2017-07-26T17:19:03Z</time>
      </trkpt>
      <trkpt lat="45.41639" lon="4.14202">
        <ele>686</ele>
        <time>2017-07-26T17:21:03Z</time>
      </trkpt>
      <trkpt lat="45.41636" lon="4.14196">
        <ele>687</ele>
        <time>2017-07-26T17:23:03Z</time>
      </trkpt>
      <trkpt lat="45.41632" lon="4.14177">
        <ele>688</ele>
        <time>2017-07-26T17:25:03Z</time>
      </trkpt>
      <trkpt lat="45.41622" lon="4.14141">
        <ele>690</ele>
        <time>2017-07-26T17:27:03Z</time>
      </trkpt>
      <trkpt lat="45.4162" lon="4.14136">
        <ele>690</ele>
        <time>2017-07-26T17:29:03Z</time>
      </trkpt>
      <trkpt lat="45.41618" lon="4.1413">
        <ele>691</ele>
        <time>2017-07-26T17:31:03Z</time>
      </trkpt>
      <trkpt lat="45.41618" lon="4.14126">
        <ele>691</ele>
        <time>2017-07-26T17:33:03Z</time>
      </trkpt>
      <trkpt lat="45.41615" lon="4.14087">
        <ele>692</ele>
        <time>2017-07-26T17:35:03Z</time>
      </trkpt>
      <trkpt lat="45.41618" lon="4.1406">
        <ele>693</ele>
        <time>2017-07-26T17:37:03Z</time>
      </trkpt>
      <trkpt lat="45.41619" lon="4.14031">
        <ele>694</ele>
        <time>2017-07-26T17:39:03Z</time>
      </trkpt>
      <trkpt lat="45.41619" lon="4.14027">
        <ele>694</ele>
        <time>2017-07-26T17:41:03Z</time>
      </trkpt>
      <trkpt lat="45.41618" lon="4.14002">
        <ele>694</ele>
        <time>2017-07-26T17:43:03Z</time>
      </trkpt>
      <trkpt lat="45.41617" lon="4.1399">
        <ele>695</ele>
        <time>2017-07-26T17:45:03Z</time>
      </trkpt>
      <trkpt lat="45.41614" lon="4.13982">
        <ele>695</ele>
        <time>2017-07-26T17:47:03Z</time>
      </trkpt>
      <trkpt lat="45.4161" lon="4.13982">
        <ele>695</ele>
        <time>2017-07-26T17:49:03Z</time>
      </trkpt>
      <trkpt lat="45.41599" lon="4.13987">
        <ele>696</ele>
        <time>2017-07-26T17:51:03Z</time>
      </trkpt>
      <trkpt lat="45.41582" lon="4.13995">
        <ele>696</ele>
        <time>2017-07-26T17:53:03Z</time>
      </trkpt>
      <trkpt lat="45.41534" lon="4.14015">
        <ele>695</ele>
        <time>2017-07-26T17:55:03Z</time>
      </trkpt>
      <trkpt lat="45.41529" lon="4.14016">
        <ele>695</ele>
        <time>2017-07-26T17:57:03Z</time>
      </trkpt>
      <trkpt lat="45.4151" lon="4.14015">
        <ele>695</ele>
        <time>2017-07-26T17:59:03Z</time>
      </trkpt>
      <trkpt lat="45.41479" lon="4.14007">
        <ele>694</ele>
        <time>2017-07-26T18:01:03Z</time>
      </trkpt>
      <trkpt lat="45.41476" lon="4.14006">
        <ele>694</ele>
        <time>2017-07-26T18:03:03Z</time>
      </trkpt>
      <trkpt lat="45.41466" lon="4.14001">
        <ele>694</ele>
        <time>2017-07-26T18:05:03Z</time>
      </trkpt>
      <trkpt lat="45.41462" lon="4.14">
        <ele>694</ele>
        <time>2017-07-26T18:07:03Z</time>
      </trkpt>
      <trkpt lat="45.41458" lon="4.13999">
        <ele>694</ele>
        <time>2017-07-26T18:09:03Z</time>
      </trkpt>
      <trkpt lat="45.41453" lon="4.13999">
        <ele>694</ele>
        <time>2017-07-26T18:11:03Z</time>
      </trkpt>
      <trkpt lat="45.4141" lon="4.13993">
        <ele>693</ele>
        <time>2017-07-26T18:13:03Z</time>
      </trkpt>
      <trkpt lat="45.41405" lon="4.13993">
        <ele>693</ele>
        <time>2017-07-26T18:15:03Z</time>
      </trkpt>
      <trkpt lat="45.41377" lon="4.13999">
        <ele>693</ele>
        <time>2017-07-26T18:17:03Z</time>
      </trkpt>
      <trkpt lat="45.41368" lon="4.14">
        <ele>692</ele>
        <time>2017-07-26T18:19:03Z</time>
      </trkpt>
      <trkpt lat="45.41357" lon="4.14006">
        <ele>692</ele>
        <time>2017-07-26T18:21:03Z</time>
      </trkpt>
      <trkpt lat="45.41349" lon="4.14017">
        <ele>692</ele>
        <time>2017-07-26T18:23:03Z</time>
      </trkpt>
      <trkpt lat="45.41341" lon="4.14027">
        <ele>692</ele>
        <time>2017-07-26T18:25:03Z</time>
      </trkpt>
      <trkpt lat="45.41318" lon="4.14061">
        <ele>693</ele>
        <time>2017-07-26T18:27:03Z</time>
      </trkpt>
      <trkpt lat="45.413" lon="4.14092">
        <ele>695</ele>
        <time>2017-07-26T18:29:03Z</time>
      </trkpt>
      <trkpt lat="45.41288" lon="4.1412">
        <ele>696</ele>
        <time>2017-07-26T18:31:03Z</time>
      </trkpt>
      <trkpt lat="45.41277" lon="4.14134">
        <ele>697</ele>
        <time>2017-07-26T18:33:03Z</time>
      </trkpt>
      <trkpt lat="45.4126" lon="4.14152">
        <ele>698</ele>
        <time>2017-07-26T18:35:03Z</time>
      </trkpt>
      <trkpt lat="45.41254" lon="4.14161">
        <ele>699</ele>
        <time>2017-07-26T18:37:03Z</time>
      </trkpt>
      <trkpt lat="45.41247" lon="4.1417">
        <ele>699</ele>
        <time>2017-07-26T18:39:03Z</time>
      </trkpt>
      <trkpt lat="45.41245" lon="4.14172">
        <ele>699</ele>
        <time>2017-07-26T18:41:03Z</time>
      </trkpt>
      <trkpt lat="45.41209" lon="4.14221">
        <ele>701</ele>
        <time>2017-07-26T18:43:03Z</time>
      </trkpt>
      <trkpt lat="45.41197" lon="4.14241">
        <ele>701</ele>
        <time>2017-07-26T18:45:03Z</time>
      </trkpt>
      <trkpt lat="45.41183" lon="4.14267">
        <ele>702</ele>
        <time>2017-07-26T18:47:03Z</time>
      </trkpt>
      <trkpt lat="45.41169" lon="4.1429">
        <ele>702</ele>
        <time>2017-07-26T18:49:03Z</time>
      </trkpt>
      <trkpt lat="45.41155" lon="4.14317">
        <ele>703</ele>
        <time>2017-07-26T18:51:03Z</time>
      </trkpt>
      <trkpt lat="45.41145" lon="4.14335">
        <ele>703</ele>
        <time>2017-07-26T18:53:03Z</time>
      </trkpt>
      <trkpt lat="45.41127" lon="4.14369">
        <ele>703</ele>
        <time>2017-07-26T18:55:03Z</time>
      </trkpt>
      <trkpt lat="45.41121" lon="4.14378">
        <ele>703</ele>
        <time>2017-07-26T18:57:03Z</time>
      </trkpt>
      <trkpt lat="45.4111" lon="4.14396">
        <ele>703</ele>
        <time>2017-07-26T18:59:03Z</time>
      </trkpt>
      <trkpt lat="45.41108" lon="4.14398">
        <ele>703</ele>
        <time>2017-07-26T19:01:03Z</time>
      </trkpt>
      <trkpt lat="45.41087" lon="4.14419">
        <ele>704</ele>
        <time>2017-07-26T19:03:03Z</time>
      </trkpt>
      <trkpt lat="45.41065" lon="4.14434">
        <ele>704</ele>
        <time>2017-07-26T19:05:03Z</time>
      </trkpt>
      <trkpt lat="45.41053" lon="4.14437">
        <ele>704</ele>
        <time>2017-07-26T19:07:03Z</time>
      </trkpt>
      <trkpt lat="45.41042" lon="4.14438">
        <ele>705</ele>
        <time>2017-07-26T19:09:03Z</time>
      </trkpt>
      <trkpt lat="45.41035" lon="4.14437">
        <ele>705</ele>
        <time>2017-07-26T19:11:03Z</time>
      </trkpt>
      <trkpt lat="45.41014" lon="4.14439">
        <ele>705</ele>
        <time>2017-07-26T19:13:03Z</time>
      </trkpt>
      <trkpt lat="45.40992" lon="4.14448">
        <ele>705</ele>
        <time>2017-07-26T19:15:03Z</time>
      </trkpt>
      <trkpt lat="45.40958" lon="4.1449">
        <ele>703</ele>
        <time>2017-07-26T19:17:03Z</time>
      </trkpt>
      <trkpt lat="45.40934" lon="4.14519">
        <ele>702</ele>
        <time>2017-07-26T19:19:03Z</time>
      </trkpt>
      <trkpt lat="45.40928" lon="4.14527">
        <ele>701</ele>
        <time>2017-07-26T19:21:03Z</time>
      </trkpt>
      <trkpt lat="45.40922" lon="4.14536">
        <ele>700</ele>
        <time>2017-07-26T19:23:03Z</time>
      </trkpt>
      <trkpt lat="45.40913" lon="4.14549">
        <ele>699</ele>
        <time>2017-07-26T19:25:03Z</time>
      </trkpt>
      <trkpt lat="45.40902" lon="4.14568">
        <ele>697</ele>
        <time>2017-07-26T19:27:03Z</time>
      </trkpt>
      <trkpt lat="45.40893" lon="4.14581">
        <ele>695</ele>
        <time>2017-07-26T19:29:03Z</time>
      </trkpt>
      <trkpt lat="45.40886" lon="4.1459">
        <ele>694</ele>
        <time>2017-07-26T19:31:03Z</time>
      </trkpt>
      <trkpt lat="45.40878" lon="4.14594">
        <ele>693</ele>
        <time>2017-07-26T19:33:03Z</time>
      </trkpt>
      <trkpt lat="45.40852" lon="4.14608">
        <ele>689</ele>
        <time>2017-07-26T19:35:03Z</time>
      </trkpt>
      <trkpt lat="45.40836" lon="4.14615">
        <ele>688</ele>
        <time>2017-07-26T19:37:03Z</time>
      </trkpt>
      <trkpt lat="45.40821" lon="4.14623">
        <ele>685</ele>
        <time>2017-07-26T19:39:03Z</time>
      </trkpt>
      <trkpt lat="45.40812" lon="4.14626">
        <ele>684</ele>
        <time>2017-07-26T19:41:03Z</time>
      </trkpt>
      <trkpt lat="45.40783" lon="4.14637">
        <ele>681</ele>
        <time>2017-07-26T19:43:03Z</time>
      </trkpt>
      <trkpt lat="45.40765" lon="4.14645">
        <ele>679</ele>
        <time>2017-07-26T19:45:03Z</time>
      </trkpt>
      <trkpt lat="45.40747" lon="4.14651">
        <ele>678</ele>
        <time>2017-07-26T19:47:03Z</time>
      </trkpt>
      <trkpt lat="45.4073" lon="4.14653">
        <ele>678</ele>
        <time>2017-07-26T19:49:03Z</time>
      </trkpt>
      <trkpt lat="45.40722" lon="4.1465">
        <ele>678</ele>
        <time>2017-07-26T19:51:03Z</time>
      </trkpt>
      <trkpt lat="45.40715" lon="4.14645">
        <ele>678</ele>
        <time>2017-07-26T19:53:03Z</time>
      </trkpt>
      <trkpt lat="45.40702" lon="4.14633">
        <ele>679</ele>
        <time>2017-07-26T19:55:03Z</time>
      </trkpt>
      <trkpt lat="45.40691" lon="4.14623">
        <ele>679</ele>
        <time>2017-07-26T19:57:03Z</time>
      </trkpt>
      <trkpt lat="45.40674" lon="4.14613">
        <ele>678</ele>
        <time>2017-07-26T19:59:03Z</time>
      </trkpt>
      <trkpt lat="45.40656" lon="4.14606">
        <ele>678</ele>
        <time>2017-07-26T20:01:03Z</time>
      </trkpt>
      <trkpt lat="45.40651" lon="4.14603">
        <ele>678</ele>
        <time>2017-07-26T20:03:03Z</time>
      </trkpt>
      <trkpt lat="45.4065" lon="4.14599">
        <ele>678</ele>
        <time>2017-07-26T20:05:03Z</time>
      </trkpt>
      <trkpt lat="45.40649" lon="4.14598">
        <ele>678</ele>
        <time>2017-07-26T20:07:03Z</time>
      </trkpt>
      <trkpt lat="45.40647" lon="4.14599">
        <ele>678</ele>
        <time>2017-07-26T20:09:03Z</time>
      </trkpt>
      <trkpt lat="45.40645" lon="4.14607">
        <ele>678</ele>
        <time>2017-07-26T20:11:03Z</time>
      </trkpt>
      <trkpt lat="45.40642" lon="4.14618">
        <ele>678</ele>
        <time>2017-07-26T20:13:03Z</time>
      </trkpt>
      <trkpt lat="45.40637" lon="4.14632">
        <ele>678</ele>
        <time>2017-07-26T20:15:03Z</time>
      </trkpt>
      <trkpt lat="45.40631" lon="4.14648">
        <ele>678</ele>
        <time>2017-07-26T20:17:03Z</time>
      </trkpt>
      <trkpt lat="45.40615" lon="4.14683">
        <ele>679</ele>
        <time>2017-07-26T20:19:03Z</time>
      </trkpt>
      <trkpt lat="45.40607" lon="4.14692">
        <ele>680</ele>
        <time>2017-07-26T20:21:03Z</time>
      </trkpt>
      <trkpt lat="45.40601" lon="4.14701">
        <ele>681</ele>
        <time>2017-07-26T20:23:03Z</time>
      </trkpt>
      <trkpt lat="45.406" lon="4.14707">
        <ele>681</ele>
        <time>2017-07-26T20:25:03Z</time>
      </trkpt>
      <trkpt lat="45.40601" lon="4.14713">
        <ele>681</ele>
        <time>2017-07-26T20:27:03Z</time>
      </trkpt>
      <trkpt lat="45.40605" lon="4.14729">
        <ele>682</ele>
        <time>2017-07-26T20:29:03Z</time>
      </trkpt>
      <trkpt lat="45.40607" lon="4.14733">
        <ele>682</ele>
        <time>2017-07-26T20:31:03Z</time>
      </trkpt>
      <trkpt lat="45.40609" lon="4.14741">
        <ele>682</ele>
        <time>2017-07-26T20:33:03Z</time>
      </trkpt>
      <trkpt lat="45.40613" lon="4.14749">
        <ele>682</ele>
        <time>2017-07-26T20:35:03Z</time>
      </trkpt>
      <trkpt lat="45.4062" lon="4.14767">
        <ele>683</ele>
        <time>2017-07-26T20:37:03Z</time>
      </trkpt>
      <trkpt lat="45.40624" lon="4.14774">
        <ele>683</ele>
        <time>2017-07-26T20:39:03Z</time>
      </trkpt>
      <trkpt lat="45.40627" lon="4.14782">
        <ele>683</ele>
        <time>2017-07-26T20:41:03Z</time>
      </trkpt>
      <trkpt lat="45.40634" lon="4.14804">
        <ele>684</ele>
        <time>2017-07-26T20:43:03Z</time>
      </trkpt>
      <trkpt lat="45.40636" lon="4.14812">
        <ele>684</ele>
        <time>2017-07-26T20:45:03Z</time>
      </trkpt>
      <trkpt lat="45.40638" lon="4.14831">
        <ele>685</ele>
        <time>2017-07-26T20:47:03Z</time>
      </trkpt>
      <trkpt lat="45.40644" lon="4.14857">
        <ele>685</ele>
        <time>2017-07-26T20:49:03Z</time>
      </trkpt>
      <trkpt lat="45.40655" lon="4.14893">
        <ele>686</ele>
        <time>2017-07-26T20:51:03Z</time>
      </trkpt>
      <trkpt lat="45.40663" lon="4.1492">
        <ele>687</ele>
        <time>2017-07-26T20:53:03Z</time>
      </trkpt>
      <trkpt lat="45.40672" lon="4.14942">
        <ele>688</ele>
        <time>2017-07-26T20:55:03Z</time>
      </trkpt>
      <trkpt lat="45.40682" lon="4.14946">
        <ele>688</ele>
        <time>2017-07-26T20:57:03Z</time>
      </trkpt>
      <trkpt lat="45.40687" lon="4.14948">
        <ele>688</ele>
        <time>2017-07-26T20:59:03Z</time>
      </trkpt>
      <trkpt lat="45.40701" lon="4.14959">
        <ele>689</ele>
        <time>2017-07-26T21:01:03Z</time>
      </trkpt>
      <trkpt lat="45.40718" lon="4.14971">
        <ele>689</ele>
        <time>2017-07-26T21:03:03Z</time>
      </trkpt>
      <trkpt lat="45.40724" lon="4.1498">
        <ele>689</ele>
        <time>2017-07-26T21:05:03Z</time>
      </trkpt>
      <trkpt lat="45.40725" lon="4.14987">
        <ele>690</ele>
        <time>2017-07-26T21:07:03Z</time>
      </trkpt>
      <trkpt lat="45.40721" lon="4.15008">
        <ele>690</ele>
        <time>2017-07-26T21:09:03Z</time>
      </trkpt>
      <trkpt lat="45.40722" lon="4.15038">
        <ele>691</ele>
        <time>2017-07-26T21:11:03Z</time>
      </trkpt>
      <trkpt lat="45.40724" lon="4.15067">
        <ele>692</ele>
        <time>2017-07-26T21:13:03Z</time>
      </trkpt>
      <trkpt lat="45.40728" lon="4.15154">
        <ele>694</ele>
        <time>2017-07-26T21:15:03Z</time>
      </trkpt>
      <trkpt lat="45.4073" lon="4.15189">
        <ele>695</ele>
        <time>2017-07-26T21:17:03Z</time>
      </trkpt>
      <trkpt lat="45.40735" lon="4.15214">
        <ele>695</ele>
        <time>2017-07-26T21:19:03Z</time>
      </trkpt>
      <trkpt lat="45.40739" lon="4.15217">
        <ele>695</ele>
        <time>2017-07-26T21:21:03Z</time>
      </trkpt>
      <trkpt lat="45.40742" lon="4.15216">
        <ele>695</ele>
        <time>2017-07-26T21:23:03Z</time>
      </trkpt>
      <trkpt lat="45.40747" lon="4.15215">
        <ele>694</ele>
        <time>2017-07-26T21:25:03Z</time>
      </trkpt>
      <trkpt lat="45.40769" lon="4.15217">
        <ele>692</ele>
        <time>2017-07-26T21:27:03Z</time>
      </trkpt>
      <trkpt lat="45.40786" lon="4.15219">
        <ele>691</ele>
        <time>2017-07-26T21:29:03Z</time>
      </trkpt>
      <trkpt lat="45.408" lon="4.15223">
        <ele>690</ele>
        <time>2017-07-26T21:31:03Z</time>
      </trkpt>
      <trkpt lat="45.40812" lon="4.15226">
        <ele>689</ele>
        <time>2017-07-26T21:33:03Z</time>
      </trkpt>
      <trkpt lat="45.40818" lon="4.15225">
        <ele>688</ele>
        <time>2017-07-26T21:35:03Z</time>
      </trkpt>
      <trkpt lat="45.4083" lon="4.15225">
        <ele>687</ele>
        <time>2017-07-26T21:37:03Z</time>
      </trkpt>
      <trkpt lat="45.40838" lon="4.15224">
        <ele>686</ele>
        <time>2017-07-26T21:39:03Z</time>
      </trkpt>
      <trkpt lat="45.40845" lon="4.15223">
        <ele>686</ele>
        <time>2017-07-26T21:41:03Z</time>
      </trkpt>
      <trkpt lat="45.40861" lon="4.15222">
        <ele>684</ele>
        <time>2017-07-26T21:43:03Z</time>
      </trkpt>
      <trkpt lat="45.40877" lon="4.15219">
        <ele>682</ele>
        <time>2017-07-26T21:45:03Z</time>
      </trkpt>
      <trkpt lat="45.40893" lon="4.15219">
        <ele>681</ele>
        <time>2017-07-26T21:47:03Z</time>
      </trkpt>
      <trkpt lat="45.40909" lon="4.15221">
        <ele>679</ele>
        <time>2017-07-26T21:49:03Z</time>
      </trkpt>
      <trkpt lat="45.40917" lon="4.15225">
        <ele>679</ele>
        <time>2017-07-26T21:51:03Z</time>
      </trkpt>
      <trkpt lat="45.40952" lon="4.15247">
        <ele>678</ele>
        <time>2017-07-26T21:53:03Z</time>
      </trkpt>
      <trkpt lat="45.40965" lon="4.15253">
        <ele>678</ele>
        <time>2017-07-26T21:55:03Z</time>
      </trkpt>
      <trkpt lat="45.4098" lon="4.15258">
        <ele>678</ele>
        <time>2017-07-26T21:57:03Z</time>
      </trkpt>
      <trkpt lat="45.41007" lon="4.15258">
        <ele>676</ele>
        <time>2017-07-26T21:59:03Z</time>
      </trkpt>
      <trkpt lat="45.41011" lon="4.15259">
        <ele>676</ele>
        <time>2017-07-26T22:01:03Z</time>
      </trkpt>
      <trkpt lat="45.41033" lon="4.1526">
        <ele>675</ele>
        <time>2017-07-26T22:03:03Z</time>
      </trkpt>
      <trkpt lat="45.41058" lon="4.15266">
        <ele>674</ele>
        <time>2017-07-26T22:05:03Z</time>
      </trkpt>
      <trkpt lat="45.41087" lon="4.15279">
        <ele>673</ele>
        <time>2017-07-26T22:07:03Z</time>
      </trkpt>
      <trkpt lat="45.41091" lon="4.15283">
        <ele>673</ele>
        <time>2017-07-26T22:09:03Z</time>
      </trkpt>
      <trkpt lat="45.41107" lon="4.15298">
        <ele>672</ele>
        <time>2017-07-26T22:11:03Z</time>
      </trkpt>
      <trkpt lat="45.41116" lon="4.15307">
        <ele>672</ele>
        <time>2017-07-26T22:13:03Z</time>
      </trkpt>
      <trkpt lat="45.4112" lon="4.15312">
        <ele>671</ele>
        <time>2017-07-26T22:15:03Z</time>
      </trkpt>
      <trkpt lat="45.41126" lon="4.15322">
        <ele>671</ele>
        <time>2017-07-26T22:17:03Z</time>
      </trkpt>
      <trkpt lat="45.41138" lon="4.15337">
        <ele>670</ele>
        <time>2017-07-26T22:19:03Z</time>
      </trkpt>
      <trkpt lat="45.4115" lon="4.15353">
        <ele>669</ele>
        <time>2017-07-26T22:21:03Z</time>
      </trkpt>
      <trkpt lat="45.41156" lon="4.15358">
        <ele>668</ele>
        <time>2017-07-26T22:23:03Z</time>
      </trkpt>
      <trkpt lat="45.41167" lon="4.15371">
        <ele>667</ele>
        <time>2017-07-26T22:25:03Z</time>
      </trkpt>
      <trkpt lat="45.41183" lon="4.15383">
        <ele>665</ele>
        <time>2017-07-26T22:27:03Z</time>
      </trkpt>
      <trkpt lat="45.41188" lon="4.15389">
        <ele>665</ele>
        <time>2017-07-26T22:29:03Z</time>
      </trkpt>
      <trkpt lat="45.41193" lon="4.15396">
        <ele>664</ele>
        <time>2017-07-26T22:31:03Z</time>
      </trkpt>
      <trkpt lat="45.41198" lon="4.15404">
        <ele>663</ele>
        <time>2017-07-26T22:33:03Z</time>
      </trkpt>
      <trkpt lat="45.41202" lon="4.15413">
        <ele>663</ele>
        <time>2017-07-26T22:35:03Z</time>
      </trkpt>
      <trkpt lat="45.41206" lon="4.15423">
        <ele>663</ele>
        <time>2017-07-26T22:37:03Z</time>
      </trkpt>
      <trkpt lat="45.41214" lon="4.15453">
        <ele>663</ele>
        <time>2017-07-26T22:39:03Z</time>
      </trkpt>
      <trkpt lat="45.41217" lon="4.15462">
        <ele>664</ele>
        <time>2017-07-26T22:41:03Z</time>
      </trkpt>
      <trkpt lat="45.41221" lon="4.15467">
        <ele>663</ele>
        <time>2017-07-26T22:43:03Z</time>
      </trkpt>
      <trkpt lat="45.41229" lon="4.15469">
        <ele>662</ele>
        <time>2017-07-26T22:45:03Z</time>
      </trkpt>
      <trkpt lat="45.41253" lon="4.15468">
        <ele>659</ele>
        <time>2017-07-26T22:47:03Z</time>
      </trkpt>
      <trkpt lat="45.41281" lon="4.15468">
        <ele>658</ele>
        <time>2017-07-26T22:49:03Z</time>
      </trkpt>
      <trkpt lat="45.41288" lon="4.15467">
        <ele>657</ele>
        <time>2017-07-26T22:51:03Z</time>
      </trkpt>
      <trkpt lat="45.41302" lon="4.1547">
        <ele>656</ele>
        <time>2017-07-26T22:53:03Z</time>
      </trkpt>
      <trkpt lat="45.41309" lon="4.15472">
        <ele>656</ele>
        <time>2017-07-26T22:55:03Z</time>
      </trkpt>
      <trkpt lat="45.41314" lon="4.1547">
        <ele>656</ele>
        <time>2017-07-26T22:57:03Z</time>
      </trkpt>
      <trkpt lat="45.41319" lon="4.15465">
        <ele>655</ele>
        <time>2017-07-26T22:59:03Z</time>
      </trkpt>
      <trkpt lat="45.41325" lon="4.15455">
        <ele>656</ele>
        <time>2017-07-26T23:01:03Z</time>
      </trkpt>
      <trkpt lat="45.41329" lon="4.15453">
        <ele>655</ele>
        <time>2017-07-26T23:03:03Z</time>
      </trkpt>
      <trkpt lat="45.4134" lon="4.15455">
        <ele>655</ele>
        <time>2017-07-26T23:05:03Z</time>
      </trkpt>
      <trkpt lat="45.41348" lon="4.15458">
        <ele>656</ele>
        <time>2017-07-26T23:07:03Z</time>
      </trkpt>
      <trkpt lat="45.41356" lon="4.15459">
        <ele>656</ele>
        <time>2017-07-26T23:09:03Z</time>
      </trkpt>
      <trkpt lat="45.41388" lon="4.15466">
        <ele>656</ele>
        <time>2017-07-26T23:11:03Z</time>
      </trkpt>
      <trkpt lat="45.414" lon="4.15467">
        <ele>656</ele>
        <time>2017-07-26T23:13:03Z</time>
      </trkpt>
      <trkpt lat="45.41406" lon="4.15467">
        <ele>657</ele>
        <time>2017-07-26T23:15:03Z</time>
      </trkpt>
      <trkpt lat="45.41415" lon="4.15466">
        <ele>657</ele>
        <time>2017-07-26T23:17:03Z</time>
      </trkpt>
      <trkpt lat="45.41421" lon="4.15465">
        <ele>657</ele>
        <time>2017-07-26T23:19:03Z</time>
      </trkpt>
      <trkpt lat="45.41427" lon="4.15462">
        <ele>657</ele>
        <time>2017-07-26T23:21:03Z</time>
      </trkpt>
      <trkpt lat="45.4145" lon="4.15452">
        <ele>658</ele>
        <time>2017-07-26T23:23:03Z</time>
      </trkpt>
      <trkpt lat="45.41481" lon="4.15449">
        <ele>657</ele>
        <time>2017-07-26T23:25:03Z</time>
      </trkpt>
      <trkpt lat="45.41506" lon="4.15451">
        <ele>656</ele>
        <time>2017-07-26T23:27:03Z</time>
      </trkpt>
      <trkpt lat="45.41532" lon="4.15457">
        <ele>655</ele>
        <time>2017-07-26T23:29:03Z</time>
      </trkpt>
      <trkpt lat="45.41554" lon="4.15464">
        <ele>654</ele>
        <time>2017-07-26T23:31:03Z</time>
      </trkpt>
      <trkpt lat="45.41579" lon="4.15473">
        <ele>653</ele>
        <time>2017-07-26T23:33:03Z</time>
      </trkpt>
      <trkpt lat="45.41607" lon="4.15487">
        <ele>651</ele>
        <time>2017-07-26T23:35:03Z</time>
      </trkpt>
      <trkpt lat="45.41629" lon="4.15498">
        <ele>650</ele>
        <time>2017-07-26T23:37:03Z</time>
      </trkpt>
      <trkpt lat="45.41633" lon="4.15498">
        <ele>650</ele>
        <time>2017-07-26T23:39:03Z</time>
      </trkpt>
      <trkpt lat="45.4167" lon="4.15498">
        <ele>649</ele>
        <time>2017-07-26T23:41:03Z</time>
      </trkpt>
      <trkpt lat="45.41695" lon="4.155">
        <ele>648</ele>
        <time>2017-07-26T23:43:03Z</time>
      </trkpt>
      <trkpt lat="45.41708" lon="4.15497">
        <ele>647</ele>
        <time>2017-07-26T23:45:03Z</time>
      </trkpt>
      <trkpt lat="45.41747" lon="4.15483">
        <ele>645</ele>
        <time>2017-07-26T23:47:03Z</time>
      </trkpt>
      <trkpt lat="45.41761" lon="4.1548">
        <ele>645</ele>
        <time>2017-07-26T23:49:03Z</time>
      </trkpt>
      <trkpt lat="45.41778" lon="4.15478">
        <ele>646</ele>
        <time>2017-07-26T23:51:03Z</time>
      </trkpt>
      <trkpt lat="45.41839" lon="4.15475">
        <ele>649</ele>
        <time>2017-07-26T23:53:03Z</time>
      </trkpt>
      <trkpt lat="45.41851" lon="4.15474">
        <ele>650</ele>
        <time>2017-07-26T23:55:03Z</time>
      </trkpt>
      <trkpt lat="45.41864" lon="4.15471">
        <ele>651</ele>
        <time>2017-07-26T23:57:03Z</time>
      </trkpt>
      <trkpt lat="45.41891" lon="4.15461">
        <ele>653</ele>
        <time>2017-07-26T23:59:03Z</time>
      </trkpt>
      <trkpt lat="45.41908" lon="4.15454">
        <ele>654</ele>
        <time>2017-07-27T00:01:03Z</time>
      </trkpt>
      <trkpt lat="45.41916" lon="4.15452">
        <ele>655</ele>
        <time>2017-07-27T00:03:03Z</time>
      </trkpt>
      <trkpt lat="45.41928" lon="4.1545">
        <ele>656</ele>
        <time>2017-07-27T00:05:03Z</time>
      </trkpt>
      <trkpt lat="45.41945" lon="4.1545">
        <ele>658</ele>
        <time>2017-07-27T00:07:03Z</time>
      </trkpt>
      <trkpt lat="45.41975" lon="4.15457">
        <ele>660</ele>
        <time>2017-07-27T00:09:03Z</time>
      </trkpt>
      <trkpt lat="45.41995" lon="4.15458">
        <ele>662</ele>
        <time>2017-07-27T00:11:03Z</time>
      </trkpt>
      <trkpt lat="45.41999" lon="4.15457">
        <ele>662</ele>
        <time>2017-07-27T00:13:03Z</time>
      </trkpt>
      <trkpt lat="45.42017" lon="4.15452">
        <ele>664</ele>
        <time>2017-07-27T00:15:03Z</time>
      </trkpt>
      <trkpt lat="45.4203" lon="4.15447">
        <ele>665</ele>
        <time>2017-07-27T00:17:03Z</time>
      </trkpt>
      <trkpt lat="45.4204" lon="4.15442">
        <ele>665</ele>
        <time>2017-07-27T00:19:03Z</time>
      </trkpt>
      <trkpt lat="45.42043" lon="4.15439">
        <ele>666</ele>
        <time>2017-07-27T00:21:03Z</time>
      </trkpt>
      <trkpt lat="45.42045" lon="4.15436">
        <ele>666</ele>
        <time>2017-07-27T00:23:03Z</time>
      </trkpt>
      <trkpt lat="45.42047" lon="4.15431">
        <ele>666</ele>
        <time>2017-07-27T00:25:03Z</time>
      </trkpt>
      <trkpt lat="45.42049" lon="4.15423">
        <ele>666</ele>
        <time>2017-07-27T00:27:03Z</time>
      </trkpt>
      <trkpt lat="45.42051" lon="4.15413">
        <ele>666</ele>
        <time>2017-07-27T00:29:03Z</time>
      </trkpt>
      <trkpt lat="45.42054" lon="4.15393">
        <ele>667</ele>
        <time>2017-07-27T00:31:03Z</time>
      </trkpt>
      <trkpt lat="45.42057" lon="4.15377">
        <ele>667</ele>
        <time>2017-07-27T00:33:03Z</time>
      </trkpt>
      <trkpt lat="45.42058" lon="4.15372">
        <ele>668</ele>
        <time>2017-07-27T00:35:03Z</time>
      </trkpt>
      <trkpt lat="45.42062" lon="4.15365">
        <ele>668</ele>
        <time>2017-07-27T00:37:03Z</time>
      </trkpt>
      <trkpt lat="45.42066" lon="4.15359">
        <ele>668</ele>
        <time>2017-07-27T00:39:03Z</time>
      </trkpt>
      <trkpt lat="45.4207" lon="4.15353">
        <ele>669</ele>
        <time>2017-07-27T00:41:03Z</time>
      </trkpt>
      <trkpt lat="45.42079" lon="4.15336">
        <ele>670</ele>
        <time>2017-07-27T00:43:03Z</time>
      </trkpt>
      <trkpt lat="45.42086" lon="4.15329">
        <ele>670</ele>
        <time>2017-07-27T00:45:03Z</time>
      </trkpt>
      <trkpt lat="45.42088" lon="4.15328">
        <ele>671</ele>
        <time>2017-07-27T00:47:03Z</time>
      </trkpt>
      <trkpt lat="45.42095" lon="4.15338">
        <ele>671</ele>
        <time>2017-07-27T00:49:03Z</time>
      </trkpt>
      <trkpt lat="45.42102" lon="4.15352">
        <ele>671</ele>
        <time>2017-07-27T00:51:03Z</time>
      </trkpt>
      <trkpt lat="45.4211" lon="4.1537">
        <ele>671</ele>
        <time>2017-07-27T00:53:03Z</time>
      </trkpt>
      <trkpt lat="45.42119" lon="4.15397">
        <ele>671</ele>
        <time>2017-07-27T00:55:03Z</time>
      </trkpt>
      <trkpt lat="45.42124" lon="4.15427">
        <ele>671</ele>
        <time>2017-07-27T00:57:03Z</time>
      </trkpt>
      <trkpt lat="45.42128" lon="4.1547">
        <ele>670</ele>
        <time>2017-07-27T00:59:03Z</time>
      </trkpt>
      <trkpt lat="45.42136" lon="4.15506">
        <ele>670</ele>
        <time>2017-07-27T01:01:03Z</time>
      </trkpt>
      <trkpt lat="45.42139" lon="4.15517">
        <ele>670</ele>
        <time>2017-07-27T01:03:03Z</time>
      </trkpt>
      <trkpt lat="45.42149" lon="4.15539">
        <ele>669</ele>
        <time>2017-07-27T01:05:03Z</time>
      </trkpt>
      <trkpt lat="45.42158" lon="4.15564">
        <ele>668</ele>
        <time>2017-07-27T01:07:03Z</time>
      </trkpt>
      <trkpt lat="45.4216" lon="4.15579">
        <ele>667</ele>
        <time>2017-07-27T01:09:03Z</time>
      </trkpt>
      <trkpt lat="45.42167" lon="4.15613">
        <ele>666</ele>
        <time>2017-07-27T01:11:03Z</time>
      </trkpt>
      <trkpt lat="45.42172" lon="4.15631">
        <ele>666</ele>
        <time>2017-07-27T01:13:03Z</time>
      </trkpt>
      <trkpt lat="45.42181" lon="4.15657">
        <ele>666</ele>
        <time>2017-07-27T01:15:03Z</time>
      </trkpt>
      <trkpt lat="45.42184" lon="4.15667">
        <ele>666</ele>
        <time>2017-07-27T01:17:03Z</time>
      </trkpt>
      <trkpt lat="45.42185" lon="4.15679">
        <ele>666</ele>
        <time>2017-07-27T01:19:03Z</time>
      </trkpt>
      <trkpt lat="45.42183" lon="4.15715">
        <ele>664</ele>
        <time>2017-07-27T01:21:03Z</time>
      </trkpt>
      <trkpt lat="45.42184" lon="4.15726">
        <ele>663</ele>
        <time>2017-07-27T01:23:03Z</time>
      </trkpt>
      <trkpt lat="45.42187" lon="4.15759">
        <ele>662</ele>
        <time>2017-07-27T01:25:03Z</time>
      </trkpt>
      <trkpt lat="45.42188" lon="4.15779">
        <ele>661</ele>
        <time>2017-07-27T01:27:03Z</time>
      </trkpt>
      <trkpt lat="45.4219" lon="4.15799">
        <ele>661</ele>
        <time>2017-07-27T01:29:03Z</time>
      </trkpt>
      <trkpt lat="45.42191" lon="4.15808">
        <ele>660</ele>
        <time>2017-07-27T01:31:03Z</time>
      </trkpt>
      <trkpt lat="45.42191" lon="4.15826">
        <ele>659</ele>
        <time>2017-07-27T01:33:03Z</time>
      </trkpt>
      <trkpt lat="45.42189" lon="4.15848">
        <ele>658</ele>
        <time>2017-07-27T01:35:03Z</time>
      </trkpt>
      <trkpt lat="45.42189" lon="4.15872">
        <ele>657</ele>
        <time>2017-07-27T01:37:03Z</time>
      </trkpt>
      <trkpt lat="45.42189" lon="4.15884">
        <ele>657</ele>
        <time>2017-07-27T01:39:03Z</time>
      </trkpt>
      <trkpt lat="45.4219" lon="4.15896">
        <ele>657</ele>
        <time>2017-07-27T01:41:03Z</time>
      </trkpt>
      <trkpt lat="45.42191" lon="4.15907">
        <ele>656</ele>
        <time>2017-07-27T01:43:03Z</time>
      </trkpt>
      <trkpt lat="45.42193" lon="4.15941">
        <ele>656</ele>
        <time>2017-07-27T01:45:03Z</time>
      </trkpt>
      <trkpt lat="45.42194" lon="4.15962">
        <ele>657</ele>
        <time>2017-07-27T01:47:03Z</time>
      </trkpt>
      <trkpt lat="45.42192" lon="4.15971">
        <ele>657</ele>
        <time>2017-07-27T01:49:03Z</time>
      </trkpt>
      <trkpt lat="45.42185" lon="4.15996">
        <ele>656</ele>
        <time>2017-07-27T01:51:03Z</time>
      </trkpt>
      <trkpt lat="45.42181" lon="4.16003">
        <ele>656</ele>
        <time>2017-07-27T01:53:03Z</time>
      </trkpt>
      <trkpt lat="45.42177" lon="4.16009">
        <ele>656</ele>
        <time>2017-07-27T01:55:03Z</time>
      </trkpt>
      <trkpt lat="45.42173" lon="4.16015">
        <ele>655</ele>
        <time>2017-07-27T01:57:03Z</time>
      </trkpt>
      <trkpt lat="45.42164" lon="4.16026">
        <ele>655</ele>
        <time>2017-07-27T01:59:03Z</time>
      </trkpt>
      <trkpt lat="45.42157" lon="4.16035">
        <ele>654</ele>
        <time>2017-07-27T02:01:03Z</time>
      </trkpt>
      <trkpt lat="45.42155" lon="4.16044">
        <ele>654</ele>
        <time>2017-07-27T02:03:03Z</time>
      </trkpt>
      <trkpt lat="45.42156" lon="4.16061">
        <ele>655</ele>
        <time>2017-07-27T02:05:03Z</time>
      </trkpt>
      <trkpt lat="45.4216" lon="4.16072">
        <ele>656</ele>
        <time>2017-07-27T02:07:03Z</time>
      </trkpt>
      <trkpt lat="45.42168" lon="4.16081">
        <ele>657</ele>
        <time>2017-07-27T02:09:03Z</time>
      </trkpt>
      <trkpt lat="45.42176" lon="4.16091">
        <ele>658</ele>
        <time>2017-07-27T02:11:03Z</time>
      </trkpt>
      <trkpt lat="45.42178" lon="4.16093">
        <ele>658</ele>
        <time>2017-07-27T02:13:03Z</time>
      </trkpt>
      <trkpt lat="45.42186" lon="4.161">
        <ele>659</ele>
        <time>2017-07-27T02:15:03Z</time>
      </trkpt>
      <trkpt lat="45.42188" lon="4.16101">
        <ele>659</ele>
        <time>2017-07-27T02:17:03Z</time>
      </trkpt>
      <trkpt lat="45.42198" lon="4.16107">
        <ele>660</ele>
        <time>2017-07-27T02:19:03Z</time>
      </trkpt>
      <trkpt lat="45.42206" lon="4.1611">
        <ele>661</ele>
        <time>2017-07-27T02:21:03Z</time>
      </trkpt>
      <trkpt lat="45.4221" lon="4.16112">
        <ele>661</ele>
        <time>2017-07-27T02:23:03Z</time>
      </trkpt>
      <trkpt lat="45.42221" lon="4.1612">
        <ele>662</ele>
        <time>2017-07-27T02:25:03Z</time>
      </trkpt>
      <trkpt lat="45.42233" lon="4.1613">
        <ele>663</ele>
        <time>2017-07-27T02:27:03Z</time>
      </trkpt>
      <trkpt lat="45.42239" lon="4.16138">
        <ele>664</ele>
        <time>2017-07-27T02:29:03Z</time>
      </trkpt>
      <trkpt lat="45.42258" lon="4.16159">
        <ele>664</ele>
        <time>2017-07-27T02:31:03Z</time>
      </trkpt>
      <trkpt lat="45.42265" lon="4.1617">
        <ele>664</ele>
        <time>2017-07-27T02:33:03Z</time>
      </trkpt>
      <trkpt lat="45.42274" lon="4.1619">
        <ele>663</ele>
        <time>2017-07-27T02:35:03Z</time>
      </trkpt>
      <trkpt lat="45.42286" lon="4.16214">
        <ele>662</ele>
        <time>2017-07-27T02:37:03Z</time>
      </trkpt>
      <trkpt lat="45.42292" lon="4.16223">
        <ele>661</ele>
        <time>2017-07-27T02:39:03Z</time>
      </trkpt>
      <trkpt lat="45.42307" lon="4.1624">
        <ele>661</ele>
        <time>2017-07-27T02:41:03Z</time>
      </trkpt>
      <trkpt lat="45.42314" lon="4.16249">
        <ele>661</ele>
        <time>2017-07-27T02:43:03Z</time>
      </trkpt>
      <trkpt lat="45.42323" lon="4.16264">
        <ele>661</ele>
        <time>2017-07-27T02:45:03Z</time>
      </trkpt>
      <trkpt lat="45.4234" lon="4.16292">
        <ele>661</ele>
        <time>2017-07-27T02:47:03Z</time>
      </trkpt>
      <trkpt lat="45.42352" lon="4.1632">
        <ele>661</ele>
        <time>2017-07-27T02:49:03Z</time>
      </trkpt>
      <trkpt lat="45.42356" lon="4.1633">
        <ele>661</ele>
        <time>2017-07-27T02:51:03Z</time>
      </trkpt>
      <trkpt lat="45.42363" lon="4.16335">
        <ele>661</ele>
        <time>2017-07-27T02:53:03Z</time>
      </trkpt>
      <trkpt lat="45.42378" lon="4.16343">
        <ele>661</ele>
        <time>2017-07-27T02:55:03Z</time>
      </trkpt>
      <trkpt lat="45.42388" lon="4.16339">
        <ele>662</ele>
        <time>2017-07-27T02:57:03Z</time>
      </trkpt>
      <trkpt lat="45.424" lon="4.16333">
        <ele>663</ele>
        <time>2017-07-27T02:59:03Z</time>
      </trkpt>
      <trkpt lat="45.42408" lon="4.16329">
        <ele>664</ele>
        <time>2017-07-27T03:01:03Z</time>
      </trkpt>
      <trkpt lat="45.42422" lon="4.16322">
        <ele>665</ele>
        <time>2017-07-27T03:03:03Z</time>
      </trkpt>
      <trkpt lat="45.42428" lon="4.16321">
        <ele>665</ele>
        <time>2017-07-27T03:05:03Z</time>
      </trkpt>
      <trkpt lat="45.42434" lon="4.16319">
        <ele>666</ele>
        <time>2017-07-27T03:07:03Z</time>
      </trkpt>
      <trkpt lat="45.4244" lon="4.16316">
        <ele>666</ele>
        <time>2017-07-27T03:09:03Z</time>
      </trkpt>
      <trkpt lat="45.42446" lon="4.16313">
        <ele>667</ele>
        <time>2017-07-27T03:11:03Z</time>
      </trkpt>
      <trkpt lat="45.42451" lon="4.16308">
        <ele>667</ele>
        <time>2017-07-27T03:13:03Z</time>
      </trkpt>
      <trkpt lat="45.42455" lon="4.16304">
        <ele>668</ele>
        <time>2017-07-27T03:15:03Z</time>
      </trkpt>
      <trkpt lat="45.42456" lon="4.16301">
        <ele>668</ele>
        <time>2017-07-27T03:17:03Z</time>
      </trkpt>
      <trkpt lat="45.42463" lon="4.16291">
        <ele>669</ele>
        <time>2017-07-27T03:19:03Z</time>
      </trkpt>
      <trkpt lat="45.42471" lon="4.16283">
        <ele>669</ele>
        <time>2017-07-27T03:21:03Z</time>
      </trkpt>
      <trkpt lat="45.42487" lon="4.16268">
        <ele>670</ele>
        <time>2017-07-27T03:23:03Z</time>
      </trkpt>
      <trkpt lat="45.42491" lon="4.16263">
        <ele>671</ele>
        <time>2017-07-27T03:25:03Z</time>
      </trkpt>
      <trkpt lat="45.42502" lon="4.16247">
        <ele>671</ele>
        <time>2017-07-27T03:27:03Z</time>
      </trkpt>
      <trkpt lat="45.42516" lon="4.1623">
        <ele>672</ele>
        <time>2017-07-27T03:29:03Z</time>
      </trkpt>
      <trkpt lat="45.42531" lon="4.16214">
        <ele>673</ele>
        <time>2017-07-27T03:31:03Z</time>
      </trkpt>
      <trkpt lat="45.42537" lon="4.16206">
        <ele>673</ele>
        <time>2017-07-27T03:33:03Z</time>
      </trkpt>
      <trkpt lat="45.42543" lon="4.16199">
        <ele>674</ele>
        <time>2017-07-27T03:35:03Z</time>
      </trkpt>
      <trkpt lat="45.4256" lon="4.16178">
        <ele>674</ele>
        <time>2017-07-27T03:37:03Z</time>
      </trkpt>
      <trkpt lat="45.42577" lon="4.16159">
        <ele>675</ele>
        <time>2017-07-27T03:39:03Z</time>
      </trkpt>
      <trkpt lat="45.42602" lon="4.16132">
        <ele>675</ele>
        <time>2017-07-27T03:41:03Z</time>
      </trkpt>
      <trkpt lat="45.42618" lon="4.1611">
        <ele>674</ele>
        <time>2017-07-27T03:43:03Z</time>
      </trkpt>
      <trkpt lat="45.42634" lon="4.16086">
        <ele>673</ele>
        <time>2017-07-27T03:45:03Z</time>
      </trkpt>
      <trkpt lat="45.42646" lon="4.16068">
        <ele>673</ele>
        <time>2017-07-27T03:47:03Z</time>
      </trkpt>
      <trkpt lat="45.42652" lon="4.16059">
        <ele>672</ele>
        <time>2017-07-27T03:49:03Z</time>
      </trkpt>
      <trkpt lat="45.42654" lon="4.16059">
        <ele>672</ele>
        <time>2017-07-27T03:51:03Z</time>
      </trkpt>
      <trkpt lat="45.42659" lon="4.16062">
        <ele>672</ele>
        <time>2017-07-27T03:53:03Z</time>
      </trkpt>
      <trkpt lat="45.42661" lon="4.16062">
        <ele>672</ele>
        <time>2017-07-27T03:55:03Z</time>
      </trkpt>
      <trkpt lat="45.42697" lon="4.16075">
        <ele>672</ele>
        <time>2017-07-27T03:57:03Z</time>
      </trkpt>
      <trkpt lat="45.42726" lon="4.16085">
        <ele>672</ele>
        <time>2017-07-27T03:59:03Z</time>
      </trkpt>
      <trkpt lat="45.42759" lon="4.161">
        <ele>673</ele>
        <time>2017-07-27T04:01:03Z</time>
      </trkpt>
      <trkpt lat="45.42784" lon="4.16116">
        <ele>673</ele>
        <time>2017-07-27T04:03:03Z</time>
      </trkpt>
      <trkpt lat="45.42847" lon="4.16158">
        <ele>671</ele>
        <time>2017-07-27T04:05:03Z</time>
      </trkpt>
      <trkpt lat="45.42875" lon="4.16175">
        <ele>671</ele>
        <time>2017-07-27T04:07:03Z</time>
      </trkpt>
      <trkpt lat="45.42897" lon="4.16179">
        <ele>671</ele>
        <time>2017-07-27T04:09:03Z</time>
      </trkpt>
      <trkpt lat="45.42905" lon="4.16178">
        <ele>670</ele>
        <time>2017-07-27T04:11:03Z</time>
      </trkpt>
      <trkpt lat="45.42938" lon="4.16172">
        <ele>670</ele>
        <time>2017-07-27T04:13:03Z</time>
      </trkpt>
      <trkpt lat="45.42959" lon="4.16172">
        <ele>670</ele>
        <time>2017-07-27T04:15:03Z</time>
      </trkpt>
      <trkpt lat="45.42963" lon="4.16173">
        <ele>670</ele>
        <time>2017-07-27T04:17:03Z</time>
      </trkpt>
      <trkpt lat="45.42974" lon="4.16179">
        <ele>670</ele>
        <time>2017-07-27T04:19:03Z</time>
      </trkpt>
      <trkpt lat="45.42985" lon="4.16187">
        <ele>669</ele>
        <time>2017-07-27T04:21:03Z</time>
      </trkpt>
      <trkpt lat="45.4301" lon="4.1621">
        <ele>669</ele>
        <time>2017-07-27T04:23:03Z</time>
      </trkpt>
      <trkpt lat="45.43025" lon="4.16221">
        <ele>669</ele>
        <time>2017-07-27T04:25:03Z</time>
      </trkpt>
      <trkpt lat="45.4303" lon="4.16221">
        <ele>669</ele>
        <time>2017-07-27T04:27:03Z</time>
      </trkpt>
      <trkpt lat="45.43076" lon="4.16216">
        <ele>667</ele>
        <time>2017-07-27T04:29:03Z</time>
      </trkpt>
      <trkpt lat="45.43114" lon="4.16209">
        <ele>670</ele>
        <time>2017-07-27T04:31:03Z</time>
      </trkpt>
      <trkpt lat="45.43123" lon="4.16205">
        <ele>670</ele>
        <time>2017-07-27T04:33:03Z</time>
      </trkpt>
      <trkpt lat="45.43135" lon="4.16199">
        <ele>671</ele>
        <time>2017-07-27T04:35:03Z</time>
      </trkpt>
      <trkpt lat="45.43141" lon="4.16198">
        <ele>672</ele>
        <time>2017-07-27T04:37:03Z</time>
      </trkpt>
      <trkpt lat="45.43147" lon="4.162">
        <ele>672</ele>
        <time>2017-07-27T04:39:03Z</time>
      </trkpt>
      <trkpt lat="45.43152" lon="4.16212">
        <ele>673</ele>
        <time>2017-07-27T04:41:03Z</time>
      </trkpt>
      <trkpt lat="45.43152" lon="4.16233">
        <ele>673</ele>
        <time>2017-07-27T04:43:03Z</time>
      </trkpt>
      <trkpt lat="45.43158" lon="4.16247">
        <ele>674</ele>
        <time>2017-07-27T04:45:03Z</time>
      </trkpt>
      <trkpt lat="45.43166" lon="4.16254">
        <ele>675</ele>
        <time>2017-07-27T04:47:03Z</time>
      </trkpt>
      <trkpt lat="45.43174" lon="4.16261">
        <ele>675</ele>
        <time>2017-07-27T04:49:03Z</time>
      </trkpt>
      <trkpt lat="45.43182" lon="4.16271">
        <ele>676</ele>
        <time>2017-07-27T04:51:03Z</time>
      </trkpt>
      <trkpt lat="45.43183" lon="4.16273">
        <ele>676</ele>
        <time>2017-07-27T04:53:03Z</time>
      </trkpt>
      <trkpt lat="45.4319" lon="4.16277">
        <ele>676</ele>
        <time>2017-07-27T04:55:03Z</time>
      </trkpt>
      <trkpt lat="45.43197" lon="4.16277">
        <ele>676</ele>
        <time>2017-07-27T04:57:03Z</time>
      </trkpt>
      <trkpt lat="45.43202" lon="4.16275">
        <ele>677</ele>
        <time>2017-07-27T04:59:03Z</time>
      </trkpt>
      <trkpt lat="45.4321" lon="4.16276">
        <ele>677</ele>
        <time>2017-07-27T05:01:03Z</time>
      </trkpt>
      <trkpt lat="45.43215" lon="4.16278">
        <ele>678</ele>
        <time>2017-07-27T05:03:03Z</time>
      </trkpt>
      <trkpt lat="45.43229" lon="4.16286">
        <ele>678</ele>
        <time>2017-07-27T05:05:03Z</time>
      </trkpt>
      <trkpt lat="45.43245" lon="4.1629">
        <ele>679</ele>
        <time>2017-07-27T05:07:03Z</time>
      </trkpt>
      <trkpt lat="45.43279" lon="4.16291">
        <ele>680</ele>
        <time>2017-07-27T05:09:03Z</time>
      </trkpt>
      <trkpt lat="45.43302" lon="4.16293">
        <ele>681</ele>
        <time>2017-07-27T05:11:03Z</time>
      </trkpt>
      <trkpt lat="45.43319" lon="4.16297">
        <ele>681</ele>
        <time>2017-07-27T05:13:03Z</time>
      </trkpt>
      <trkpt lat="45.43336" lon="4.16303">
        <ele>682</ele>
        <time>2017-07-27T05:15:03Z</time>
      </trkpt>
      <trkpt lat="45.43345" lon="4.16307">
        <ele>683</ele>
        <time>2017-07-27T05:17:03Z</time>
      </trkpt>
      <trkpt lat="45.43367" lon="4.16318">
        <ele>686</ele>
        <time>2017-07-27T05:19:03Z</time>
      </trkpt>
      <trkpt lat="45.43382" lon="4.16328">
        <ele>688</ele>
        <time>2017-07-27T05:21:03Z</time>
      </trkpt>
      <trkpt lat="45.43384" lon="4.16331">
        <ele>688</ele>
        <time>2017-07-27T05:23:03Z</time>
      </trkpt>
      <trkpt lat="45.43388" lon="4.16336">
        <ele>689</ele>
        <time>2017-07-27T05:25:03Z</time>
      </trkpt>
      <trkpt lat="45.43389" lon="4.16338">
        <ele>689</ele>
        <time>2017-07-27T05:27:03Z</time>
      </trkpt>
      <trkpt lat="45.43388" lon="4.16346">
        <ele>688</ele>
        <time>2017-07-27T05:29:03Z</time>
      </trkpt>
      <trkpt lat="45.43385" lon="4.16383">
        <ele>686</ele>
        <time>2017-07-27T05:31:03Z</time>
      </trkpt>
      <trkpt lat="45.43384" lon="4.16397">
        <ele>685</ele>
        <time>2017-07-27T05:33:03Z</time>
      </trkpt>
      <trkpt lat="45.43384" lon="4.16425">
        <ele>684</ele>
        <time>2017-07-27T05:35:03Z</time>
      </trkpt>
      <trkpt lat="45.43385" lon="4.16449">
        <ele>683</ele>
        <time>2017-07-27T05:37:03Z</time>
      </trkpt>
      <trkpt lat="45.43388" lon="4.16477">
        <ele>682</ele>
        <time>2017-07-27T05:39:03Z</time>
      </trkpt>
      <trkpt lat="45.4339" lon="4.16483">
        <ele>682</ele>
        <time>2017-07-27T05:41:03Z</time>
      </trkpt>
      <trkpt lat="45.43391" lon="4.16489">
        <ele>682</ele>
        <time>2017-07-27T05:43:03Z</time>
      </trkpt>
      <trkpt lat="45.43406" lon="4.16532">
        <ele>680</ele>
        <time>2017-07-27T05:45:03Z</time>
      </trkpt>
      <trkpt lat="45.43421" lon="4.16564">
        <ele>678</ele>
        <time>2017-07-27T05:47:03Z</time>
      </trkpt>
      <trkpt lat="45.43423" lon="4.1657">
        <ele>678</ele>
        <time>2017-07-27T05:49:03Z</time>
      </trkpt>
      <trkpt lat="45.43428" lon="4.16581">
        <ele>677</ele>
        <time>2017-07-27T05:51:03Z</time>
      </trkpt>
      <trkpt lat="45.43434" lon="4.16592">
        <ele>677</ele>
        <time>2017-07-27T05:53:03Z</time>
      </trkpt>
      <trkpt lat="45.43435" lon="4.16599">
        <ele>676</ele>
        <time>2017-07-27T05:55:03Z</time>
      </trkpt>
      <trkpt lat="45.43439" lon="4.16614">
        <ele>675</ele>
        <time>2017-07-27T05:57:03Z</time>
      </trkpt>
      <trkpt lat="45.43442" lon="4.16621">
        <ele>674</ele>
        <time>2017-07-27T05:59:03Z</time>
      </trkpt>
      <trkpt lat="45.43445" lon="4.1663">
        <ele>673</ele>
        <time>2017-07-27T06:01:03Z</time>
      </trkpt>
      <trkpt lat="45.43459" lon="4.1667">
        <ele>669</ele>
        <time>2017-07-27T06:03:03Z</time>
      </trkpt>
      <trkpt lat="45.43464" lon="4.16687">
        <ele>669</ele>
        <time>2017-07-27T06:05:03Z</time>
      </trkpt>
      <trkpt lat="45.43465" lon="4.16693">
        <ele>668</ele>
        <time>2017-07-27T06:07:03Z</time>
      </trkpt>
      <trkpt lat="45.43469" lon="4.16708">
        <ele>668</ele>
        <time>2017-07-27T06:09:03Z</time>
      </trkpt>
      <trkpt lat="45.43474" lon="4.16723">
        <ele>667</ele>
        <time>2017-07-27T06:11:03Z</time>
      </trkpt>
      <trkpt lat="45.43478" lon="4.16731">
        <ele>666</ele>
        <time>2017-07-27T06:13:03Z</time>
      </trkpt>
      <trkpt lat="45.43491" lon="4.16753">
        <ele>665</ele>
        <time>2017-07-27T06:15:03Z</time>
      </trkpt>
      <trkpt lat="45.43496" lon="4.1676">
        <ele>666</ele>
        <time>2017-07-27T06:17:03Z</time>
      </trkpt>
      <trkpt lat="45.43514" lon="4.16778">
        <ele>665</ele>
        <time>2017-07-27T06:19:03Z</time>
      </trkpt>
      <trkpt lat="45.43531" lon="4.16795">
        <ele>663</ele>
        <time>2017-07-27T06:21:03Z</time>
      </trkpt>
      <trkpt lat="45.43536" lon="4.16799">
        <ele>663</ele>
        <time>2017-07-27T06:23:03Z</time>
      </trkpt>
      <trkpt lat="45.43554" lon="4.16804">
        <ele>660</ele>
        <time>2017-07-27T06:25:03Z</time>
      </trkpt>
      <trkpt lat="45.43561" lon="4.16805">
        <ele>659</ele>
        <time>2017-07-27T06:27:03Z</time>
      </trkpt>
      <trkpt lat="45.4358" lon="4.16804">
        <ele>656</ele>
        <time>2017-07-27T06:29:03Z</time>
      </trkpt>
      <trkpt lat="45.4359" lon="4.16803">
        <ele>655</ele>
        <time>2017-07-27T06:31:03Z</time>
      </trkpt>
      <trkpt lat="45.43608" lon="4.168">
        <ele>652</ele>
        <time>2017-07-27T06:33:03Z</time>
      </trkpt>
      <trkpt lat="45.43624" lon="4.16795">
        <ele>649</ele>
        <time>2017-07-27T06:35:03Z</time>
      </trkpt>
      <trkpt lat="45.43632" lon="4.16793">
        <ele>647</ele>
        <time>2017-07-27T06:37:03Z</time>
      </trkpt>
      <trkpt lat="45.43646" lon="4.16797">
        <ele>645</ele>
        <time>2017-07-27T06:39:03Z</time>
      </trkpt>
      <trkpt lat="45.43654" lon="4.16811">
        <ele>644</ele>
        <time>2017-07-27T06:41:03Z</time>
      </trkpt>
      <trkpt lat="45.43657" lon="4.16819">
        <ele>644</ele>
        <time>2017-07-27T06:43:03Z</time>
      </trkpt>
      <trkpt lat="45.43658" lon="4.16827">
        <ele>644</ele>
        <time>2017-07-27T06:45:03Z</time>
      </trkpt>
      <trkpt lat="45.4366" lon="4.16853">
        <ele>642</ele>
        <time>2017-07-27T06:47:03Z</time>
      </trkpt>
      <trkpt lat="45.43663" lon="4.16885">
        <ele>639</ele>
        <time>2017-07-27T06:49:03Z</time>
      </trkpt>
      <trkpt lat="45.43663" lon="4.16895">
        <ele>638</ele>
        <time>2017-07-27T06:51:03Z</time>
      </trkpt>
      <trkpt lat="45.43663" lon="4.16903">
        <ele>638</ele>
        <time>2017-07-27T06:53:03Z</time>
      </trkpt>
      <trkpt lat="45.43663" lon="4.16906">
        <ele>638</ele>
        <time>2017-07-27T06:55:03Z</time>
      </trkpt>
      <trkpt lat="45.43665" lon="4.16907">
        <ele>637</ele>
        <time>2017-07-27T06:57:03Z</time>
      </trkpt>
      <trkpt lat="45.43668" lon="4.16909">
        <ele>636</ele>
        <time>2017-07-27T06:59:03Z</time>
      </trkpt>
      <trkpt lat="45.4367" lon="4.16908">
        <ele>636</ele>
        <time>2017-07-27T07:01:03Z</time>
      </trkpt>
      <trkpt lat="45.43674" lon="4.16906">
        <ele>636</ele>
        <time>2017-07-27T07:03:03Z</time>
      </trkpt>
      <trkpt lat="45.43675" lon="4.16903">
        <ele>636</ele>
        <time>2017-07-27T07:05:03Z</time>
      </trkpt>
      <trkpt lat="45.43677" lon="4.16899">
        <ele>637</ele>
        <time>2017-07-27T07:07:03Z</time>
      </trkpt>
      <trkpt lat="45.43677" lon="4.1688">
        <ele>638</ele>
        <time>2017-07-27T07:09:03Z</time>
      </trkpt>
      <trkpt lat="45.43679" lon="4.16874">
        <ele>638</ele>
        <time>2017-07-27T07:11:03Z</time>
      </trkpt>
      <trkpt lat="45.43683" lon="4.16862">
        <ele>638</ele>
        <time>2017-07-27T07:13:03Z</time>
      </trkpt>
      <trkpt lat="45.43692" lon="4.16835">
        <ele>639</ele>
        <time>2017-07-27T07:15:03Z</time>
      </trkpt>
      <trkpt lat="45.43704" lon="4.168">
        <ele>636</ele>
        <time>2017-07-27T07:17:03Z</time>
      </trkpt>
      <trkpt lat="45.43708" lon="4.16784">
        <ele>634</ele>
        <time>2017-07-27T07:19:03Z</time>
      </trkpt>
      <trkpt lat="45.43712" lon="4.16756">
        <ele>632</ele>
        <time>2017-07-27T07:21:03Z</time>
      </trkpt>
      <trkpt lat="45.43712" lon="4.16735">
        <ele>630</ele>
        <time>2017-07-27T07:23:03Z</time>
      </trkpt>
      <trkpt lat="45.43711" lon="4.16724">
        <ele>630</ele>
        <time>2017-07-27T07:25:03Z</time>
      </trkpt>
      <trkpt lat="45.43709" lon="4.16704">
        <ele>629</ele>
        <time>2017-07-27T07:27:03Z</time>
      </trkpt>
      <trkpt lat="45.43705" lon="4.16658">
        <ele>629</ele>
        <time>2017-07-27T07:29:03Z</time>
      </trkpt>
      <trkpt lat="45.43705" lon="4.16641">
        <ele>631</ele>
        <time>2017-07-27T07:31:03Z</time>
      </trkpt>
      <trkpt lat="45.4371" lon="4.16629">
        <ele>631</ele>
        <time>2017-07-27T07:33:03Z</time>
      </trkpt>
      <trkpt lat="45.43712" lon="4.16628">
        <ele>631</ele>
        <time>2017-07-27T07:35:03Z</time>
      </trkpt>
      <trkpt lat="45.43719" lon="4.1663">
        <ele>630</ele>
        <time>2017-07-27T07:37:03Z</time>
      </trkpt>
      <trkpt lat="45.43725" lon="4.16629">
        <ele>629</ele>
        <time>2017-07-27T07:39:03Z</time>
      </trkpt>
      <trkpt lat="45.43734" lon="4.16631">
        <ele>628</ele>
        <time>2017-07-27T07:41:03Z</time>
      </trkpt>
      <trkpt lat="45.43736" lon="4.16631">
        <ele>627</ele>
        <time>2017-07-27T07:43:03Z</time>
      </trkpt>
      <trkpt lat="45.4375" lon="4.16629">
        <ele>626</ele>
        <time>2017-07-27T07:45:03Z</time>
      </trkpt>
      <trkpt lat="45.43771" lon="4.1663">
        <ele>624</ele>
        <time>2017-07-27T07:47:03Z</time>
      </trkpt>
      <trkpt lat="45.43783" lon="4.16629">
        <ele>623</ele>
        <time>2017-07-27T07:49:03Z</time>
      </trkpt>
      <trkpt lat="45.43793" lon="4.16626">
        <ele>623</ele>
        <time>2017-07-27T07:51:03Z</time>
      </trkpt>
      <trkpt lat="45.43807" lon="4.1662">
        <ele>624</ele>
        <time>2017-07-27T07:53:03Z</time>
      </trkpt>
      <trkpt lat="45.43817" lon="4.16618">
        <ele>624</ele>
        <time>2017-07-27T07:55:03Z</time>
      </trkpt>
      <trkpt lat="45.43835" lon="4.16622">
        <ele>622</ele>
        <time>2017-07-27T07:57:03Z</time>
      </trkpt>
      <trkpt lat="45.43853" lon="4.16633">
        <ele>619</ele>
        <time>2017-07-27T07:59:03Z</time>
      </trkpt>
      <trkpt lat="45.43873" lon="4.16644">
        <ele>615</ele>
        <time>2017-07-27T08:01:03Z</time>
      </trkpt>
      <trkpt lat="45.43893" lon="4.16648">
        <ele>614</ele>
        <time>2017-07-27T08:03:03Z</time>
      </trkpt>
      <trkpt lat="45.4391" lon="4.16646">
        <ele>615</ele>
        <time>2017-07-27T08:05:03Z</time>
      </trkpt>
      <trkpt lat="45.43915" lon="4.16643">
        <ele>615</ele>
        <time>2017-07-27T08:07:03Z</time>
      </trkpt>
      <trkpt lat="45.43919" lon="4.16638">
        <ele>616</ele>
        <time>2017-07-27T08:09:03Z</time>
      </trkpt>
      <trkpt lat="45.43926" lon="4.16631">
        <ele>618</ele>
        <time>2017-07-27T08:11:03Z</time>
      </trkpt>
      <trkpt lat="45.43943" lon="4.16596">
        <ele>624</ele>
        <time>2017-07-27T08:13:03Z</time>
      </trkpt>
      <trkpt lat="45.43949" lon="4.16588">
        <ele>625</ele>
        <time>2017-07-27T08:15:03Z</time>
      </trkpt>
      <trkpt lat="45.43951" lon="4.16586">
        <ele>625</ele>
        <time>2017-07-27T08:17:03Z</time>
      </trkpt>
      <trkpt lat="45.43962" lon="4.16578">
        <ele>625</ele>
        <time>2017-07-27T08:19:03Z</time>
      </trkpt>
      <trkpt lat="45.43966" lon="4.16577">
        <ele>625</ele>
        <time>2017-07-27T08:21:03Z</time>
      </trkpt>
      <trkpt lat="45.43988" lon="4.16573">
        <ele>624</ele>
        <time>2017-07-27T08:23:03Z</time>
      </trkpt>
      <trkpt lat="45.44002" lon="4.16565">
        <ele>624</ele>
        <time>2017-07-27T08:25:03Z</time>
      </trkpt>
      <trkpt lat="45.44025" lon="4.16548">
        <ele>627</ele>
        <time>2017-07-27T08:27:03Z</time>
      </trkpt>
      <trkpt lat="45.44032" lon="4.16544">
        <ele>627</ele>
        <time>2017-07-27T08:29:03Z</time>
      </trkpt>
      <trkpt lat="45.44036" lon="4.16542">
        <ele>628</ele>
        <time>2017-07-27T08:31:03Z</time>
      </trkpt>
      <trkpt lat="45.44052" lon="4.16534">
        <ele>629</ele>
        <time>2017-07-27T08:33:03Z</time>
      </trkpt>
      <trkpt lat="45.4406" lon="4.16532">
        <ele>629</ele>
        <time>2017-07-27T08:35:03Z</time>
      </trkpt>
      <trkpt lat="45.44063" lon="4.1653">
        <ele>629</ele>
        <time>2017-07-27T08:37:03Z</time>
      </trkpt>
      <trkpt lat="45.4407" lon="4.16524">
        <ele>630</ele>
        <time>2017-07-27T08:39:03Z</time>
      </trkpt>
      <trkpt lat="45.44078" lon="4.16518">
        <ele>630</ele>
        <time>2017-07-27T08:41:03Z</time>
      </trkpt>
      <trkpt lat="45.44087" lon="4.16509">
        <ele>631</ele>
        <time>2017-07-27T08:43:03Z</time>
      </trkpt>
      <trkpt lat="45.44098" lon="4.16495">
        <ele>631</ele>
        <time>2017-07-27T08:45:03Z</time>
      </trkpt>
      <trkpt lat="45.44113" lon="4.16475">
        <ele>631</ele>
        <time>2017-07-27T08:47:03Z</time>
      </trkpt>
      <trkpt lat="45.44114" lon="4.16473">
        <ele>631</ele>
        <time>2017-07-27T08:49:03Z</time>
      </trkpt>
      <trkpt lat="45.44122" lon="4.16465">
        <ele>631</ele>
        <time>2017-07-27T08:51:03Z</time>
      </trkpt>
      <trkpt lat="45.44126" lon="4.16464">
        <ele>630</ele>
        <time>2017-07-27T08:53:03Z</time>
      </trkpt>
      <trkpt lat="45.44131" lon="4.16465">
        <ele>630</ele>
        <time>2017-07-27T08:55:03Z</time>
      </trkpt>
      <trkpt lat="45.44136" lon="4.16469">
        <ele>630</ele>
        <time>2017-07-27T08:57:03Z</time>
      </trkpt>
      <trkpt lat="45.44158" lon="4.16487">
        <ele>629</ele>
        <time>2017-07-27T08:59:03Z</time>
      </trkpt>
      <trkpt lat="45.4417" lon="4.16499">
        <ele>629</ele>
        <time>2017-07-27T09:01:03Z</time>
      </trkpt>
      <trkpt lat="45.44179" lon="4.16508">
        <ele>628</ele>
        <time>2017-07-27T09:03:03Z</time>
      </trkpt>
      <trkpt lat="45.44202" lon="4.16541">
        <ele>627</ele>
        <time>2017-07-27T09:05:03Z</time>
      </trkpt>
      <trkpt lat="45.44206" lon="4.16545">
        <ele>627</ele>
        <time>2017-07-27T09:07:03Z</time>
      </trkpt>
      <trkpt lat="45.4424" lon="4.16589">
        <ele>625</ele>
        <time>2017-07-27T09:09:03Z</time>
      </trkpt>
      <trkpt lat="45.44252" lon="4.16609">
        <ele>626</ele>
        <time>2017-07-27T09:11:03Z</time>
      </trkpt>
      <trkpt lat="45.44262" lon="4.16628">
        <ele>626</ele>
        <time>2017-07-27T09:13:03Z</time>
      </trkpt>
      <trkpt lat="45.44283" lon="4.16671">
        <ele>624</ele>
        <time>2017-07-27T09:15:03Z</time>
      </trkpt>
      <trkpt lat="45.4429" lon="4.16684">
        <ele>623</ele>
        <time>2017-07-27T09:17:03Z</time>
      </trkpt>
      <trkpt lat="45.44303" lon="4.16712">
        <ele>621</ele>
        <time>2017-07-27T09:19:03Z</time>
      </trkpt>
      <trkpt lat="45.44308" lon="4.16725">
        <ele>621</ele>
        <time>2017-07-27T09:21:03Z</time>
      </trkpt>
      <trkpt lat="45.44312" lon="4.16725">
        <ele>620</ele>
        <time>2017-07-27T09:23:03Z</time>
      </trkpt>
      <trkpt lat="45.44312" lon="4.16718">
        <ele>620</ele>
        <time>2017-07-27T09:25:03Z</time>
      </trkpt>
      <trkpt lat="45.4431" lon="4.16703">
        <ele>620</ele>
        <time>2017-07-27T09:27:03Z</time>
      </trkpt>
      <trkpt lat="45.44307" lon="4.16684">
        <ele>620</ele>
        <time>2017-07-27T09:29:03Z</time>
      </trkpt>
      <trkpt lat="45.44304" lon="4.16656">
        <ele>620</ele>
        <time>2017-07-27T09:31:03Z</time>
      </trkpt>
      <trkpt lat="45.44305" lon="4.16652">
        <ele>620</ele>
        <time>2017-07-27T09:33:03Z</time>
      </trkpt>
      <trkpt lat="45.44307" lon="4.16651">
        <ele>620</ele>
        <time>2017-07-27T09:35:03Z</time>
      </trkpt>
      <trkpt lat="45.44308" lon="4.16651">
        <ele>619</ele>
        <time>2017-07-27T09:37:03Z</time>
      </trkpt>
      <trkpt lat="45.44309" lon="4.16652">
        <ele>619</ele>
        <time>2017-07-27T09:39:03Z</time>
      </trkpt>
      <trkpt lat="45.44311" lon="4.16654">
        <ele>619</ele>
        <time>2017-07-27T09:41:03Z</time>
      </trkpt>
      <trkpt lat="45.44319" lon="4.16673">
        <ele>618</ele>
        <time>2017-07-27T09:43:03Z</time>
      </trkpt>
      <trkpt lat="45.44331" lon="4.16706">
        <ele>616</ele>
        <time>2017-07-27T09:45:03Z</time>
      </trkpt>
      <trkpt lat="45.44344" lon="4.16748">
        <ele>614</ele>
        <time>2017-07-27T09:47:03Z</time>
      </trkpt>
      <trkpt lat="45.44358" lon="4.16783">
        <ele>610</ele>
        <time>2017-07-27T09:49:03Z</time>
      </trkpt>
      <trkpt lat="45.44367" lon="4.168">
        <ele>607</ele>
        <time>2017-07-27T09:51:03Z</time>
      </trkpt>
      <trkpt lat="45.44372" lon="4.16808">
        <ele>606</ele>
        <time>2017-07-27T09:53:03Z</time>
      </trkpt>
      <trkpt lat="45.44389" lon="4.16827">
        <ele>602</ele>
        <time>2017-07-27T09:55:03Z</time>
      </trkpt>
      <trkpt lat="45.44395" lon="4.16838">
        <ele>601</ele>
        <time>2017-07-27T09:57:03Z</time>
      </trkpt>
      <trkpt lat="45.44397" lon="4.16844">
        <ele>599</ele>
        <time>2017-07-27T09:59:03Z</time>
      </trkpt>
      <trkpt lat="45.44404" lon="4.16849">
        <ele>598</ele>
        <time>2017-07-27T10:01:03Z</time>
      </trkpt>
      <trkpt lat="45.44406" lon="4.16849">
        <ele>598</ele>
        <time>2017-07-27T10:03:03Z</time>
      </trkpt>
      <trkpt lat="45.44407" lon="4.16842">
        <ele>599</ele>
        <time>2017-07-27T10:05:03Z</time>
      </trkpt>
      <trkpt lat="45.44406" lon="4.16836">
        <ele>600</ele>
        <time>2017-07-27T10:07:03Z</time>
      </trkpt>
      <trkpt lat="45.44404" lon="4.16831">
        <ele>601</ele>
        <time>2017-07-27T10:09:03Z</time>
      </trkpt>
      <trkpt lat="45.44397" lon="4.16819">
        <ele>602</ele>
        <time>2017-07-27T10:11:03Z</time>
      </trkpt>
      <trkpt lat="45.44393" lon="4.16811">
        <ele>603</ele>
        <time>2017-07-27T10:13:03Z</time>
      </trkpt>
      <trkpt lat="45.4438" lon="4.16779">
        <ele>607</ele>
        <time>2017-07-27T10:15:03Z</time>
      </trkpt>
      <trkpt lat="45.44378" lon="4.16772">
        <ele>608</ele>
        <time>2017-07-27T10:17:03Z</time>
      </trkpt>
      <trkpt lat="45.44379" lon="4.16764">
        <ele>608</ele>
        <time>2017-07-27T10:19:03Z</time>
      </trkpt>
      <trkpt lat="45.44387" lon="4.16764">
        <ele>607</ele>
        <time>2017-07-27T10:21:03Z</time>
      </trkpt>
      <trkpt lat="45.44398" lon="4.16762">
        <ele>606</ele>
        <time>2017-07-27T10:23:03Z</time>
      </trkpt>
      <trkpt lat="45.44428" lon="4.16757">
        <ele>603</ele>
        <time>2017-07-27T10:25:03Z</time>
      </trkpt>
      <trkpt lat="45.44448" lon="4.16751">
        <ele>602</ele>
        <time>2017-07-27T10:27:03Z</time>
      </trkpt>
      <trkpt lat="45.44453" lon="4.16749">
        <ele>602</ele>
        <time>2017-07-27T10:29:03Z</time>
      </trkpt>
      <trkpt lat="45.44481" lon="4.16731">
        <ele>604</ele>
        <time>2017-07-27T10:31:03Z</time>
      </trkpt>
      <trkpt lat="45.445" lon="4.16722">
        <ele>606</ele>
        <time>2017-07-27T10:33:03Z</time>
      </trkpt>
      <trkpt lat="45.44516" lon="4.1672">
        <ele>604</ele>
        <time>2017-07-27T10:35:03Z</time>
      </trkpt>
      <trkpt lat="45.44534" lon="4.16715">
        <ele>602</ele>
        <time>2017-07-27T10:37:03Z</time>
      </trkpt>
      <trkpt lat="45.44574" lon="4.16712">
        <ele>595</ele>
        <time>2017-07-27T10:39:03Z</time>
      </trkpt>
      <trkpt lat="45.44597" lon="4.16704">
        <ele>594</ele>
        <time>2017-07-27T10:41:03Z</time>
      </trkpt>
      <trkpt lat="45.44603" lon="4.16704">
        <ele>593</ele>
        <time>2017-07-27T10:43:03Z</time>
      </trkpt>
      <trkpt lat="45.44619" lon="4.16706">
        <ele>590</ele>
        <time>2017-07-27T10:45:03Z</time>
      </trkpt>
      <trkpt lat="45.44624" lon="4.16708">
        <ele>589</ele>
        <time>2017-07-27T10:47:03Z</time>
      </trkpt>
      <trkpt lat="45.44633" lon="4.16708">
        <ele>587</ele>
        <time>2017-07-27T10:49:03Z</time>
      </trkpt>
      <trkpt lat="45.44639" lon="4.167">
        <ele>589</ele>
        <time>2017-07-27T10:51:03Z</time>
      </trkpt>
      <trkpt lat="45.44643" lon="4.16695">
        <ele>589</ele>
        <time>2017-07-27T10:53:03Z</time>
      </trkpt>
      <trkpt lat="45.44656" lon="4.16676">
        <ele>592</ele>
        <time>2017-07-27T10:55:03Z</time>
      </trkpt>
      <trkpt lat="45.44668" lon="4.16675">
        <ele>591</ele>
        <time>2017-07-27T10:57:03Z</time>
      </trkpt>
      <trkpt lat="45.44671" lon="4.16678">
        <ele>590</ele>
        <time>2017-07-27T10:59:03Z</time>
      </trkpt>
      <trkpt lat="45.4468" lon="4.16687">
        <ele>588</ele>
        <time>2017-07-27T11:01:03Z</time>
      </trkpt>
      <trkpt lat="45.44699" lon="4.16697">
        <ele>586</ele>
        <time>2017-07-27T11:03:03Z</time>
      </trkpt>
      <trkpt lat="45.44723" lon="4.16703">
        <ele>585</ele>
        <time>2017-07-27T11:05:03Z</time>
      </trkpt>
      <trkpt lat="45.44736" lon="4.16704">
        <ele>585</ele>
        <time>2017-07-27T11:07:03Z</time>
      </trkpt>
      <trkpt lat="45.44747" lon="4.16708">
        <ele>584</ele>
        <time>2017-07-27T11:09:03Z</time>
      </trkpt>
      <trkpt lat="45.44764" lon="4.16714">
        <ele>583</ele>
        <time>2017-07-27T11:11:03Z</time>
      </trkpt>
      <trkpt lat="45.44784" lon="4.16725">
        <ele>581</ele>
        <time>2017-07-27T11:13:03Z</time>
      </trkpt>
      <trkpt lat="45.44793" lon="4.16732">
        <ele>579</ele>
        <time>2017-07-27T11:15:03Z</time>
      </trkpt>
      <trkpt lat="45.448" lon="4.1674">
        <ele>576</ele>
        <time>2017-07-27T11:17:03Z</time>
      </trkpt>
      <trkpt lat="45.44808" lon="4.16746">
        <ele>575</ele>
        <time>2017-07-27T11:19:03Z</time>
      </trkpt>
      <trkpt lat="45.44819" lon="4.16757">
        <ele>572</ele>
        <time>2017-07-27T11:21:03Z</time>
      </trkpt>
      <trkpt lat="45.44827" lon="4.16765">
        <ele>570</ele>
        <time>2017-07-27T11:23:03Z</time>
      </trkpt>
      <trkpt lat="45.44836" lon="4.16775">
        <ele>568</ele>
        <time>2017-07-27T11:25:03Z</time>
      </trkpt>
      <trkpt lat="45.44841" lon="4.16778">
        <ele>568</ele>
        <time>2017-07-27T11:27:03Z</time>
      </trkpt>
      <trkpt lat="45.44852" lon="4.16783">
        <ele>568</ele>
        <time>2017-07-27T11:29:03Z</time>
      </trkpt>
      <trkpt lat="45.44862" lon="4.16788">
        <ele>568</ele>
        <time>2017-07-27T11:31:03Z</time>
      </trkpt>
      <trkpt lat="45.44867" lon="4.16789">
        <ele>568</ele>
        <time>2017-07-27T11:33:03Z</time>
      </trkpt>
      <trkpt lat="45.4489" lon="4.16799">
        <ele>569</ele>
        <time>2017-07-27T11:35:03Z</time>
      </trkpt>
      <trkpt lat="45.44894" lon="4.16799">
        <ele>570</ele>
        <time>2017-07-27T11:37:03Z</time>
      </trkpt>
      <trkpt lat="45.4491" lon="4.16803">
        <ele>572</ele>
        <time>2017-07-27T11:39:03Z</time>
      </trkpt>
      <trkpt lat="45.44915" lon="4.16802">
        <ele>573</ele>
        <time>2017-07-27T11:41:03Z</time>
      </trkpt>
      <trkpt lat="45.44926" lon="4.16804">
        <ele>573</ele>
        <time>2017-07-27T11:43:03Z</time>
      </trkpt>
      <trkpt lat="45.44938" lon="4.16817">
        <ele>571</ele>
        <time>2017-07-27T11:45:03Z</time>
      </trkpt>
      <trkpt lat="45.44956" lon="4.16832">
        <ele>570</ele>
        <time>2017-07-27T11:47:03Z</time>
      </trkpt>
      <trkpt lat="45.44968" lon="4.16839">
        <ele>569</ele>
        <time>2017-07-27T11:49:03Z</time>
      </trkpt>
      <trkpt lat="45.44977" lon="4.16846">
        <ele>568</ele>
        <time>2017-07-27T11:51:03Z</time>
      </trkpt>
      <trkpt lat="45.44982" lon="4.16849">
        <ele>567</ele>
        <time>2017-07-27T11:53:03Z</time>
      </trkpt>
      <trkpt lat="45.44996" lon="4.16858">
        <ele>566</ele>
        <time>2017-07-27T11:55:03Z</time>
      </trkpt>
      <trkpt lat="45.4502" lon="4.16869">
        <ele>563</ele>
        <time>2017-07-27T11:57:03Z</time>
      </trkpt>
      <trkpt lat="45.45045" lon="4.16884">
        <ele>559</ele>
        <time>2017-07-27T11:59:03Z</time>
      </trkpt>
      <trkpt lat="45.45055" lon="4.16892">
        <ele>556</ele>
        <time>2017-07-27T12:01:03Z</time>
      </trkpt>
      <trkpt lat="45.4506" lon="4.16895">
        <ele>556</ele>
        <time>2017-07-27T12:03:03Z</time>
      </trkpt>
      <trkpt lat="45.45065" lon="4.16898">
        <ele>555</ele>
        <time>2017-07-27T12:05:03Z</time>
      </trkpt>
      <trkpt lat="45.4507" lon="4.16901">
        <ele>554</ele>
        <time>2017-07-27T12:07:03Z</time>
      </trkpt>
      <trkpt lat="45.45081" lon="4.16903">
        <ele>554</ele>
        <time>2017-07-27T12:09:03Z</time>
      </trkpt>
      <trkpt lat="45.45088" lon="4.169">
        <ele>555</ele>
        <time>2017-07-27T12:11:03Z</time>
      </trkpt>
      <trkpt lat="45.45092" lon="4.16898">
        <ele>555</ele>
        <time>2017-07-27T12:13:03Z</time>
      </trkpt>
      <trkpt lat="45.45106" lon="4.16886">
        <ele>559</ele>
        <time>2017-07-27T12:15:03Z</time>
      </trkpt>
      <trkpt lat="45.45123" lon="4.16879">
        <ele>561</ele>
        <time>2017-07-27T12:17:03Z</time>
      </trkpt>
      <trkpt lat="45.45126" lon="4.16878">
        <ele>561</ele>
        <time>2017-07-27T12:19:03Z</time>
      </trkpt>
      <trkpt lat="45.45149" lon="4.16882">
        <ele>560</ele>
        <time>2017-07-27T12:21:03Z</time>
      </trkpt>
      <trkpt lat="45.45155" lon="4.16885">
        <ele>560</ele>
        <time>2017-07-27T12:23:03Z</time>
      </trkpt>
      <trkpt lat="45.45157" lon="4.16884">
        <ele>560</ele>
        <time>2017-07-27T12:25:03Z</time>
      </trkpt>
      <trkpt lat="45.4516" lon="4.16885">
        <ele>560</ele>
        <time>2017-07-27T12:27:03Z</time>
      </trkpt>
      <trkpt lat="45.45172" lon="4.16884">
        <ele>561</ele>
        <time>2017-07-27T12:29:03Z</time>
      </trkpt>
      <trkpt lat="45.45178" lon="4.16883">
        <ele>561</ele>
        <time>2017-07-27T12:31:03Z</time>
      </trkpt>
      <trkpt lat="45.45182" lon="4.16884">
        <ele>561</ele>
        <time>2017-07-27T12:33:03Z</time>
      </trkpt>
      <trkpt lat="45.45186" lon="4.16884">
        <ele>561</ele>
        <time>2017-07-27T12:35:03Z</time>
      </trkpt>
      <trkpt lat="45.45195" lon="4.16884">
        <ele>562</ele>
        <time>2017-07-27T12:37:03Z</time>
      </trkpt>
      <trkpt lat="45.45198" lon="4.16883">
        <ele>562</ele>
        <time>2017-07-27T12:39:03Z</time>
      </trkpt>
      <trkpt lat="45.45201" lon="4.16884">
        <ele>562</ele>
        <time>2017-07-27T12:41:03Z</time>
      </trkpt>
      <trkpt lat="45.45207" lon="4.16885">
        <ele>562</ele>
        <time>2017-07-27T12:43:03Z</time>
      </trkpt>
      <trkpt lat="45.45219" lon="4.16889">
        <ele>562</ele>
        <time>2017-07-27T12:45:03Z</time>
      </trkpt>
      <trkpt lat="45.45227" lon="4.16887">
        <ele>563</ele>
        <time>2017-07-27T12:47:03Z</time>
      </trkpt>
      <trkpt lat="45.45246" lon="4.16879">
        <ele>566</ele>
        <time>2017-07-27T12:49:03Z</time>
      </trkpt>
      <trkpt lat="45.45257" lon="4.16875">
        <ele>566</ele>
        <time>2017-07-27T12:51:03Z</time>
      </trkpt>
      <trkpt lat="45.45258" lon="4.16876">
        <ele>566</ele>
        <time>2017-07-27T12:53:03Z</time>
      </trkpt>
      <trkpt lat="45.45264" lon="4.16874">
        <ele>566</ele>
        <time>2017-07-27T12:55:03Z</time>
      </trkpt>
      <trkpt lat="45.45279" lon="4.1687">
        <ele>566</ele>
        <time>2017-07-27T12:57:03Z</time>
      </trkpt>
      <trkpt lat="45.45282" lon="4.16869">
        <ele>566</ele>
        <time>2017-07-27T12:59:03Z</time>
      </trkpt>
      <trkpt lat="45.45292" lon="4.16866">
        <ele>566</ele>
        <time>2017-07-27T13:01:03Z</time>
      </trkpt>
      <trkpt lat="45.45297" lon="4.16864">
        <ele>566</ele>
        <time>2017-07-27T13:03:03Z</time>
      </trkpt>
      <trkpt lat="45.45314" lon="4.16864">
        <ele>565</ele>
        <time>2017-07-27T13:05:03Z</time>
      </trkpt>
      <trkpt lat="45.45333" lon="4.16861">
        <ele>565</ele>
        <time>2017-07-27T13:07:03Z</time>
      </trkpt>
      <trkpt lat="45.45344" lon="4.16858">
        <ele>565</ele>
        <time>2017-07-27T13:09:03Z</time>
      </trkpt>
      <trkpt lat="45.45355" lon="4.16851">
        <ele>567</ele>
        <time>2017-07-27T13:11:03Z</time>
      </trkpt>
      <trkpt lat="45.45357" lon="4.16851">
        <ele>567</ele>
        <time>2017-07-27T13:13:03Z</time>
      </trkpt>
      <trkpt lat="45.45371" lon="4.16849">
        <ele>567</ele>
        <time>2017-07-27T13:15:03Z</time>
      </trkpt>
      <trkpt lat="45.45379" lon="4.1685">
        <ele>566</ele>
        <time>2017-07-27T13:17:03Z</time>
      </trkpt>
      <trkpt lat="45.45385" lon="4.16851">
        <ele>566</ele>
        <time>2017-07-27T13:19:03Z</time>
      </trkpt>
      <trkpt lat="45.45411" lon="4.16855">
        <ele>564</ele>
        <time>2017-07-27T13:21:03Z</time>
      </trkpt>
      <trkpt lat="45.45446" lon="4.16852">
        <ele>563</ele>
        <time>2017-07-27T13:23:03Z</time>
      </trkpt>
      <trkpt lat="45.45462" lon="4.1685">
        <ele>563</ele>
        <time>2017-07-27T13:25:03Z</time>
      </trkpt>
      <trkpt lat="45.45492" lon="4.16844">
        <ele>562</ele>
        <time>2017-07-27T13:27:03Z</time>
      </trkpt>
      <trkpt lat="45.45517" lon="4.16844">
        <ele>560</ele>
        <time>2017-07-27T13:29:03Z</time>
      </trkpt>
      <trkpt lat="45.45524" lon="4.16847">
        <ele>560</ele>
        <time>2017-07-27T13:31:03Z</time>
      </trkpt>
      <trkpt lat="45.45547" lon="4.16861">
        <ele>558</ele>
        <time>2017-07-27T13:33:03Z</time>
      </trkpt>
      <trkpt lat="45.45552" lon="4.16866">
        <ele>558</ele>
        <time>2017-07-27T13:35:03Z</time>
      </trkpt>
      <trkpt lat="45.45566" lon="4.1688">
        <ele>558</ele>
        <time>2017-07-27T13:37:03Z</time>
      </trkpt>
      <trkpt lat="45.45579" lon="4.16891">
        <ele>558</ele>
        <time>2017-07-27T13:39:03Z</time>
      </trkpt>
      <trkpt lat="45.45594" lon="4.169">
        <ele>558</ele>
        <time>2017-07-27T13:41:03Z</time>
      </trkpt>
      <trkpt lat="45.45617" lon="4.16912">
        <ele>558</ele>
        <time>2017-07-27T13:43:03Z</time>
      </trkpt>
      <trkpt lat="45.45652" lon="4.16929">
        <ele>558</ele>
        <time>2017-07-27T13:45:03Z</time>
      </trkpt>
      <trkpt lat="45.45668" lon="4.16936">
        <ele>558</ele>
        <time>2017-07-27T13:47:03Z</time>
      </trkpt>
      <trkpt lat="45.45679" lon="4.16942">
        <ele>557</ele>
        <time>2017-07-27T13:49:03Z</time>
      </trkpt>
      <trkpt lat="45.45699" lon="4.16956">
        <ele>556</ele>
        <time>2017-07-27T13:51:03Z</time>
      </trkpt>
      <trkpt lat="45.45725" lon="4.16973">
        <ele>556</ele>
        <time>2017-07-27T13:53:03Z</time>
      </trkpt>
      <trkpt lat="45.45748" lon="4.16986">
        <ele>556</ele>
        <time>2017-07-27T13:55:03Z</time>
      </trkpt>
      <trkpt lat="45.45763" lon="4.16991">
        <ele>556</ele>
        <time>2017-07-27T13:57:03Z</time>
      </trkpt>
      <trkpt lat="45.45777" lon="4.16996">
        <ele>556</ele>
        <time>2017-07-27T13:59:03Z</time>
      </trkpt>
      <trkpt lat="45.45794" lon="4.17003">
        <ele>555</ele>
        <time>2017-07-27T14:01:03Z</time>
      </trkpt>
      <trkpt lat="45.45799" lon="4.17004">
        <ele>555</ele>
        <time>2017-07-27T14:03:03Z</time>
      </trkpt>
      <trkpt lat="45.45828" lon="4.17008">
        <ele>553</ele>
        <time>2017-07-27T14:05:03Z</time>
      </trkpt>
      <trkpt lat="45.45833" lon="4.17007">
        <ele>553</ele>
        <time>2017-07-27T14:07:03Z</time>
      </trkpt>
      <trkpt lat="45.45864" lon="4.16998">
        <ele>551</ele>
        <time>2017-07-27T14:09:03Z</time>
      </trkpt>
      <trkpt lat="45.45878" lon="4.1699">
        <ele>549</ele>
        <time>2017-07-27T14:11:03Z</time>
      </trkpt>
      <trkpt lat="45.45882" lon="4.16989">
        <ele>549</ele>
        <time>2017-07-27T14:13:03Z</time>
      </trkpt>
      <trkpt lat="45.45894" lon="4.16988">
        <ele>548</ele>
        <time>2017-07-27T14:15:03Z</time>
      </trkpt>
      <trkpt lat="45.45913" lon="4.16986">
        <ele>547</ele>
        <time>2017-07-27T14:17:03Z</time>
      </trkpt>
      <trkpt lat="45.45919" lon="4.16984">
        <ele>546</ele>
        <time>2017-07-27T14:19:03Z</time>
      </trkpt>
      <trkpt lat="45.45929" lon="4.1698">
        <ele>544</ele>
        <time>2017-07-27T14:21:03Z</time>
      </trkpt>
      <trkpt lat="45.45934" lon="4.16977">
        <ele>542</ele>
        <time>2017-07-27T14:23:03Z</time>
      </trkpt>
      <trkpt lat="45.45939" lon="4.16974">
        <ele>541</ele>
        <time>2017-07-27T14:25:03Z</time>
      </trkpt>
      <trkpt lat="45.45947" lon="4.1697">
        <ele>539</ele>
        <time>2017-07-27T14:27:03Z</time>
      </trkpt>
      <trkpt lat="45.45951" lon="4.1697">
        <ele>538</ele>
        <time>2017-07-27T14:29:03Z</time>
      </trkpt>
      <trkpt lat="45.45954" lon="4.16971">
        <ele>538</ele>
        <time>2017-07-27T14:31:03Z</time>
      </trkpt>
      <trkpt lat="45.45958" lon="4.16971">
        <ele>537</ele>
        <time>2017-07-27T14:33:03Z</time>
      </trkpt>
      <trkpt lat="45.4596" lon="4.16971">
        <ele>537</ele>
        <time>2017-07-27T14:35:03Z</time>
      </trkpt>
      <trkpt lat="45.45962" lon="4.16971">
        <ele>536</ele>
        <time>2017-07-27T14:37:03Z</time>
      </trkpt>
      <trkpt lat="45.45966" lon="4.16966">
        <ele>535</ele>
        <time>2017-07-27T14:39:03Z</time>
      </trkpt>
      <trkpt lat="45.4597" lon="4.16965">
        <ele>534</ele>
        <time>2017-07-27T14:41:03Z</time>
      </trkpt>
      <trkpt lat="45.45974" lon="4.16967">
        <ele>534</ele>
        <time>2017-07-27T14:43:03Z</time>
      </trkpt>
      <trkpt lat="45.45982" lon="4.16969">
        <ele>532</ele>
        <time>2017-07-27T14:45:03Z</time>
      </trkpt>
      <trkpt lat="45.45987" lon="4.16969">
        <ele>531</ele>
        <time>2017-07-27T14:47:03Z</time>
      </trkpt>
      <trkpt lat="45.4599" lon="4.16969">
        <ele>531</ele>
        <time>2017-07-27T14:49:03Z</time>
      </trkpt>
      <trkpt lat="45.45994" lon="4.1697">
        <ele>530</ele>
        <time>2017-07-27T14:51:03Z</time>
      </trkpt>
      <trkpt lat="45.46002" lon="4.1697">
        <ele>529</ele>
        <time>2017-07-27T14:53:03Z</time>
      </trkpt>
      <trkpt lat="45.46012" lon="4.16968">
        <ele>526</ele>
        <time>2017-07-27T14:55:03Z</time>
      </trkpt>
      <trkpt lat="45.46024" lon="4.16964">
        <ele>523</ele>
        <time>2017-07-27T14:57:03Z</time>
      </trkpt>
      <trkpt lat="45.4603" lon="4.16965">
        <ele>521</ele>
        <time>2017-07-27T14:59:03Z</time>
      </trkpt>
      <trkpt lat="45.46037" lon="4.16967">
        <ele>520</ele>
        <time>2017-07-27T15:01:03Z</time>
      </trkpt>
      <trkpt lat="45.46049" lon="4.16975">
        <ele>518</ele>
        <time>2017-07-27T15:03:03Z</time>
      </trkpt>
      <trkpt lat="45.46065" lon="4.16981">
        <ele>516</ele>
        <time>2017-07-27T15:05:03Z</time>
      </trkpt>
      <trkpt lat="45.4607" lon="4.16985">
        <ele>515</ele>
        <time>2017-07-27T15:07:03Z</time>
      </trkpt>
      <trkpt lat="45.4608" lon="4.16993">
        <ele>514</ele>
        <time>2017-07-27T15:09:03Z</time>
      </trkpt>
      <trkpt lat="45.46086" lon="4.16997">
        <ele>514</ele>
        <time>2017-07-27T15:11:03Z</time>
      </trkpt>
      <trkpt lat="45.46092" lon="4.17001">
        <ele>513</ele>
        <time>2017-07-27T15:13:03Z</time>
      </trkpt>
      <trkpt lat="45.46096" lon="4.17008">
        <ele>512</ele>
        <time>2017-07-27T15:15:03Z</time>
      </trkpt>
      <trkpt lat="45.46098" lon="4.17016">
        <ele>512</ele>
        <time>2017-07-27T15:17:03Z</time>
      </trkpt>
      <trkpt lat="45.46099" lon="4.17022">
        <ele>512</ele>
        <time>2017-07-27T15:19:03Z</time>
      </trkpt>
      <trkpt lat="45.461" lon="4.17027">
        <ele>512</ele>
        <time>2017-07-27T15:21:03Z</time>
      </trkpt>
      <trkpt lat="45.46101" lon="4.1703">
        <ele>511</ele>
        <time>2017-07-27T15:23:03Z</time>
      </trkpt>
      <trkpt lat="45.46101" lon="4.17024">
        <ele>511</ele>
        <time>2017-07-27T15:25:03Z</time>
      </trkpt>
      <trkpt lat="45.46099" lon="4.17017">
        <ele>511</ele>
        <time>2017-07-27T15:27:03Z</time>
      </trkpt>
      <trkpt lat="45.46097" lon="4.17002">
        <ele>511</ele>
        <time>2017-07-27T15:29:03Z</time>
      </trkpt>
      <trkpt lat="45.46096" lon="4.16999">
        <ele>511</ele>
        <time>2017-07-27T15:31:03Z</time>
      </trkpt>
      <trkpt lat="45.46089" lon="4.16994">
        <ele>512</ele>
        <time>2017-07-27T15:33:03Z</time>
      </trkpt>
      <trkpt lat="45.46084" lon="4.16991">
        <ele>513</ele>
        <time>2017-07-27T15:35:03Z</time>
      </trkpt>
      <trkpt lat="45.46075" lon="4.16984">
        <ele>514</ele>
        <time>2017-07-27T15:37:03Z</time>
      </trkpt>
      <trkpt lat="45.46067" lon="4.1698">
        <ele>515</ele>
        <time>2017-07-27T15:39:03Z</time>
      </trkpt>
      <trkpt lat="45.46047" lon="4.16971">
        <ele>518</ele>
        <time>2017-07-27T15:41:03Z</time>
      </trkpt>
      <trkpt lat="45.46047" lon="4.16969">
        <ele>518</ele>
        <time>2017-07-27T15:43:03Z</time>
      </trkpt>
      <trkpt lat="45.4605" lon="4.16971">
        <ele>518</ele>
        <time>2017-07-27T15:45:03Z</time>
      </trkpt>
      <trkpt lat="45.4607" lon="4.16984">
        <ele>515</ele>
        <time>2017-07-27T15:47:03Z</time>
      </trkpt>
      <trkpt lat="45.46087" lon="4.16995">
        <ele>513</ele>
        <time>2017-07-27T15:49:03Z</time>
      </trkpt>
      <trkpt lat="45.46091" lon="4.17">
        <ele>513</ele>
        <time>2017-07-27T15:51:03Z</time>
      </trkpt>
      <trkpt lat="45.461" lon="4.17029">
        <ele>512</ele>
        <time>2017-07-27T15:53:03Z</time>
      </trkpt>
      <trkpt lat="45.46107" lon="4.17057">
        <ele>511</ele>
        <time>2017-07-27T15:55:03Z</time>
      </trkpt>
      <trkpt lat="45.46108" lon="4.17065">
        <ele>511</ele>
        <time>2017-07-27T15:57:03Z</time>
      </trkpt>
      <trkpt lat="45.46108" lon="4.1708">
        <ele>512</ele>
        <time>2017-07-27T15:59:03Z</time>
      </trkpt>
      <trkpt lat="45.46109" lon="4.17115">
        <ele>513</ele>
        <time>2017-07-27T16:01:03Z</time>
      </trkpt>
      <trkpt lat="45.4612" lon="4.17126">
        <ele>512</ele>
        <time>2017-07-27T16:03:03Z</time>
      </trkpt>
      <trkpt lat="45.46136" lon="4.17136">
        <ele>509</ele>
        <time>2017-07-27T16:05:03Z</time>
      </trkpt>
      <trkpt lat="45.46151" lon="4.17155">
        <ele>507</ele>
        <time>2017-07-27T16:07:03Z</time>
      </trkpt>
      <trkpt lat="45.46162" lon="4.17186">
        <ele>508</ele>
        <time>2017-07-27T16:09:03Z</time>
      </trkpt>
      <trkpt lat="45.46166" lon="4.17209">
        <ele>510</ele>
        <time>2017-07-27T16:11:03Z</time>
      </trkpt>
      <trkpt lat="45.46167" lon="4.17214">
        <ele>511</ele>
        <time>2017-07-27T16:13:03Z</time>
      </trkpt>
      <trkpt lat="45.4617" lon="4.1724">
        <ele>514</ele>
        <time>2017-07-27T16:15:03Z</time>
      </trkpt>
      <trkpt lat="45.46171" lon="4.17259">
        <ele>515</ele>
        <time>2017-07-27T16:17:03Z</time>
      </trkpt>
      <trkpt lat="45.46173" lon="4.17273">
        <ele>515</ele>
        <time>2017-07-27T16:19:03Z</time>
      </trkpt>
      <trkpt lat="45.46174" lon="4.17295">
        <ele>515</ele>
        <time>2017-07-27T16:21:03Z</time>
      </trkpt>
      <trkpt lat="45.46175" lon="4.17314">
        <ele>515</ele>
        <time>2017-07-27T16:23:03Z</time>
      </trkpt>
      <trkpt lat="45.46174" lon="4.17342">
        <ele>515</ele>
        <time>2017-07-27T16:25:03Z</time>
      </trkpt>
      <trkpt lat="45.4617" lon="4.17376">
        <ele>515</ele>
        <time>2017-07-27T16:27:03Z</time>
      </trkpt>
      <trkpt lat="45.4616" lon="4.17418">
        <ele>514</ele>
        <time>2017-07-27T16:29:03Z</time>
      </trkpt>
      <trkpt lat="45.46156" lon="4.17435">
        <ele>513</ele>
        <time>2017-07-27T16:31:03Z</time>
      </trkpt>
      <trkpt lat="45.46156" lon="4.17439">
        <ele>512</ele>
        <time>2017-07-27T16:33:03Z</time>
      </trkpt>
      <trkpt lat="45.46159" lon="4.17442">
        <ele>511</ele>
        <time>2017-07-27T16:35:03Z</time>
      </trkpt>
      <trkpt lat="45.46163" lon="4.17442">
        <ele>510</ele>
        <time>2017-07-27T16:37:03Z</time>
      </trkpt>
      <trkpt lat="45.46178" lon="4.17445">
        <ele>508</ele>
        <time>2017-07-27T16:39:03Z</time>
      </trkpt>
      <trkpt lat="45.46215" lon="4.17462">
        <ele>501</ele>
        <time>2017-07-27T16:41:03Z</time>
      </trkpt>
      <trkpt lat="45.46223" lon="4.17466">
        <ele>500</ele>
        <time>2017-07-27T16:43:03Z</time>
      </trkpt>
      <trkpt lat="45.46249" lon="4.17473">
        <ele>497</ele>
        <time>2017-07-27T16:45:03Z</time>
      </trkpt>
      <trkpt lat="45.46274" lon="4.17483">
        <ele>493</ele>
        <time>2017-07-27T16:47:03Z</time>
      </trkpt>
      <trkpt lat="45.46282" lon="4.17486">
        <ele>492</ele>
        <time>2017-07-27T16:49:03Z</time>
      </trkpt>
      <trkpt lat="45.4629" lon="4.17487">
        <ele>492</ele>
        <time>2017-07-27T16:51:03Z</time>
      </trkpt>
      <trkpt lat="45.46307" lon="4.17489">
        <ele>490</ele>
        <time>2017-07-27T16:53:03Z</time>
      </trkpt>
      <trkpt lat="45.46317" lon="4.17492">
        <ele>488</ele>
        <time>2017-07-27T16:55:03Z</time>
      </trkpt>
      <trkpt lat="45.46326" lon="4.17495">
        <ele>488</ele>
        <time>2017-07-27T16:57:03Z</time>
      </trkpt>
      <trkpt lat="45.46334" lon="4.17499">
        <ele>487</ele>
        <time>2017-07-27T16:59:03Z</time>
      </trkpt>
      <trkpt lat="45.46349" lon="4.17505">
        <ele>485</ele>
        <time>2017-07-27T17:01:03Z</time>
      </trkpt>
      <trkpt lat="45.46363" lon="4.17511">
        <ele>483</ele>
        <time>2017-07-27T17:03:03Z</time>
      </trkpt>
      <trkpt lat="45.4637" lon="4.17512">
        <ele>483</ele>
        <time>2017-07-27T17:05:03Z</time>
      </trkpt>
      <trkpt lat="45.46377" lon="4.17513">
        <ele>482</ele>
        <time>2017-07-27T17:07:03Z</time>
      </trkpt>
      <trkpt lat="45.46384" lon="4.17514">
        <ele>481</ele>
        <time>2017-07-27T17:09:03Z</time>
      </trkpt>
      <trkpt lat="45.46397" lon="4.1752">
        <ele>479</ele>
        <time>2017-07-27T17:11:03Z</time>
      </trkpt>
      <trkpt lat="45.46404" lon="4.17522">
        <ele>479</ele>
        <time>2017-07-27T17:13:03Z</time>
      </trkpt>
      <trkpt lat="45.46416" lon="4.17528">
        <ele>477</ele>
        <time>2017-07-27T17:15:03Z</time>
      </trkpt>
      <trkpt lat="45.46427" lon="4.17529">
        <ele>475</ele>
        <time>2017-07-27T17:17:03Z</time>
      </trkpt>
      <trkpt lat="45.46431" lon="4.17525">
        <ele>474</ele>
        <time>2017-07-27T17:19:03Z</time>
      </trkpt>
      <trkpt lat="45.46436" lon="4.17521">
        <ele>473</ele>
        <time>2017-07-27T17:21:03Z</time>
      </trkpt>
      <trkpt lat="45.46446" lon="4.17513">
        <ele>471</ele>
        <time>2017-07-27T17:23:03Z</time>
      </trkpt>
      <trkpt lat="45.46451" lon="4.17506">
        <ele>471</ele>
        <time>2017-07-27T17:25:03Z</time>
      </trkpt>
      <trkpt lat="45.46454" lon="4.17497">
        <ele>470</ele>
        <time>2017-07-27T17:27:03Z</time>
      </trkpt>
      <trkpt lat="45.46458" lon="4.17469">
        <ele>468</ele>
        <time>2017-07-27T17:29:03Z</time>
      </trkpt>
      <trkpt lat="45.46461" lon="4.1746">
        <ele>467</ele>
        <time>2017-07-27T17:31:03Z</time>
      </trkpt>
      <trkpt lat="45.46467" lon="4.17441">
        <ele>465</ele>
        <time>2017-07-27T17:33:03Z</time>
      </trkpt>
      <trkpt lat="45.4647" lon="4.17433">
        <ele>465</ele>
        <time>2017-07-27T17:35:03Z</time>
      </trkpt>
      <trkpt lat="45.46473" lon="4.17425">
        <ele>464</ele>
        <time>2017-07-27T17:37:03Z</time>
      </trkpt>
      <trkpt lat="45.46476" lon="4.17418">
        <ele>463</ele>
        <time>2017-07-27T17:39:03Z</time>
      </trkpt>
      <trkpt lat="45.46478" lon="4.17412">
        <ele>463</ele>
        <time>2017-07-27T17:41:03Z</time>
      </trkpt>
      <trkpt lat="45.4648" lon="4.17409">
        <ele>463</ele>
        <time>2017-07-27T17:43:03Z</time>
      </trkpt>
      <trkpt lat="45.46485" lon="4.17403">
        <ele>462</ele>
        <time>2017-07-27T17:45:03Z</time>
      </trkpt>
      <trkpt lat="45.4649" lon="4.174">
        <ele>462</ele>
        <time>2017-07-27T17:47:03Z</time>
      </trkpt>
      <trkpt lat="45.46494" lon="4.174">
        <ele>461</ele>
        <time>2017-07-27T17:49:03Z</time>
      </trkpt>
      <trkpt lat="45.46503" lon="4.17404">
        <ele>461</ele>
        <time>2017-07-27T17:51:03Z</time>
      </trkpt>
      <trkpt lat="45.46512" lon="4.1741">
        <ele>462</ele>
        <time>2017-07-27T17:53:03Z</time>
      </trkpt>
      <trkpt lat="45.46524" lon="4.17417">
        <ele>463</ele>
        <time>2017-07-27T17:55:03Z</time>
      </trkpt>
      <trkpt lat="45.4654" lon="4.17433">
        <ele>465</ele>
        <time>2017-07-27T17:57:03Z</time>
      </trkpt>
      <trkpt lat="45.46543" lon="4.1744">
        <ele>465</ele>
        <time>2017-07-27T17:59:03Z</time>
      </trkpt>
      <trkpt lat="45.46545" lon="4.17449">
        <ele>466</ele>
        <time>2017-07-27T18:01:03Z</time>
      </trkpt>
      <trkpt lat="45.46544" lon="4.17465">
        <ele>466</ele>
        <time>2017-07-27T18:03:03Z</time>
      </trkpt>
      <trkpt lat="45.46537" lon="4.17479">
        <ele>465</ele>
        <time>2017-07-27T18:05:03Z</time>
      </trkpt>
      <trkpt lat="45.46534" lon="4.17486">
        <ele>465</ele>
        <time>2017-07-27T18:07:03Z</time>
      </trkpt>
      <trkpt lat="45.46529" lon="4.17493">
        <ele>464</ele>
        <time>2017-07-27T18:09:03Z</time>
      </trkpt>
      <trkpt lat="45.46512" lon="4.17515">
        <ele>461</ele>
        <time>2017-07-27T18:11:03Z</time>
      </trkpt>
      <trkpt lat="45.46513" lon="4.17518">
        <ele>461</ele>
        <time>2017-07-27T18:13:03Z</time>
      </trkpt>
      <trkpt lat="45.46512" lon="4.17532">
        <ele>461</ele>
        <time>2017-07-27T18:15:03Z</time>
      </trkpt>
      <trkpt lat="45.46507" lon="4.17553">
        <ele>460</ele>
        <time>2017-07-27T18:17:03Z</time>
      </trkpt>
      <trkpt lat="45.46505" lon="4.17559">
        <ele>460</ele>
        <time>2017-07-27T18:19:03Z</time>
      </trkpt>
      <trkpt lat="45.46505" lon="4.17574">
        <ele>460</ele>
        <time>2017-07-27T18:21:03Z</time>
      </trkpt>
      <trkpt lat="45.46507" lon="4.17587">
        <ele>460</ele>
        <time>2017-07-27T18:23:03Z</time>
      </trkpt>
      <trkpt lat="45.46509" lon="4.17602">
        <ele>461</ele>
        <time>2017-07-27T18:25:03Z</time>
      </trkpt>
      <trkpt lat="45.46512" lon="4.17608">
        <ele>461</ele>
        <time>2017-07-27T18:27:03Z</time>
      </trkpt>
      <trkpt lat="45.46515" lon="4.1762">
        <ele>462</ele>
        <time>2017-07-27T18:29:03Z</time>
      </trkpt>
      <trkpt lat="45.46515" lon="4.17623">
        <ele>462</ele>
        <time>2017-07-27T18:31:03Z</time>
      </trkpt>
      <trkpt lat="45.46517" lon="4.17636">
        <ele>462</ele>
        <time>2017-07-27T18:33:03Z</time>
      </trkpt>
      <trkpt lat="45.46518" lon="4.17639">
        <ele>462</ele>
        <time>2017-07-27T18:35:03Z</time>
      </trkpt>
      <trkpt lat="45.46519" lon="4.17647">
        <ele>462</ele>
        <time>2017-07-27T18:37:03Z</time>
      </trkpt>
      <trkpt lat="45.46518" lon="4.17649">
        <ele>462</ele>
        <time>2017-07-27T18:39:03Z</time>
      </trkpt>
      <trkpt lat="45.46514" lon="4.17655">
        <ele>461</ele>
        <time>2017-07-27T18:41:03Z</time>
      </trkpt>
      <trkpt lat="45.46508" lon="4.17663">
        <ele>460</ele>
        <time>2017-07-27T18:43:03Z</time>
      </trkpt>
      <trkpt lat="45.46505" lon="4.17667">
        <ele>459</ele>
        <time>2017-07-27T18:45:03Z</time>
      </trkpt>
      <trkpt lat="45.46501" lon="4.1767">
        <ele>458</ele>
        <time>2017-07-27T18:47:03Z</time>
      </trkpt>
      <trkpt lat="45.46492" lon="4.17682">
        <ele>458</ele>
        <time>2017-07-27T18:49:03Z</time>
      </trkpt>
      <trkpt lat="45.46491" lon="4.17688">
        <ele>458</ele>
        <time>2017-07-27T18:51:03Z</time>
      </trkpt>
      <trkpt lat="45.46488" lon="4.17698">
        <ele>457</ele>
        <time>2017-07-27T18:53:03Z</time>
      </trkpt>
      <trkpt lat="45.46486" lon="4.17713">
        <ele>457</ele>
        <time>2017-07-27T18:55:03Z</time>
      </trkpt>
      <trkpt lat="45.46489" lon="4.17719">
        <ele>457</ele>
        <time>2017-07-27T18:57:03Z</time>
      </trkpt>
      <trkpt lat="45.46495" lon="4.17725">
        <ele>457</ele>
        <time>2017-07-27T18:59:03Z</time>
      </trkpt>
      <trkpt lat="45.46501" lon="4.17726">
        <ele>457</ele>
        <time>2017-07-27T19:01:03Z</time>
      </trkpt>
      <trkpt lat="45.46511" lon="4.17729">
        <ele>459</ele>
        <time>2017-07-27T19:03:03Z</time>
      </trkpt>
      <trkpt lat="45.46512" lon="4.1773">
        <ele>459</ele>
        <time>2017-07-27T19:05:03Z</time>
      </trkpt>
      <trkpt lat="45.46524" lon="4.17739">
        <ele>461</ele>
        <time>2017-07-27T19:07:03Z</time>
      </trkpt>
      <trkpt lat="45.46534" lon="4.17747">
        <ele>462</ele>
        <time>2017-07-27T19:09:03Z</time>
      </trkpt>
      <trkpt lat="45.46547" lon="4.17755">
        <ele>464</ele>
        <time>2017-07-27T19:11:03Z</time>
      </trkpt>
      <trkpt lat="45.46549" lon="4.17757">
        <ele>464</ele>
        <time>2017-07-27T19:13:03Z</time>
      </trkpt>
      <trkpt lat="45.46561" lon="4.17765">
        <ele>465</ele>
        <time>2017-07-27T19:15:03Z</time>
      </trkpt>
      <trkpt lat="45.46578" lon="4.17771">
        <ele>467</ele>
        <time>2017-07-27T19:17:03Z</time>
      </trkpt>
      <trkpt lat="45.4659" lon="4.17773">
        <ele>468</ele>
        <time>2017-07-27T19:19:03Z</time>
      </trkpt>
      <trkpt lat="45.46595" lon="4.17775">
        <ele>468</ele>
        <time>2017-07-27T19:21:03Z</time>
      </trkpt>
      <trkpt lat="45.46606" lon="4.17777">
        <ele>468</ele>
        <time>2017-07-27T19:23:03Z</time>
      </trkpt>
      <trkpt lat="45.46616" lon="4.17777">
        <ele>469</ele>
        <time>2017-07-27T19:25:03Z</time>
      </trkpt>
      <trkpt lat="45.46621" lon="4.17776">
        <ele>469</ele>
        <time>2017-07-27T19:27:03Z</time>
      </trkpt>
      <trkpt lat="45.46639" lon="4.17775">
        <ele>470</ele>
        <time>2017-07-27T19:29:03Z</time>
      </trkpt>
      <trkpt lat="45.4665" lon="4.17775">
        <ele>470</ele>
        <time>2017-07-27T19:31:03Z</time>
      </trkpt>
      <trkpt lat="45.46657" lon="4.17774">
        <ele>471</ele>
        <time>2017-07-27T19:33:03Z</time>
      </trkpt>
      <trkpt lat="45.4668" lon="4.17768">
        <ele>473</ele>
        <time>2017-07-27T19:35:03Z</time>
      </trkpt>
      <trkpt lat="45.46688" lon="4.17764">
        <ele>474</ele>
        <time>2017-07-27T19:37:03Z</time>
      </trkpt>
      <trkpt lat="45.46701" lon="4.1776">
        <ele>475</ele>
        <time>2017-07-27T19:39:03Z</time>
      </trkpt>
      <trkpt lat="45.46718" lon="4.17762">
        <ele>475</ele>
        <time>2017-07-27T19:41:03Z</time>
      </trkpt>
      <trkpt lat="45.46735" lon="4.1777">
        <ele>474</ele>
        <time>2017-07-27T19:43:03Z</time>
      </trkpt>
      <trkpt lat="45.46756" lon="4.17773">
        <ele>474</ele>
        <time>2017-07-27T19:45:03Z</time>
      </trkpt>
      <trkpt lat="45.46773" lon="4.1777">
        <ele>475</ele>
        <time>2017-07-27T19:47:03Z</time>
      </trkpt>
      <trkpt lat="45.46782" lon="4.17766">
        <ele>476</ele>
        <time>2017-07-27T19:49:03Z</time>
      </trkpt>
      <trkpt lat="45.46794" lon="4.17761">
        <ele>477</ele>
        <time>2017-07-27T19:51:03Z</time>
      </trkpt>
      <trkpt lat="45.46802" lon="4.17759">
        <ele>478</ele>
        <time>2017-07-27T19:53:03Z</time>
      </trkpt>
      <trkpt lat="45.4682" lon="4.17751">
        <ele>479</ele>
        <time>2017-07-27T19:55:03Z</time>
      </trkpt>
      <trkpt lat="45.4684" lon="4.17739">
        <ele>481</ele>
        <time>2017-07-27T19:57:03Z</time>
      </trkpt>
      <trkpt lat="45.46851" lon="4.17734">
        <ele>483</ele>
        <time>2017-07-27T19:59:03Z</time>
      </trkpt>
      <trkpt lat="45.46859" lon="4.17732">
        <ele>483</ele>
        <time>2017-07-27T20:01:03Z</time>
      </trkpt>
      <trkpt lat="45.46871" lon="4.17726">
        <ele>485</ele>
        <time>2017-07-27T20:03:03Z</time>
      </trkpt>
      <trkpt lat="45.46876" lon="4.17722">
        <ele>486</ele>
        <time>2017-07-27T20:05:03Z</time>
      </trkpt>
      <trkpt lat="45.46883" lon="4.17717">
        <ele>487</ele>
        <time>2017-07-27T20:07:03Z</time>
      </trkpt>
      <trkpt lat="45.46891" lon="4.17716">
        <ele>488</ele>
        <time>2017-07-27T20:09:03Z</time>
      </trkpt>
      <trkpt lat="45.46911" lon="4.17723">
        <ele>488</ele>
        <time>2017-07-27T20:11:03Z</time>
      </trkpt>
      <trkpt lat="45.46919" lon="4.17723">
        <ele>488</ele>
        <time>2017-07-27T20:13:03Z</time>
      </trkpt>
      <trkpt lat="45.46938" lon="4.17722">
        <ele>490</ele>
        <time>2017-07-27T20:15:03Z</time>
      </trkpt>
      <trkpt lat="45.46954" lon="4.17717">
        <ele>491</ele>
        <time>2017-07-27T20:17:03Z</time>
      </trkpt>
      <trkpt lat="45.46969" lon="4.17714">
        <ele>492</ele>
        <time>2017-07-27T20:19:03Z</time>
      </trkpt>
      <trkpt lat="45.46974" lon="4.1771">
        <ele>493</ele>
        <time>2017-07-27T20:21:03Z</time>
      </trkpt>
      <trkpt lat="45.46983" lon="4.17713">
        <ele>493</ele>
        <time>2017-07-27T20:23:03Z</time>
      </trkpt>
      <trkpt lat="45.46989" lon="4.17711">
        <ele>493</ele>
        <time>2017-07-27T20:25:03Z</time>
      </trkpt>
      <trkpt lat="45.47003" lon="4.17701">
        <ele>494</ele>
        <time>2017-07-27T20:27:03Z</time>
      </trkpt>
      <trkpt lat="45.47007" lon="4.17697">
        <ele>494</ele>
        <time>2017-07-27T20:29:03Z</time>
      </trkpt>
      <trkpt lat="45.47005" lon="4.17682">
        <ele>495</ele>
        <time>2017-07-27T20:31:03Z</time>
      </trkpt>
      <trkpt lat="45.47005" lon="4.17661">
        <ele>496</ele>
        <time>2017-07-27T20:33:03Z</time>
      </trkpt>
      <trkpt lat="45.47006" lon="4.17643">
        <ele>496</ele>
        <time>2017-07-27T20:35:03Z</time>
      </trkpt>
      <trkpt lat="45.47006" lon="4.17632">
        <ele>496</ele>
        <time>2017-07-27T20:37:03Z</time>
      </trkpt>
      <trkpt lat="45.47003" lon="4.17611">
        <ele>496</ele>
        <time>2017-07-27T20:39:03Z</time>
      </trkpt>
      <trkpt lat="45.47" lon="4.17595">
        <ele>496</ele>
        <time>2017-07-27T20:41:03Z</time>
      </trkpt>
      <trkpt lat="45.46997" lon="4.17574">
        <ele>496</ele>
        <time>2017-07-27T20:43:03Z</time>
      </trkpt>
      <trkpt lat="45.46996" lon="4.1754">
        <ele>497</ele>
        <time>2017-07-27T20:45:03Z</time>
      </trkpt>
      <trkpt lat="45.47" lon="4.1751">
        <ele>498</ele>
        <time>2017-07-27T20:47:03Z</time>
      </trkpt>
      <trkpt lat="45.47008" lon="4.17485">
        <ele>498</ele>
        <time>2017-07-27T20:49:03Z</time>
      </trkpt>
      <trkpt lat="45.47011" lon="4.17461">
        <ele>499</ele>
        <time>2017-07-27T20:51:03Z</time>
      </trkpt>
      <trkpt lat="45.47011" lon="4.17437">
        <ele>500</ele>
        <time>2017-07-27T20:53:03Z</time>
      </trkpt>
      <trkpt lat="45.4701" lon="4.17415">
        <ele>502</ele>
        <time>2017-07-27T20:55:03Z</time>
      </trkpt>
      <trkpt lat="45.47006" lon="4.17394">
        <ele>502</ele>
        <time>2017-07-27T20:57:03Z</time>
      </trkpt>
      <trkpt lat="45.46999" lon="4.17358">
        <ele>504</ele>
        <time>2017-07-27T20:59:03Z</time>
      </trkpt>
      <trkpt lat="45.46998" lon="4.17336">
        <ele>504</ele>
        <time>2017-07-27T21:01:03Z</time>
      </trkpt>
      <trkpt lat="45.46997" lon="4.17312">
        <ele>506</ele>
        <time>2017-07-27T21:03:03Z</time>
      </trkpt>
      <trkpt lat="45.46997" lon="4.17295">
        <ele>507</ele>
        <time>2017-07-27T21:05:03Z</time>
      </trkpt>
      <trkpt lat="45.46998" lon="4.17287">
        <ele>508</ele>
        <time>2017-07-27T21:07:03Z</time>
      </trkpt>
      <trkpt lat="45.47002" lon="4.17273">
        <ele>508</ele>
        <time>2017-07-27T21:09:03Z</time>
      </trkpt>
      <trkpt lat="45.47012" lon="4.17254">
        <ele>508</ele>
        <time>2017-07-27T21:11:03Z</time>
      </trkpt>
      <trkpt lat="45.47023" lon="4.17232">
        <ele>509</ele>
        <time>2017-07-27T21:13:03Z</time>
      </trkpt>
      <trkpt lat="45.47037" lon="4.17213">
        <ele>509</ele>
        <time>2017-07-27T21:15:03Z</time>
      </trkpt>
      <trkpt lat="45.47047" lon="4.17194">
        <ele>509</ele>
        <time>2017-07-27T21:17:03Z</time>
      </trkpt>
      <trkpt lat="45.47049" lon="4.17181">
        <ele>510</ele>
        <time>2017-07-27T21:19:03Z</time>
      </trkpt>
      <trkpt lat="45.47052" lon="4.17166">
        <ele>511</ele>
        <time>2017-07-27T21:21:03Z</time>
      </trkpt>
      <trkpt lat="45.47054" lon="4.17157">
        <ele>511</ele>
        <time>2017-07-27T21:23:03Z</time>
      </trkpt>
      <trkpt lat="45.47058" lon="4.17139">
        <ele>511</ele>
        <time>2017-07-27T21:25:03Z</time>
      </trkpt>
      <trkpt lat="45.47059" lon="4.1712">
        <ele>512</ele>
        <time>2017-07-27T21:27:03Z</time>
      </trkpt>
      <trkpt lat="45.47058" lon="4.17095">
        <ele>513</ele>
        <time>2017-07-27T21:29:03Z</time>
      </trkpt>
      <trkpt lat="45.47058" lon="4.17073">
        <ele>514</ele>
        <time>2017-07-27T21:31:03Z</time>
      </trkpt>
      <trkpt lat="45.47058" lon="4.17054">
        <ele>514</ele>
        <time>2017-07-27T21:33:03Z</time>
      </trkpt>
      <trkpt lat="45.47062" lon="4.17032">
        <ele>514</ele>
        <time>2017-07-27T21:35:03Z</time>
      </trkpt>
      <trkpt lat="45.47066" lon="4.17007">
        <ele>514</ele>
        <time>2017-07-27T21:37:03Z</time>
      </trkpt>
      <trkpt lat="45.47062" lon="4.16969">
        <ele>517</ele>
        <time>2017-07-27T21:39:03Z</time>
      </trkpt>
      <trkpt lat="45.47061" lon="4.16965">
        <ele>517</ele>
        <time>2017-07-27T21:41:03Z</time>
      </trkpt>
      <trkpt lat="45.4706" lon="4.16944">
        <ele>518</ele>
        <time>2017-07-27T21:43:03Z</time>
      </trkpt>
      <trkpt lat="45.47071" lon="4.16932">
        <ele>517</ele>
        <time>2017-07-27T21:45:03Z</time>
      </trkpt>
      <trkpt lat="45.47073" lon="4.16929">
        <ele>516</ele>
        <time>2017-07-27T21:47:03Z</time>
      </trkpt>
      <trkpt lat="45.47081" lon="4.16912">
        <ele>516</ele>
        <time>2017-07-27T21:49:03Z</time>
      </trkpt>
      <trkpt lat="45.47087" lon="4.16883">
        <ele>516</ele>
        <time>2017-07-27T21:51:03Z</time>
      </trkpt>
      <trkpt lat="45.47096" lon="4.16861">
        <ele>516</ele>
        <time>2017-07-27T21:53:03Z</time>
      </trkpt>
      <trkpt lat="45.47107" lon="4.16842">
        <ele>515</ele>
        <time>2017-07-27T21:55:03Z</time>
      </trkpt>
      <trkpt lat="45.47108" lon="4.16822">
        <ele>516</ele>
        <time>2017-07-27T21:57:03Z</time>
      </trkpt>
      <trkpt lat="45.47105" lon="4.16797">
        <ele>517</ele>
        <time>2017-07-27T21:59:03Z</time>
      </trkpt>
      <trkpt lat="45.47105" lon="4.16793">
        <ele>517</ele>
        <time>2017-07-27T22:01:03Z</time>
      </trkpt>
      <trkpt lat="45.47102" lon="4.16757">
        <ele>519</ele>
        <time>2017-07-27T22:03:03Z</time>
      </trkpt>
      <trkpt lat="45.47096" lon="4.16742">
        <ele>520</ele>
        <time>2017-07-27T22:05:03Z</time>
      </trkpt>
      <trkpt lat="45.47089" lon="4.16739">
        <ele>522</ele>
        <time>2017-07-27T22:07:03Z</time>
      </trkpt>
      <trkpt lat="45.4708" lon="4.16736">
        <ele>524</ele>
        <time>2017-07-27T22:09:03Z</time>
      </trkpt>
      <trkpt lat="45.47066" lon="4.16734">
        <ele>526</ele>
        <time>2017-07-27T22:11:03Z</time>
      </trkpt>
      <trkpt lat="45.47061" lon="4.16733">
        <ele>527</ele>
        <time>2017-07-27T22:13:03Z</time>
      </trkpt>
      <trkpt lat="45.47055" lon="4.16732">
        <ele>528</ele>
        <time>2017-07-27T22:15:03Z</time>
      </trkpt>
      <trkpt lat="45.47051" lon="4.16731">
        <ele>529</ele>
        <time>2017-07-27T22:17:03Z</time>
      </trkpt>
      <trkpt lat="45.47047" lon="4.1673">
        <ele>529</ele>
        <time>2017-07-27T22:19:03Z</time>
      </trkpt>
      <trkpt lat="45.47043" lon="4.16731">
        <ele>530</ele>
        <time>2017-07-27T22:21:03Z</time>
      </trkpt>
      <trkpt lat="45.47041" lon="4.16731">
        <ele>530</ele>
        <time>2017-07-27T22:23:03Z</time>
      </trkpt>
      <trkpt lat="45.47032" lon="4.16729">
        <ele>532</ele>
        <time>2017-07-27T22:25:03Z</time>
      </trkpt>
      <trkpt lat="45.47028" lon="4.16725">
        <ele>532</ele>
        <time>2017-07-27T22:27:03Z</time>
      </trkpt>
      <trkpt lat="45.47024" lon="4.16716">
        <ele>533</ele>
        <time>2017-07-27T22:29:03Z</time>
      </trkpt>
      <trkpt lat="45.47021" lon="4.16711">
        <ele>534</ele>
        <time>2017-07-27T22:31:03Z</time>
      </trkpt>
      <trkpt lat="45.4702" lon="4.16709">
        <ele>534</ele>
        <time>2017-07-27T22:33:03Z</time>
      </trkpt>
      <trkpt lat="45.47013" lon="4.16689">
        <ele>535</ele>
        <time>2017-07-27T22:35:03Z</time>
      </trkpt>
      <trkpt lat="45.47011" lon="4.16684">
        <ele>535</ele>
        <time>2017-07-27T22:37:03Z</time>
      </trkpt>
      <trkpt lat="45.47007" lon="4.16677">
        <ele>536</ele>
        <time>2017-07-27T22:39:03Z</time>
      </trkpt>
      <trkpt lat="45.47007" lon="4.16674">
        <ele>536</ele>
        <time>2017-07-27T22:41:03Z</time>
      </trkpt>
      <trkpt lat="45.47005" lon="4.16657">
        <ele>537</ele>
        <time>2017-07-27T22:43:03Z</time>
      </trkpt>
      <trkpt lat="45.47001" lon="4.1665">
        <ele>537</ele>
        <time>2017-07-27T22:45:03Z</time>
      </trkpt>
      <trkpt lat="45.46993" lon="4.1664">
        <ele>539</ele>
        <time>2017-07-27T22:47:03Z</time>
      </trkpt>
      <trkpt lat="45.46987" lon="4.16635">
        <ele>539</ele>
        <time>2017-07-27T22:49:03Z</time>
      </trkpt>
      <trkpt lat="45.46984" lon="4.1663">
        <ele>540</ele>
        <time>2017-07-27T22:51:03Z</time>
      </trkpt>
      <trkpt lat="45.46983" lon="4.16624">
        <ele>540</ele>
        <time>2017-07-27T22:53:03Z</time>
      </trkpt>
      <trkpt lat="45.46984" lon="4.16617">
        <ele>540</ele>
        <time>2017-07-27T22:55:03Z</time>
      </trkpt>
      <trkpt lat="45.46974" lon="4.16588">
        <ele>542</ele>
        <time>2017-07-27T22:57:03Z</time>
      </trkpt>
      <trkpt lat="45.46967" lon="4.16561">
        <ele>543</ele>
        <time>2017-07-27T22:59:03Z</time>
      </trkpt>
      <trkpt lat="45.46957" lon="4.16513">
        <ele>544</ele>
        <time>2017-07-27T23:01:03Z</time>
      </trkpt>
      <trkpt lat="45.46955" lon="4.16494">
        <ele>544</ele>
        <time>2017-07-27T23:03:03Z</time>
      </trkpt>
      <trkpt lat="45.46953" lon="4.16461">
        <ele>543</ele>
        <time>2017-07-27T23:05:03Z</time>
      </trkpt>
      <trkpt lat="45.46953" lon="4.16453">
        <ele>543</ele>
        <time>2017-07-27T23:07:03Z</time>
      </trkpt>
      <trkpt lat="45.46941" lon="4.16429">
        <ele>544</ele>
        <time>2017-07-27T23:09:03Z</time>
      </trkpt>
      <trkpt lat="45.46934" lon="4.16418">
        <ele>544</ele>
        <time>2017-07-27T23:11:03Z</time>
      </trkpt>
      <trkpt lat="45.46929" lon="4.16408">
        <ele>544</ele>
        <time>2017-07-27T23:13:03Z</time>
      </trkpt>
      <trkpt lat="45.46924" lon="4.16397">
        <ele>545</ele>
        <time>2017-07-27T23:15:03Z</time>
      </trkpt>
      <trkpt lat="45.46921" lon="4.16389">
        <ele>545</ele>
        <time>2017-07-27T23:17:03Z</time>
      </trkpt>
      <trkpt lat="45.46911" lon="4.16372">
        <ele>545</ele>
        <time>2017-07-27T23:19:03Z</time>
      </trkpt>
      <trkpt lat="45.469" lon="4.16348">
        <ele>545</ele>
        <time>2017-07-27T23:21:03Z</time>
      </trkpt>
      <trkpt lat="45.46891" lon="4.16316">
        <ele>546</ele>
        <time>2017-07-27T23:23:03Z</time>
      </trkpt>
      <trkpt lat="45.46884" lon="4.16292">
        <ele>547</ele>
        <time>2017-07-27T23:25:03Z</time>
      </trkpt>
      <trkpt lat="45.46881" lon="4.16278">
        <ele>547</ele>
        <time>2017-07-27T23:27:03Z</time>
      </trkpt>
      <trkpt lat="45.46872" lon="4.16252">
        <ele>548</ele>
        <time>2017-07-27T23:29:03Z</time>
      </trkpt>
      <trkpt lat="45.46869" lon="4.16247">
        <ele>548</ele>
        <time>2017-07-27T23:31:03Z</time>
      </trkpt>
      <trkpt lat="45.46871" lon="4.16241">
        <ele>548</ele>
        <time>2017-07-27T23:33:03Z</time>
      </trkpt>
      <trkpt lat="45.46891" lon="4.16227">
        <ele>547</ele>
        <time>2017-07-27T23:35:03Z</time>
      </trkpt>
      <trkpt lat="45.46896" lon="4.16223">
        <ele>547</ele>
        <time>2017-07-27T23:37:03Z</time>
      </trkpt>
      <trkpt lat="45.46913" lon="4.16204">
        <ele>547</ele>
        <time>2017-07-27T23:39:03Z</time>
      </trkpt>
      <trkpt lat="45.46929" lon="4.16191">
        <ele>546</ele>
        <time>2017-07-27T23:41:03Z</time>
      </trkpt>
      <trkpt lat="45.46934" lon="4.16187">
        <ele>546</ele>
        <time>2017-07-27T23:43:03Z</time>
      </trkpt>
      <trkpt lat="45.46938" lon="4.16174">
        <ele>546</ele>
        <time>2017-07-27T23:45:03Z</time>
      </trkpt>
      <trkpt lat="45.46939" lon="4.16168">
        <ele>546</ele>
        <time>2017-07-27T23:47:03Z</time>
      </trkpt>
      <trkpt lat="45.46938" lon="4.16159">
        <ele>546</ele>
        <time>2017-07-27T23:49:03Z</time>
      </trkpt>
      <trkpt lat="45.46937" lon="4.16149">
        <ele>547</ele>
        <time>2017-07-27T23:51:03Z</time>
      </trkpt>
      <trkpt lat="45.46933" lon="4.16119">
        <ele>548</ele>
        <time>2017-07-27T23:53:03Z</time>
      </trkpt>
      <trkpt lat="45.46933" lon="4.1611">
        <ele>548</ele>
        <time>2017-07-27T23:55:03Z</time>
      </trkpt>
      <trkpt lat="45.46933" lon="4.16087">
        <ele>549</ele>
        <time>2017-07-27T23:57:03Z</time>
      </trkpt>
      <trkpt lat="45.46932" lon="4.16065">
        <ele>550</ele>
        <time>2017-07-27T23:59:03Z</time>
      </trkpt>
      <trkpt lat="45.46929" lon="4.16063">
        <ele>550</ele>
        <time>2017-07-28T00:01:03Z</time>
      </trkpt>
      <trkpt lat="45.46926" lon="4.16063">
        <ele>551</ele>
        <time>2017-07-28T00:03:03Z</time>
      </trkpt>
      <trkpt lat="45.46919" lon="4.16064">
        <ele>552</ele>
        <time>2017-07-28T00:05:03Z</time>
      </trkpt>
      <trkpt lat="45.46909" lon="4.16064">
        <ele>553</ele>
        <time>2017-07-28T00:07:03Z</time>
      </trkpt>
      <trkpt lat="45.46902" lon="4.16062">
        <ele>553</ele>
        <time>2017-07-28T00:09:03Z</time>
      </trkpt>
      <trkpt lat="45.46885" lon="4.16062">
        <ele>555</ele>
        <time>2017-07-28T00:11:03Z</time>
      </trkpt>
      <trkpt lat="45.46882" lon="4.16062">
        <ele>555</ele>
        <time>2017-07-28T00:13:03Z</time>
      </trkpt>
      <trkpt lat="45.46871" lon="4.16062">
        <ele>556</ele>
        <time>2017-07-28T00:15:03Z</time>
      </trkpt>
      <trkpt lat="45.46854" lon="4.16064">
        <ele>557</ele>
        <time>2017-07-28T00:17:03Z</time>
      </trkpt>
      <trkpt lat="45.46847" lon="4.16063">
        <ele>558</ele>
        <time>2017-07-28T00:19:03Z</time>
      </trkpt>
      <trkpt lat="45.46844" lon="4.16062">
        <ele>558</ele>
        <time>2017-07-28T00:21:03Z</time>
      </trkpt>
      <trkpt lat="45.46833" lon="4.16054">
        <ele>560</ele>
        <time>2017-07-28T00:23:03Z</time>
      </trkpt>
      <trkpt lat="45.46828" lon="4.16051">
        <ele>560</ele>
        <time>2017-07-28T00:25:03Z</time>
      </trkpt>
      <trkpt lat="45.46821" lon="4.16047">
        <ele>560</ele>
        <time>2017-07-28T00:27:03Z</time>
      </trkpt>
      <trkpt lat="45.46811" lon="4.16039">
        <ele>561</ele>
        <time>2017-07-28T00:29:03Z</time>
      </trkpt>
      <trkpt lat="45.46806" lon="4.16035">
        <ele>562</ele>
        <time>2017-07-28T00:31:03Z</time>
      </trkpt>
      <trkpt lat="45.46803" lon="4.16033">
        <ele>562</ele>
        <time>2017-07-28T00:33:03Z</time>
      </trkpt>
      <trkpt lat="45.46791" lon="4.16023">
        <ele>563</ele>
        <time>2017-07-28T00:35:03Z</time>
      </trkpt>
      <trkpt lat="45.46787" lon="4.1602">
        <ele>563</ele>
        <time>2017-07-28T00:37:03Z</time>
      </trkpt>
      <trkpt lat="45.46773" lon="4.16014">
        <ele>564</ele>
        <time>2017-07-28T00:39:03Z</time>
      </trkpt>
      <trkpt lat="45.46754" lon="4.15998">
        <ele>565</ele>
        <time>2017-07-28T00:41:03Z</time>
      </trkpt>
      <trkpt lat="45.46741" lon="4.15989">
        <ele>566</ele>
        <time>2017-07-28T00:43:03Z</time>
      </trkpt>
      <trkpt lat="45.46732" lon="4.15981">
        <ele>567</ele>
        <time>2017-07-28T00:45:03Z</time>
      </trkpt>
      <trkpt lat="45.46717" lon="4.15971">
        <ele>568</ele>
        <time>2017-07-28T00:47:03Z</time>
      </trkpt>
      <trkpt lat="45.46706" lon="4.15957">
        <ele>570</ele>
        <time>2017-07-28T00:49:03Z</time>
      </trkpt>
      <trkpt lat="45.46702" lon="4.1595">
        <ele>570</ele>
        <time>2017-07-28T00:51:03Z</time>
      </trkpt>
      <trkpt lat="45.46696" lon="4.15941">
        <ele>571</ele>
        <time>2017-07-28T00:53:03Z</time>
      </trkpt>
      <trkpt lat="45.46685" lon="4.15922">
        <ele>574</ele>
        <time>2017-07-28T00:55:03Z</time>
      </trkpt>
      <trkpt lat="45.46676" lon="4.15905">
        <ele>575</ele>
        <time>2017-07-28T00:57:03Z</time>
      </trkpt>
      <trkpt lat="45.46669" lon="4.15889">
        <ele>575</ele>
        <time>2017-07-28T00:59:03Z</time>
      </trkpt>
      <trkpt lat="45.46664" lon="4.1588">
        <ele>575</ele>
        <time>2017-07-28T01:01:03Z</time>
      </trkpt>
      <trkpt lat="45.4666" lon="4.15869">
        <ele>575</ele>
        <time>2017-07-28T01:03:03Z</time>
      </trkpt>
      <trkpt lat="45.46659" lon="4.15866">
        <ele>575</ele>
        <time>2017-07-28T01:05:03Z</time>
      </trkpt>
      <trkpt lat="45.46653" lon="4.15849">
        <ele>576</ele>
        <time>2017-07-28T01:07:03Z</time>
      </trkpt>
      <trkpt lat="45.4665" lon="4.15842">
        <ele>576</ele>
        <time>2017-07-28T01:09:03Z</time>
      </trkpt>
      <trkpt lat="45.46642" lon="4.15821">
        <ele>576</ele>
        <time>2017-07-28T01:11:03Z</time>
      </trkpt>
      <trkpt lat="45.4663" lon="4.15787">
        <ele>575</ele>
        <time>2017-07-28T01:13:03Z</time>
      </trkpt>
      <trkpt lat="45.46617" lon="4.15771">
        <ele>575</ele>
        <time>2017-07-28T01:15:03Z</time>
      </trkpt>
      <trkpt lat="45.46604" lon="4.1576">
        <ele>575</ele>
        <time>2017-07-28T01:17:03Z</time>
      </trkpt>
      <trkpt lat="45.46587" lon="4.15747">
        <ele>576</ele>
        <time>2017-07-28T01:19:03Z</time>
      </trkpt>
      <trkpt lat="45.4656" lon="4.15714">
        <ele>577</ele>
        <time>2017-07-28T01:21:03Z</time>
      </trkpt>
      <trkpt lat="45.46549" lon="4.15704">
        <ele>577</ele>
        <time>2017-07-28T01:23:03Z</time>
      </trkpt>
      <trkpt lat="45.46526" lon="4.15687">
        <ele>579</ele>
        <time>2017-07-28T01:25:03Z</time>
      </trkpt>
      <trkpt lat="45.46508" lon="4.15675">
        <ele>580</ele>
        <time>2017-07-28T01:27:03Z</time>
      </trkpt>
      <trkpt lat="45.46503" lon="4.15672">
        <ele>581</ele>
        <time>2017-07-28T01:29:03Z</time>
      </trkpt>
      <trkpt lat="45.46495" lon="4.1567">
        <ele>581</ele>
        <time>2017-07-28T01:31:03Z</time>
      </trkpt>
      <trkpt lat="45.46481" lon="4.15666">
        <ele>581</ele>
        <time>2017-07-28T01:33:03Z</time>
      </trkpt>
      <trkpt lat="45.46467" lon="4.15664">
        <ele>582</ele>
        <time>2017-07-28T01:35:03Z</time>
      </trkpt>
      <trkpt lat="45.46457" lon="4.15663">
        <ele>582</ele>
        <time>2017-07-28T01:37:03Z</time>
      </trkpt>
      <trkpt lat="45.46439" lon="4.15663">
        <ele>583</ele>
        <time>2017-07-28T01:39:03Z</time>
      </trkpt>
      <trkpt lat="45.46429" lon="4.15661">
        <ele>583</ele>
        <time>2017-07-28T01:41:03Z</time>
      </trkpt>
      <trkpt lat="45.46413" lon="4.15655">
        <ele>583</ele>
        <time>2017-07-28T01:43:03Z</time>
      </trkpt>
      <trkpt lat="45.46383" lon="4.15638">
        <ele>584</ele>
        <time>2017-07-28T01:45:03Z</time>
      </trkpt>
      <trkpt lat="45.46356" lon="4.1562">
        <ele>585</ele>
        <time>2017-07-28T01:47:03Z</time>
      </trkpt>
      <trkpt lat="45.46322" lon="4.15598">
        <ele>586</ele>
        <time>2017-07-28T01:49:03Z</time>
      </trkpt>
      <trkpt lat="45.46299" lon="4.15582">
        <ele>588</ele>
        <time>2017-07-28T01:51:03Z</time>
      </trkpt>
      <trkpt lat="45.46287" lon="4.15575">
        <ele>588</ele>
        <time>2017-07-28T01:53:03Z</time>
      </trkpt>
      <trkpt lat="45.4627" lon="4.15565">
        <ele>589</ele>
        <time>2017-07-28T01:55:03Z</time>
      </trkpt>
      <trkpt lat="45.46257" lon="4.15557">
        <ele>590</ele>
        <time>2017-07-28T01:57:03Z</time>
      </trkpt>
      <trkpt lat="45.4625" lon="4.15553">
        <ele>590</ele>
        <time>2017-07-28T01:59:03Z</time>
      </trkpt>
      <trkpt lat="45.46225" lon="4.15533">
        <ele>592</ele>
        <time>2017-07-28T02:01:03Z</time>
      </trkpt>
      <trkpt lat="45.46219" lon="4.15528">
        <ele>593</ele>
        <time>2017-07-28T02:03:03Z</time>
      </trkpt>
      <trkpt lat="45.46212" lon="4.1552">
        <ele>593</ele>
        <time>2017-07-28T02:05:03Z</time>
      </trkpt>
      <trkpt lat="45.46204" lon="4.15509">
        <ele>594</ele>
        <time>2017-07-28T02:07:03Z</time>
      </trkpt>
      <trkpt lat="45.46196" lon="4.15491">
        <ele>595</ele>
        <time>2017-07-28T02:09:03Z</time>
      </trkpt>
      <trkpt lat="45.46185" lon="4.15466">
        <ele>595</ele>
        <time>2017-07-28T02:11:03Z</time>
      </trkpt>
      <trkpt lat="45.46173" lon="4.15442">
        <ele>594</ele>
        <time>2017-07-28T02:13:03Z</time>
      </trkpt>
      <trkpt lat="45.46167" lon="4.1543">
        <ele>594</ele>
        <time>2017-07-28T02:15:03Z</time>
      </trkpt>
      <trkpt lat="45.46157" lon="4.15413">
        <ele>594</ele>
        <time>2017-07-28T02:17:03Z</time>
      </trkpt>
      <trkpt lat="45.46144" lon="4.15398">
        <ele>593</ele>
        <time>2017-07-28T02:19:03Z</time>
      </trkpt>
      <trkpt lat="45.46134" lon="4.15386">
        <ele>593</ele>
        <time>2017-07-28T02:21:03Z</time>
      </trkpt>
      <trkpt lat="45.46113" lon="4.15367">
        <ele>593</ele>
        <time>2017-07-28T02:23:03Z</time>
      </trkpt>
      <trkpt lat="45.46101" lon="4.15356">
        <ele>593</ele>
        <time>2017-07-28T02:25:03Z</time>
      </trkpt>
      <trkpt lat="45.46069" lon="4.15333">
        <ele>593</ele>
        <time>2017-07-28T02:27:03Z</time>
      </trkpt>
      <trkpt lat="45.46043" lon="4.1531">
        <ele>593</ele>
        <time>2017-07-28T02:29:03Z</time>
      </trkpt>
      <trkpt lat="45.4604" lon="4.15285">
        <ele>593</ele>
        <time>2017-07-28T02:31:03Z</time>
      </trkpt>
      <trkpt lat="45.46034" lon="4.15243">
        <ele>593</ele>
        <time>2017-07-28T02:33:03Z</time>
      </trkpt>
      <trkpt lat="45.46027" lon="4.1523">
        <ele>593</ele>
        <time>2017-07-28T02:35:03Z</time>
      </trkpt>
      <trkpt lat="45.46017" lon="4.15233">
        <ele>593</ele>
        <time>2017-07-28T02:37:03Z</time>
      </trkpt>
      <trkpt lat="45.46012" lon="4.15236">
        <ele>593</ele>
        <time>2017-07-28T02:39:03Z</time>
      </trkpt>
    </trkseg>
  </trk>
</gpx>